[[{"header":{"parameterUnit":"m.s-1","parameterCategory":1,"la1":30.6,"la2":28.766,"lo1":-90.7593,"lo2":-88.6598,"dy":0.0162,"dx":0.0183,"nx":116,"ny":114,"refTime":"2023-06-08T12:00:00:Z","depth":0,"parameterNumber":2,"parameterNumberName":"U-component_of_WINDS"},"data":[0.0,0.0,0.0,0.0,0.0,0.0,0.0,0.0,0.0,0.0,0.0,0.0,0.0,0.0,0.0,0.0,0.0,0.0,0.0,0.0,0.0,0.0,0.0,0.0,0.0,0.0,0.0,0.0,0.0,0.0,0.0,0.0,0.0,0.0,0.0,0.0,0.0,0.0,0.0,0.0,0.0,0.0,0.0,0.0,0.0,0.0,0.0,0.0,0.0,0.0,0.0,0.0,0.0,0.0,0.0,0.0,0.0,0.0,0.0,0.0,0.0,0.0,0.0,0.0,0.0,0.0,0.0,0.0,0.0,0.0,0.0,0.0,0.0,0.0,0.0,0.0,0.0,0.0,0.0,0.0,0.0,0.0,0.0,0.0,0.0,0.0,0.0,0.0,0.0,0.0,0.0,0.0,0.0,0.0,0.0,0.0,0.0,0.0,0.0,0.0,0.0,0.0,0.0,0.0,0.0,0.0,0.0,0.0,0.0,0.0,0.0,0.0,0.0,0.0,0.0,0.0,0.0,0.0,0.0,0.0,0.0,0.0,0.0,0.0,0.0,0.0,0.0,0.0,0.0,0.0,0.0,0.0,0.0,0.0,0.0,0.0,0.0,0.0,0.0,0.0,0.0,0.0,0.0,0.0,0.0,0.0,0.0,0.0,0.0,0.0,0.0,0.0,0.0,0.0,0.0,0.0,0.0,0.0,0.0,0.0,0.0,0.0,0.0,0.0,0.0,0.0,0.0,0.0,0.0,0.0,0.0,0.0,0.0,0.0,0.0,0.0,0.0,0.0,0.0,0.0,0.0,0.0,0.0,0.0,0.0,0.0,0.0,0.0,0.0,0.0,0.0,0.0,0.0,0.0,0.0,0.0,0.0,0.0,0.0,0.0,0.0,0.0,0.0,0.0,0.0,0.0,0.0,0.0,0.0,0.0,0.0,0.0,0.0,0.0,0.0,0.0,0.0,0.0,0.0,0.0,0.0,0.0,0.0,0.0,0.0,0.0,0.0,0.0,0.0,0.0,0.0,0.0,0.0,0.0,0.0,0.0,0.0,0.0,0.0,0.0,0.0,0.0,0.0,0.0,0.0,0.0,0.0,0.0,0.0,0.0,0.0,0.0,0.0,0.0,0.0,0.0,0.0,0.0,0.0,0.0,0.0,0.0,0.0,0.0,0.0,0.0,0.0,0.0,0.0,0.0,0.0,0.0,0.0,0.0,0.0,0.0,0.0,0.0,0.0,0.0,0.0,0.0,0.0,0.0,0.0,0.0,0.0,0.0,0.0,0.0,0.0,0.0,0.0,0.0,0.0,0.0,0.0,0.0,0.0,0.0,0.0,0.0,0.0,0.0,0.0,0.0,0.0,0.0,0.0,0.0,0.0,0.0,0.0,0.0,0.0,0.0,0.0,0.0,0.0,0.0,0.0,0.0,0.0,0.0,0.0,0.0,0.0,0.0,0.0,0.0,0.0,0.0,0.0,0.0,0.0,0.0,0.0,0.0,0.0,0.0,0.0,0.0,0.0,0.0,0.0,0.0,0.0,0.0,0.0,0.0,0.0,0.0,0.0,0.0,0.0,0.0,0.0,0.0,0.0,0.0,0.0,0.0,0.0,0.0,0.0,0.0,0.0,0.0,0.0,0.0,0.0,0.0,0.0,0.0,0.0,0.0,0.0,0.0,0.0,0.0,0.0,0.0,0.0,0.0,0.0,0.0,0.0,0.0,0.0,0.0,0.0,0.0,0.0,0.0,0.0,0.0,0.0,0.0,0.0,0.0,0.0,0.0,0.0,0.0,0.0,0.0,0.0,0.0,0.0,0.0,0.0,0.0,0.0,0.0,0.0,0.0,0.0,0.0,0.0,0.0,0.0,0.0,0.0,0.0,0.0,0.0,0.0,0.0,0.0,0.0,0.0,0.0,0.0,0.0,0.0,0.0,0.0,0.0,0.0,0.0,0.0,0.0,0.0,0.0,0.0,0.0,0.0,0.0,0.0,0.0,0.0,0.0,0.0,0.0,0.0,0.0,0.0,0.0,0.0,0.0,0.0,0.0,0.0,0.0,0.0,0.0,0.0,0.0,0.0,0.0,0.0,0.0,0.0,0.0,0.0,0.0,0.0,0.0,0.0,0.0,0.0,0.0,0.0,0.0,0.0,0.0,0.0,0.0,0.0,0.0,0.0,0.0,0.0,0.0,0.0,0.0,0.0,0.0,0.0,0.0,0.0,0.0,0.0,0.0,0.0,0.0,0.0,0.0,0.0,0.0,0.0,0.0,0.0,0.0,0.0,0.0,0.0,0.0,0.0,0.0,0.0,0.0,0.0,0.0,0.0,0.0,0.0,0.0,0.0,0.0,0.0,0.0,0.0,0.0,0.0,0.0,0.0,0.0,0.0,0.0,0.0,0.0,0.0,0.0,0.0,0.0,0.0,0.0,0.0,0.0,0.0,0.0,0.0,0.0,0.0,0.0,0.0,0.0,0.0,0.0,0.0,0.0,0.0,0.0,0.0,0.0,0.0,0.0,0.0,0.0,0.0,0.0,0.0,0.0,0.0,0.0,0.0,0.0,0.0,0.0,0.0,0.0,0.0,0.0,0.0,0.0,0.0,0.0,0.0,0.0,0.0,0.0,0.0,0.0,0.0,0.0,0.0,0.0,0.0,0.0,0.0,0.0,0.0,0.0,0.0,0.0,0.0,0.0,0.0,0.0,0.0,0.0,0.0,0.0,0.0,0.0,0.0,0.0,0.0,0.0,0.0,0.0,0.0,0.0,0.0,0.0,0.0,0.0,0.0,0.0,0.0,0.0,0.0,0.0,0.0,0.0,0.0,0.0,0.0,0.0,0.0,0.0,0.0,0.0,0.0,0.0,0.0,0.0,0.0,0.0,0.0,0.0,0.0,0.0,0.0,0.0,0.0,0.0,0.0,0.0,0.0,0.0,0.0,0.0,0.0,0.0,0.0,0.0,0.0,0.0,0.0,0.0,0.0,0.0,0.0,0.0,0.0,0.0,0.0,0.0,0.0,0.0,0.0,0.0,0.0,0.0,0.0,0.0,0.0,0.0,0.0,0.0,0.0,0.0,0.0,0.0,0.0,0.0,0.0,0.0,0.0,0.0,0.0,0.0,0.0,0.0,0.0,0.0,0.0,0.0,0.0,0.0,0.0,0.0,0.0,0.0,0.0,0.0,0.0,0.0,0.0,0.0,0.0,0.0,0.0,0.0,0.0,0.0,0.0,0.0,0.0,0.0,0.0,0.0,0.0,0.0,0.0,0.0,0.0,0.0,0.0,0.0,0.0,0.0,0.0,0.0,0.0,0.0,0.0,0.0,0.0,0.0,0.0,0.0,0.0,0.0,0.0,0.0,0.0,0.0,0.0,0.0,0.0,0.0,0.0,0.0,0.0,0.0,0.0,0.0,0.0,0.0,0.0,0.0,0.0,0.0,0.0,0.0,0.0,0.0,0.0,0.0,0.0,0.0,0.0,0.0,0.0,0.0,0.0,0.0,0.0,0.0,0.0,0.0,0.0,0.0,0.0,0.0,0.0,0.0,0.0,0.0,0.0,0.0,0.0,0.0,0.0,0.0,0.0,0.0,0.0,0.0,0.0,0.0,0.0,0.0,0.0,0.0,0.0,0.0,0.0,0.0,0.0,0.0,0.0,0.0,0.0,0.0,0.0,0.0,0.0,0.0,0.0,0.0,0.0,0.0,0.0,0.0,0.0,0.0,0.0,0.0,0.0,0.0,0.0,0.0,0.0,0.0,0.0,0.0,0.0,0.0,0.0,0.0,0.0,0.0,0.0,0.0,0.0,0.0,0.0,0.0,0.0,0.0,0.0,0.0,0.0,0.0,0.0,0.0,0.0,0.0,0.0,0.0,0.0,0.0,0.0,0.0,0.0,0.0,0.0,0.0,0.0,0.0,0.0,0.0,0.0,0.0,0.0,0.0,0.0,0.0,0.0,0.0,0.0,0.0,0.0,0.0,0.0,0.0,0.0,0.0,0.0,0.0,0.0,0.0,0.0,0.0,0.0,0.0,0.0,0.0,0.0,0.0,0.0,0.0,0.0,0.0,0.0,0.0,0.0,0.0,0.0,0.0,0.0,0.0,0.0,0.0,0.0,0.0,0.0,0.0,0.0,0.0,0.0,0.0,0.0,0.0,0.0,0.0,0.0,0.0,0.0,0.0,0.0,0.0,0.0,0.0,0.0,0.0,0.0,0.0,0.0,0.0,0.0,0.0,0.0,0.0,0.0,0.0,0.0,0.0,0.0,0.0,0.0,0.0,0.0,0.0,0.0,0.0,0.0,0.0,0.0,0.0,0.0,0.0,0.0,0.0,0.0,0.0,0.0,0.0,0.0,0.0,0.0,0.0,0.0,0.0,0.0,0.0,0.0,0.0,0.0,0.0,0.0,0.0,0.0,0.0,0.0,0.0,0.0,0.0,0.0,0.0,0.0,0.0,0.0,0.0,0.0,0.0,0.0,0.0,0.0,0.0,0.0,0.0,0.0,0.0,0.0,0.0,0.0,0.0,0.0,0.0,0.0,0.0,0.0,0.0,0.0,0.0,0.0,0.0,0.0,0.0,0.0,0.0,0.0,0.0,0.0,0.0,0.0,0.0,0.0,0.0,0.0,0.0,0.0,0.0,0.0,0.0,0.0,0.0,0.0,0.0,0.0,0.0,0.0,0.0,0.0,0.0,0.0,0.0,0.0,0.0,0.0,0.0,0.0,0.0,0.0,0.0,0.0,0.0,0.0,0.0,0.0,0.0,0.0,0.0,0.0,0.0,0.0,0.0,0.0,0.0,0.0,0.0,0.0,0.0,0.0,0.0,0.0,0.0,0.0,0.0,0.0,0.0,0.0,0.0,0.0,0.0,0.0,0.0,0.0,0.0,0.0,0.0,0.0,0.0,0.0,0.0,0.0,0.0,0.0,0.0,0.0,0.0,0.0,0.0,0.0,0.0,0.0,0.0,0.0,0.0,0.0,0.0,0.0,0.0,0.0,0.0,0.0,0.0,0.0,0.0,0.0,0.0,0.0,0.0,0.0,0.0,0.0,0.0,0.0,0.0,0.0,0.0,0.0,0.0,0.0,0.0,0.0,0.0,0.0,0.0,0.0,0.0,0.0,0.0,0.0,0.0,0.0,0.0,0.0,0.0,0.0,0.0,0.0,0.0,0.0,0.0,0.0,0.0,0.0,0.0,0.0,0.0,0.0,0.0,0.0,0.0,0.0,0.0,0.0,0.0,0.0,0.0,0.0,0.0,0.0,0.0,0.0,0.0,0.0,0.0,0.0,0.0,0.0,0.0,0.0,0.0,0.0,0.0,0.0,0.0,0.0,0.0,0.0,0.0,0.0,0.0,0.0,0.0,0.0,0.0,0.0,0.0,0.0,0.0,0.0,0.0,0.0,0.0,0.0,0.0,0.0,0.0,0.0,0.0,0.0,0.0,0.0,0.0,0.0,0.0,0.0,0.0,0.0,0.0,0.0,0.0,0.0,0.0,0.0,0.0,0.0,0.0,0.0,0.0,0.0,0.0,0.0,0.0,0.0,0.0,0.0,0.0,0.0,0.0,0.0,0.0,0.0,0.0,0.0,0.0,0.0,0.0,0.0,0.0,0.0,0.0,0.0,0.0,0.0,0.0,0.0,0.0,0.0,0.0,0.0,0.0,0.0,0.0,0.0,0.0,0.0,0.0,0.0,0.0,0.0,0.0,0.0,0.0,0.0,0.0,0.0,0.0,0.0,0.0,0.0,0.0,0.0,0.0,0.0,0.0,0.0,0.0,0.0,0.0,0.0,0.0,0.0,0.0,0.0,0.0,0.0,0.0,0.0,0.0,0.0,0.0,0.0,0.0,0.0,0.0,0.0,0.0,0.0,0.0,0.0,0.0,0.0,0.0,0.0,0.0,0.0,0.0,0.0,0.0,0.0,0.0,0.0,0.0,0.0,0.0,0.0,0.0,0.0,0.0,0.0,0.0,0.0,0.0,0.0,0.0,0.0,0.0,0.0,0.0,0.0,0.0,0.0,0.0,0.0,0.0,0.0,0.0,0.0,0.0,0.0,0.0,0.0,0.0,0.0,0.0,0.0,0.0,0.0,0.0,0.0,0.0,1.8891,0.0,0.0,0.0,0.0,0.0,0.0,0.0,0.0,0.0,0.0,0.0,0.0,0.0,0.0,0.0,0.0,0.0,0.0,0.0,0.0,0.0,0.0,0.0,0.0,0.0,0.0,0.0,0.0,0.0,0.0,0.0,0.0,0.0,0.0,0.0,0.0,0.0,0.0,0.0,1.376,1.3756,1.4137,1.5785,1.7071,1.802,0.0,0.0,0.0,0.0,0.0,0.0,0.0,0.0,0.0,0.0,0.0,0.0,0.0,0.0,0.0,0.0,0.0,0.0,0.0,0.0,0.0,0.0,0.0,0.0,0.0,0.0,0.0,0.0,0.0,0.0,0.0,0.0,0.0,0.0,0.0,0.0,0.0,0.0,0.0,0.0,0.0,0.0,0.0,0.0,0.0,0.0,0.0,0.0,0.0,0.0,0.0,0.0,0.0,0.0,0.0,0.0,0.0,0.0,0.0,0.0,0.0,0.0,0.0,0.0,0.0,0.0,0.0,0.0,0.0,0.0,0.0,1.9907,0.0,0.0,0.0,0.0,0.0,0.0,0.0,0.0,0.0,0.0,0.0,0.0,0.0,0.0,0.0,0.0,0.0,0.0,0.0,0.0,0.0,0.0,0.0,0.8937,0.9502,0.9828,0.9925,1.0406,0.0,0.0,0.0,0.0,0.0,0.0,0.0,1.2491,1.3207,1.4498,1.3147,1.3177,1.4505,1.5743,1.6629,1.7185,1.8443,0.0,0.0,0.0,0.0,0.0,0.0,0.0,0.0,0.0,0.0,0.0,0.0,0.0,0.0,0.0,0.0,0.0,0.0,0.0,0.0,0.0,0.0,0.0,0.0,0.0,0.0,0.0,0.0,0.0,0.0,0.0,0.0,0.0,0.0,0.0,0.0,0.0,0.0,0.0,0.0,0.0,0.0,0.0,0.0,0.0,0.0,0.0,0.0,0.0,0.0,0.0,0.0,0.0,0.0,0.0,0.0,0.0,0.0,0.0,0.0,0.0,0.0,0.0,2.0378,2.0543,2.0475,2.1019,2.105,2.0711,2.0801,2.0709,2.0522,2.058,0.0,0.0,0.0,0.0,0.0,0.0,0.0,0.0,0.0,0.0,0.0,0.0,0.0,0.0,0.0,0.0,0.0,0.0,0.0,0.0,0.0,0.8606,0.9019,0.9579,1.002,1.0462,1.1048,0.0,0.0,0.0,0.0,0.0,1.2302,1.2435,1.2503,1.2479,1.2438,1.3358,1.5167,1.5832,1.6552,1.7268,1.7067,1.7702,1.8883,0.0,0.0,0.0,0.0,0.0,0.0,0.0,0.0,0.0,0.0,0.0,0.0,0.0,0.0,0.0,0.0,0.0,0.0,0.0,0.0,0.0,0.0,0.0,0.0,0.0,0.0,0.0,0.0,0.0,0.0,0.0,0.0,0.0,0.0,0.0,0.0,0.0,0.0,0.0,0.0,0.0,1.7273,1.7055,0.0,0.0,0.0,0.0,0.0,0.0,0.0,0.0,0.0,0.0,0.0,0.0,0.0,1.9625,1.9942,2.0603,2.0837,2.0561,2.0652,2.0364,1.9838,2.0485,2.0758,2.0719,2.1186,0.0,2.0264,2.0444,0.0,0.0,0.0,0.0,0.0,0.0,0.0,0.0,0.0,0.0,0.0,0.0,0.0,0.0,0.0,0.0,0.0,0.0,0.0,0.0,0.0,0.8656,0.8952,0.9328,1.009,1.0578,1.0717,1.1359,0.0,0.0,0.0,1.2164,1.2691,1.2203,1.1843,1.1661,1.3491,1.4507,1.4631,1.5524,1.6445,1.7395,1.6799,1.7465,1.8977,1.8807,0.0,0.0,0.0,0.0,0.0,0.0,0.0,0.0,0.0,0.0,0.0,0.0,0.0,0.0,0.0,0.0,0.0,0.0,0.0,0.0,0.0,0.0,0.0,0.0,0.0,0.0,0.0,0.0,0.0,0.0,0.0,0.0,0.0,0.0,0.0,0.0,0.0,0.0,0.0,1.7452,1.8365,1.8108,1.9102,1.9782,0.0,0.0,0.0,0.0,0.0,0.0,0.0,0.0,0.0,2.0071,2.0141,2.0389,2.0984,2.1424,2.1855,2.2279,2.1914,2.1723,2.159,2.1394,2.1454,2.178,2.1809,2.1621,2.1258,2.0878,2.1254,2.203,0.0,0.0,0.0,0.0,2.1913,2.181,0.0,0.0,0.0,0.0,0.0,0.0,0.0,0.0,0.0,0.0,0.0,0.0,0.8288,0.8478,0.8748,0.9219,0.9846,1.0398,1.08,1.1096,1.1389,0.0,1.1798,1.2201,1.2978,1.2352,1.197,1.1902,1.4385,1.5282,1.4671,1.5891,1.6991,1.7917,1.7695,1.8097,1.9001,1.8827,1.8921,1.9216,0.0,0.0,0.0,0.0,0.0,0.0,0.0,0.0,0.0,0.0,0.0,0.0,0.0,0.0,0.0,0.0,0.0,0.0,0.0,0.0,0.0,0.0,0.0,0.0,0.0,0.0,0.0,0.0,0.0,0.0,0.0,0.0,0.0,0.0,0.0,0.0,0.0,1.8135,1.8881,1.8927,1.9661,2.0273,0.0,0.0,0.0,0.0,0.0,0.0,2.0987,2.0685,2.0717,2.1308,2.1029,2.1197,2.1962,2.2409,2.2972,2.3638,2.3403,2.3234,2.3192,2.2495,2.244,2.2833,2.2757,2.2753,2.2641,2.1624,2.1641,2.2274,2.2005,2.1982,2.2106,2.2225,2.223,2.2102,0.0,0.0,0.0,0.0,0.0,0.0,0.0,0.0,0.0,0.0,0.0,0.7058,0.786,0.7713,0.8065,0.9267,0.914,0.9773,1.1595,1.0521,1.0457,1.1903,1.1978,1.2313,1.2993,1.3254,1.3435,1.3467,1.4212,1.5103,1.6126,1.7591,1.8587,1.914,2.0074,1.9972,1.9034,1.794,1.8177,1.9286,1.9158,0.0,0.0,0.0,0.0,0.0,0.0,0.0,0.0,0.0,0.0,0.0,0.0,0.0,0.0,0.0,0.0,0.0,0.0,0.0,0.0,0.0,0.0,0.0,0.0,0.0,0.0,0.0,0.0,0.0,0.0,0.0,0.0,0.0,0.0,0.0,0.0,0.0,0.0,1.8704,2.0034,0.0,0.0,0.0,0.0,2.014,2.1309,2.1839,2.1397,2.1937,2.2079,2.1674,2.1965,2.2409,2.3004,2.4035,2.4378,2.4055,2.4756,2.4554,2.3576,2.3548,2.3505,2.3578,2.4193,2.4477,2.4372,2.2702,2.2064,2.2156,2.2514,2.2789,2.293,2.2738,2.2503,2.222,0.0,0.0,0.0,0.0,0.0,0.0,0.0,0.0,0.648,0.6802,0.7132,0.7518,0.798,0.7921,0.8162,0.8933,0.919,0.9677,1.0584,1.0953,1.1422,1.2167,1.2608,1.2864,1.2927,1.3641,1.3972,1.3862,1.4865,1.5825,1.6779,1.7491,1.8424,1.9482,2.006,2.0304,2.0246,1.9386,1.8824,1.8549,1.872,1.8796,0.0,0.0,0.0,0.0,0.0,0.0,0.0,0.0,0.0,0.0,0.0,0.0,0.0,0.0,0.0,0.0,0.0,0.0,0.0,0.0,0.0,0.0,0.0,0.0,0.0,0.0,0.0,0.0,0.0,0.0,0.0,0.0,0.0,0.0,0.0,0.0,0.0,2.0783,2.1439,0.0,2.2524,2.2388,2.2383,2.2659,2.2936,2.3332,2.381,2.3838,2.3917,2.4193,2.4341,2.4694,2.5412,2.5337,2.5326,2.545,2.5041,2.4601,2.4261,2.4234,2.4386,2.4576,2.5047,2.5255,2.5211,2.4582,2.3958,2.3386,2.3251,2.3141,2.3041,2.3003,2.3305,2.3719,0.0,0.0,0.0,0.0,0.0,0.0,0.0,0.0,0.5913,0.6105,0.6643,0.71,0.7404,0.7405,0.7742,0.8663,0.8881,0.9432,1.0545,1.0966,1.1615,1.2595,1.3326,1.3489,1.3002,1.4306,1.4834,1.4511,1.5626,1.6534,1.7174,1.779,1.8564,1.9514,2.0257,2.0762,2.0998,2.0607,1.9771,1.8731,1.896,1.9144,1.9178,0.0,0.0,0.0,0.0,0.0,0.0,0.0,0.0,0.0,0.0,0.0,0.0,0.0,0.0,0.0,0.0,0.0,0.0,0.0,0.0,0.0,0.0,0.0,0.0,0.0,0.0,0.0,0.0,0.0,0.0,0.0,0.0,0.0,0.0,0.0,2.0787,2.2394,2.2794,2.3285,2.428,2.3871,2.3748,2.4217,2.4253,2.4611,2.5317,2.5093,2.5151,2.56,2.5693,2.6001,2.6497,2.6368,2.6264,2.6157,2.5699,2.5296,2.4952,2.4927,2.5032,2.5273,2.5738,2.5944,2.5959,2.6183,2.577,2.4879,2.4411,2.4109,2.3955,2.3955,2.4384,2.4955,0.0,0.0,0.0,0.0,0.0,0.0,0.0,0.4776,0.51,0.5153,0.5395,0.5691,0.6046,0.6139,0.6834,0.8429,0.8174,0.9021,1.1575,1.0552,1.0897,1.3195,1.4001,1.4046,1.3267,1.5196,1.5983,1.5516,1.6478,1.7118,1.7314,1.8585,1.9192,1.9279,2.089,2.1389,2.107,2.149,2.1041,1.997,2.0019,2.0134,2.0218,0.0,0.0,0.0,0.0,0.0,0.0,0.0,0.0,0.0,0.0,0.0,0.0,0.0,0.0,0.0,0.0,0.0,0.0,0.0,0.0,0.0,0.0,0.0,0.0,0.0,0.0,0.0,0.0,0.0,0.0,0.0,0.0,0.0,1.9908,2.047,2.1592,2.346,2.3979,2.4185,2.4216,2.4722,2.497,2.4687,2.53,2.5674,2.5674,2.5674,2.5674,2.5674,2.597,2.6138,2.6184,2.7148,2.7133,2.6153,2.6826,2.6623,2.5615,2.563,2.5644,2.5704,2.6348,2.6632,2.6692,2.737,2.72,2.6557,2.5899,2.563,2.563,2.563,2.5659,2.5717,0.0,0.0,0.0,0.0,0.0,0.0,0.0,0.4296,0.466,0.4227,0.4878,0.5336,0.5234,0.5705,0.6401,0.7234,0.7766,0.8862,1.0814,1.1005,1.1743,1.3376,1.2484,1.2571,1.3916,1.4093,1.4721,1.5856,1.6436,1.6958,1.738,1.835,1.9097,1.974,2.1008,2.172,2.1928,2.2757,2.2676,2.1851,2.0895,2.027,1.9841,0.0,0.0,0.0,0.0,0.0,0.0,0.0,0.0,0.0,0.0,0.0,0.0,0.0,0.0,0.0,0.0,0.0,0.0,0.0,0.0,0.0,0.0,0.0,0.0,0.0,0.0,0.0,0.0,0.0,0.0,0.0,0.0,2.074,2.0756,2.2202,2.3836,2.5318,2.5509,2.5741,2.6306,2.6459,2.6519,2.6488,2.6856,2.7184,2.7476,2.7233,2.7036,2.7036,2.712,2.7315,2.762,2.7362,2.7117,2.6887,2.6566,2.6138,2.563,2.6093,2.6572,2.7036,2.723,2.759,2.8023,2.7694,2.7505,2.7245,2.6572,2.6318,2.6318,2.6318,2.6617,2.7051,0.0,0.0,0.0,0.0,0.0,0.0,0.0,0.3849,0.4079,0.3573,0.4293,0.4741,0.4357,0.5165,0.5941,0.6465,0.7601,0.9008,1.0707,1.1902,1.2617,1.2732,1.2343,1.2694,1.3988,1.4599,1.5488,1.6699,1.7515,1.8058,1.8357,1.9077,1.9694,2.0273,2.1556,2.2257,2.2548,2.3554,2.3929,2.3775,2.3026,2.2103,2.1169,2.0975,2.0891,2.0793,1.9781,2.0123,2.0788,1.9246,0.0,0.0,0.0,0.0,0.0,0.0,0.0,0.0,0.0,0.0,0.0,0.0,0.0,0.0,0.0,0.0,0.0,0.0,0.0,0.0,0.0,0.0,0.0,0.0,2.1855,2.2935,2.3685,2.462,2.5621,2.6669,2.7243,2.7637,2.7773,2.7739,2.7739,2.7788,2.7936,2.8111,2.8364,2.8417,2.8464,2.8464,2.8464,2.8568,2.8773,2.8344,2.8147,2.8197,2.7788,2.7459,2.729,2.7679,2.8053,2.8464,2.8464,2.8637,2.8981,2.8577,2.8464,0.0,0.0,0.0,0.0,0.0,2.7295,2.7625,0.0,0.0,0.0,0.0,0.0,0.0,0.0,0.349,0.3488,0.3094,0.3701,0.3969,0.3368,0.4389,0.5377,0.5873,0.7467,0.9188,1.0873,1.2663,1.3032,1.1762,1.2817,1.3521,1.3706,1.5786,1.7134,1.76,1.9025,1.9688,1.9688,2.0299,2.0601,2.0682,2.2241,2.2936,2.3,2.4021,2.4824,2.5493,2.5549,2.4753,2.3434,2.2724,2.2715,2.2845,2.1203,2.1044,2.145,2.0273,0.0,0.0,0.0,0.0,0.0,0.0,0.0,0.0,0.0,0.0,0.0,0.0,0.0,0.0,0.0,0.0,0.0,0.0,0.0,0.0,0.0,0.0,0.0,0.0,2.4307,2.5924,2.767,2.7395,2.723,2.779,2.8846,2.9325,2.8667,2.8667,2.8682,2.8607,2.8667,2.8712,2.8712,0.0,0.0,0.0,0.0,2.9609,2.9684,2.9609,2.9633,2.9687,2.9633,2.9633,2.9687,2.9633,2.9624,2.9684,2.9609,2.9624,2.9684,2.9609,2.9624,2.9624,2.8966,2.8338,2.785,2.785,2.785,2.785,0.0,0.0,0.0,0.0,0.0,0.0,0.0,0.327,0.3109,0.2591,0.3017,0.307,0.2382,0.3401,0.4381,0.4824,0.651,0.8349,1.0251,1.0927,1.142,1.1757,1.1782,1.2474,1.3929,1.5399,1.6636,1.7594,1.9004,1.9688,1.97,2.0199,2.0554,2.089,2.2321,2.3132,2.3455,2.473,2.5397,2.5507,2.5887,2.5535,2.4728,2.4582,2.4104,2.3386,2.2711,2.3219,2.3923,2.228,2.2398,2.2836,2.0404,1.986,0.0,0.0,0.0,0.0,0.0,0.0,0.0,0.0,0.0,0.0,0.0,0.0,0.0,0.0,0.0,0.0,0.0,0.0,0.0,2.4904,2.6144,2.7593,2.9654,2.9834,2.9609,2.9235,2.943,2.9325,2.8667,2.9086,2.9175,2.8637,2.9086,2.94,2.94,2.9505,2.9804,3.0313,2.9849,2.9819,3.0313,2.9834,2.978,3.0105,0.0,0.0,3.0053,2.9726,2.9864,3.0298,2.9804,2.9864,3.0283,2.9789,2.9879,3.0253,2.9639,2.931,2.919,2.919,2.919,2.919,0.0,0.0,0.0,0.0,0.0,0.0,0.0,0.3054,0.3037,0.2594,0.2879,0.3007,0.2833,0.3803,0.4646,0.5207,0.7108,0.8717,0.9848,1.0438,1.0971,1.1259,1.1802,1.2763,1.4327,1.5623,1.6901,1.8029,1.9187,1.9958,2.0435,2.085,2.1342,2.1999,2.3159,2.4005,2.4638,2.5582,2.614,2.6388,2.6583,2.6546,2.6299,2.6101,2.5438,2.4636,2.4015,2.4216,2.4476,2.3101,2.3115,2.3391,2.1845,2.1334,2.1093,0.0,0.0,0.0,0.0,0.0,0.0,0.0,0.0,0.0,0.0,0.0,0.0,0.0,0.0,2.1605,0.0,0.0,2.5119,2.7252,2.8056,2.9173,3.1225,3.1225,3.0776,3.0118,3.0357,3.0298,2.9624,2.9849,2.9909,2.9579,2.9864,3.0043,3.0043,3.0372,3.0702,3.1001,3.0717,3.0866,3.1509,3.1195,3.1144,3.1354,3.1144,3.0979,3.084,3.0648,3.0731,3.1016,3.1046,3.1031,3.1001,3.0687,3.0746,3.0986,3.0687,3.0357,2.9998,2.9699,2.9579,2.9579,0.0,0.0,0.0,0.0,0.0,0.0,0.0,0.2887,0.2955,0.2701,0.2888,0.3162,0.3403,0.4268,0.5125,0.5996,0.7709,0.8953,0.9337,1.0116,1.0621,1.0799,1.2032,1.3296,1.4637,1.5984,1.7254,1.8359,1.9498,2.0413,2.1175,2.1702,2.2297,2.3059,2.4025,2.4883,2.5665,2.6421,2.6974,2.7349,2.7246,2.7313,2.7397,2.7051,2.6536,2.5959,2.5375,2.4847,2.4337,2.3716,2.3376,2.318,2.3079,2.2705,2.2177,2.1373,2.0557,0.0,0.0,0.0,0.0,0.0,0.0,0.0,0.0,0.0,2.1227,2.2591,2.3421,2.4249,2.5466,2.6516,2.7801,2.9623,3.0189,3.0896,3.2363,3.2079,3.1452,3.0842,3.1213,3.127,3.0567,3.0627,3.0702,3.0702,3.0702,3.0761,3.0881,3.142,3.1779,3.1855,3.1913,3.2228,3.2886,3.2766,3.2751,3.2811,3.2751,3.2422,3.2015,3.1913,3.1913,3.1943,3.2482,3.2407,3.1913,3.1913,3.1913,3.1913,3.1913,3.1569,3.1016,3.0387,3.0073,2.9998,0.0,0.0,0.0,0.0,0.0,0.0,0.0,0.0,0.255,0.2529,0.2743,0.2899,0.2901,0.3632,0.4801,0.647,0.7001,0.7649,0.8553,0.8738,0.9356,1.0726,1.1789,1.3004,1.4388,1.6118,1.7269,1.7821,1.9937,2.0973,2.1123,2.2139,2.2805,2.3223,2.4306,2.5133,2.5955,2.6978,2.763,2.7943,2.7452,2.7284,2.7303,2.7,2.6821,2.6818,2.7159,2.5955,2.4312,2.4752,2.4491,2.3926,2.3606,2.3838,2.3764,2.1569,0.0,2.1011,2.0958,2.0715,2.0656,2.1541,2.1335,2.1551,0.0,0.0,2.4168,2.5788,2.663,2.7323,2.8041,2.9687,3.1177,3.1987,3.2676,3.3019,3.2933,3.263,3.2258,3.1885,3.1619,3.127,3.0567,3.1061,3.1362,3.1362,3.1362,3.1674,3.2258,3.2362,3.2677,3.326,3.3275,3.3589,3.4247,3.3679,3.3547,3.3922,3.3547,3.3563,3.38,3.3442,3.3275,3.3275,3.335,3.335,3.3275,3.3275,3.3275,3.3275,3.3275,3.323,3.308,3.2422,3.1824,3.148,0.0,0.0,0.0,0.0,0.0,0.0,0.0,0.0,0.0,0.26,0.2762,0.3063,0.3671,0.4962,0.6229,0.731,0.6833,0.696,0.8101,0.7853,0.8328,0.966,1.1279,1.2773,1.4032,1.5426,1.666,1.7673,1.887,2.0002,2.1134,2.1881,2.2897,2.4155,2.4895,2.567,2.642,2.6868,2.736,2.7693,2.7123,2.7055,2.7258,2.6635,2.5857,2.5187,2.5772,2.5062,0.0,2.3697,2.3593,2.3525,2.3092,2.3251,2.325,2.1716,2.1117,0.0,2.1026,2.1943,2.2899,0.0,2.3491,2.4744,2.6321,2.6522,2.6803,2.8269,2.891,2.9516,3.0406,3.1575,3.2525,0.0,3.332,3.3572,3.3821,3.3109,3.2452,3.2333,3.1468,3.0986,3.1091,3.1704,3.2108,3.2108,3.2108,3.2392,3.3051,3.2721,3.2826,3.3469,3.3499,3.3814,3.4472,3.4203,3.4177,3.4332,3.4177,3.3982,3.3759,3.3607,3.3709,3.4038,3.3664,3.3709,3.4038,3.3649,3.3499,3.3499,3.3499,3.3499,3.3469,3.3185,3.2901,3.2751,0.0,0.0,0.0,0.0,0.0,0.0,0.0,0.0,0.0,0.0,0.268,0.3238,0.44,0.5785,0.6867,0.7402,0.678,0.6659,0.7364,0.7315,0.7645,0.8661,1.0638,1.2318,1.3608,1.496,1.6252,1.7488,1.8304,1.9416,2.0834,2.1491,2.2744,2.4317,2.4956,2.5761,2.6659,2.6966,2.726,2.7531,2.6907,2.6707,2.6571,2.5512,2.4361,2.3399,2.416,2.3612,2.2534,2.2318,2.2485,2.2717,2.245,2.2771,2.3036,2.1859,2.1326,2.124,2.1989,0.0,0.0,2.4626,2.5966,2.7561,2.8338,2.8744,2.9285,3.0397,3.0817,3.1235,3.2024,3.2555,3.3,3.3428,3.3523,3.3672,3.4129,3.3075,3.2184,3.2095,3.0947,3.0395,3.1123,3.1674,3.2108,3.2482,3.2512,3.2796,3.3455,3.3215,3.3275,3.3754,3.3948,3.4277,3.4756,3.4756,3.4756,3.4756,3.4756,3.4502,3.4053,3.4053,3.4307,3.4741,3.4262,3.4322,3.4726,3.4247,3.4053,3.4053,3.4053,3.4053,3.4053,3.4053,3.3814,3.3544,0.0,0.0,0.0,0.0,0.0,0.0,0.0,0.0,0.0,0.0,0.0,0.0,0.0,0.519,0.5682,0.63,0.6734,0.678,0.6283,0.7091,0.7695,0.7922,0.9839,1.1606,1.3112,1.5036,1.6261,1.6901,1.8715,1.9757,2.0111,2.1173,2.2149,2.3101,2.4211,2.5238,2.6189,2.737,2.7767,2.7686,2.7079,2.6178,2.4976,2.3317,2.2387,2.2128,2.3175,2.1958,2.0059,2.1069,2.1546,2.1697,2.1995,2.3061,0.0,2.2079,2.16,2.2141,0.0,0.0,2.5592,2.7779,2.8631,2.9263,3.0602,3.1081,3.1521,3.2173,3.2396,3.2425,3.2504,3.2518,3.2751,3.3405,3.3513,3.3504,3.3449,3.2421,3.1509,3.1117,2.9938,2.9489,0.0,3.0552,3.1106,3.2422,3.2512,3.2796,3.3455,3.4083,3.4427,3.4442,3.51,3.5459,3.5474,3.5474,3.5474,3.5474,3.5474,3.5459,3.5444,3.5444,3.5459,3.5474,3.5459,3.5459,3.5474,3.5459,3.5444,3.5444,3.5444,3.5444,3.5444,3.5444,3.4622,3.3679,0.0,0.0,0.0,0.0,0.0,0.0,0.0,0.0,0.0,0.0,0.0,0.0,0.0,0.0,0.0,0.0,0.5821,0.5797,0.5988,0.6233,0.6534,0.6908,0.8571,0.9928,1.0837,1.2841,1.4156,1.4746,1.6679,1.7996,1.881,2.0155,2.1301,2.228,2.3031,2.3648,2.4177,2.4345,2.467,2.504,2.3897,2.377,2.4133,2.2204,2.1345,2.1101,0.0,2.0758,2.014,2.0091,2.0221,2.0425,2.0362,2.1027,2.1805,2.1755,2.2283,2.3169,2.4599,0.0,2.8106,2.9431,3.0708,3.1852,3.2706,3.2948,3.2844,3.2227,3.1584,3.1064,3.0999,3.1034,3.1429,3.269,3.3302,3.3657,3.3715,3.3407,3.2647,3.1471,3.0964,0.0,0.0,0.0,0.0,3.2761,3.3048,3.3511,3.4342,3.4465,3.4681,3.5145,3.5385,3.5504,3.5504,3.5504,3.5504,3.5504,3.5504,3.5504,3.5504,3.5504,3.5504,3.5504,3.5504,3.5504,3.5504,3.5504,3.5504,3.5504,3.5504,3.5504,3.5504,3.5504,3.522,3.4891,0.0,0.0,0.0,0.0,0.0,0.0,0.0,0.0,0.0,0.0,0.0,0.0,0.0,0.0,0.0,0.0,0.0,0.5338,0.5428,0.5828,0.6077,0.6146,0.7641,0.8998,0.9936,1.1626,1.2931,1.3864,1.4958,1.6246,1.7615,1.7983,1.8877,2.0273,2.075,2.1352,2.197,2.1835,2.2247,2.2754,2.1717,2.1766,2.2309,2.0794,2.0152,0.0,1.9521,1.9515,1.9716,1.9388,1.9568,1.9831,1.9478,2.0059,2.098,2.1792,2.3149,2.4675,2.5937,2.8213,3.0456,3.1289,3.2517,3.3542,3.3791,3.3571,3.3018,3.2062,3.0939,3.0032,2.9769,2.9546,2.9855,3.1034,3.1604,3.2149,3.2743,3.2579,3.217,3.156,3.1309,3.116,0.0,0.0,0.0,3.245,3.3332,3.405,3.4406,3.4688,3.504,3.5489,3.5504,3.5504,3.5504,3.5504,3.5504,3.5504,3.5504,3.5504,3.5504,3.5504,3.5504,3.5504,3.5504,3.5504,3.5504,3.5504,3.5504,3.5504,3.5504,3.5504,3.5504,3.5504,3.5504,3.5504,0.0,0.0,0.0,0.0,0.0,0.0,0.0,0.0,0.0,0.0,0.0,0.0,0.0,0.0,0.0,0.0,0.0,0.0,0.4691,0.5884,0.6354,0.5712,0.7115,0.8665,1.0232,1.1298,1.2522,1.4026,1.3666,1.4565,1.6584,1.4992,1.5358,1.726,1.7783,1.872,1.9856,2.0135,2.0552,2.0919,2.0643,2.0194,1.9672,1.922,1.8976,1.8726,1.8235,1.8333,1.8731,1.8988,0.0,0.0,1.9362,2.019,2.1535,2.2278,2.4214,2.6561,2.8558,3.0601,3.2387,3.3225,3.3937,3.4264,3.3811,3.3038,3.2174,3.1464,3.0367,2.9374,0.0,0.0,2.8067,2.8668,2.8834,2.9389,3.0923,3.0395,3.0237,0.0,0.0,0.0,0.0,0.0,0.0,3.1631,0.0,3.4218,3.3619,3.4816,3.5504,3.5504,3.5504,3.5504,3.5504,3.5504,3.5504,3.5504,3.5504,3.5504,3.5504,3.5504,3.5504,3.5504,3.5504,3.5504,3.5504,3.5504,3.5504,3.5504,3.5504,3.5504,3.5504,3.5504,3.5504,3.5504,0.0,0.0,0.0,0.0,0.0,0.0,0.0,0.0,0.0,0.0,0.0,0.0,0.0,0.0,0.0,0.0,0.0,0.0,0.5058,0.552,0.5723,0.5508,0.6552,0.7487,0.8159,0.9811,1.1021,1.166,1.2914,1.3776,1.4359,1.4939,1.5747,1.6694,1.6924,1.7721,1.8731,1.842,1.8477,1.886,1.8245,1.8344,1.8855,1.8605,1.8648,1.8905,1.8962,1.8208,0.0,0.0,0.0,0.0,0.0,2.1043,2.2586,2.3409,2.5611,2.798,2.9163,3.1233,3.3167,3.3619,3.3819,3.3837,3.3277,3.2382,3.1123,2.9115,2.8096,2.7271,0.0,0.0,0.0,2.92,3.025,0.0,3.2298,3.2592,0.0,3.219,0.0,3.2571,3.2329,3.2849,0.0,0.0,3.3794,3.4494,3.4549,3.5165,3.5504,3.5504,3.5504,3.5504,3.5504,3.5504,3.5504,3.5504,3.5504,3.5504,3.5504,3.5504,3.5504,3.5504,3.5504,3.5504,3.5504,3.5504,3.5504,3.5504,3.5504,3.5504,3.5504,3.5504,3.5504,3.5504,0.0,0.0,0.0,0.0,0.0,0.0,0.0,0.0,0.0,0.0,0.0,0.0,0.0,0.0,0.0,0.0,0.0,0.0,0.0,0.5336,0.5585,0.5644,0.625,0.6942,0.7722,0.8999,1.0002,1.0749,1.1648,1.2332,1.2788,1.3202,1.3877,1.4811,1.4918,1.5594,1.6639,1.6335,1.6607,0.0,0.0,1.6739,1.7417,1.7372,1.7512,1.7841,1.8028,0.0,0.0,0.0,0.0,1.9726,2.0653,2.2207,2.3838,2.4637,0.0,2.9686,3.0613,3.2513,3.42,3.4016,3.4073,3.3782,3.2169,3.1204,2.9936,2.7399,2.6642,0.0,0.0,0.0,0.0,0.0,0.0,0.0,3.1683,3.239,3.2783,0.0,3.3278,0.0,3.3077,3.3498,3.3783,0.0,3.4248,3.4679,3.4703,3.5195,3.5504,3.5504,3.5504,3.5504,3.5504,3.5504,3.5504,3.5504,3.5504,3.5504,3.5504,3.5504,3.5504,3.5504,0.0,3.5504,3.5504,3.5504,3.5504,3.5504,3.5504,3.5504,3.5504,3.5504,3.5504,3.5504,0.0,0.0,0.0,0.0,0.0,0.0,0.0,0.0,0.0,0.0,0.0,0.0,0.0,0.0,0.0,0.0,0.0,0.0,0.0,0.0,0.5663,0.5876,0.6124,0.6803,0.8047,0.8553,0.9385,1.0591,1.0435,1.0861,1.1844,1.1097,1.1387,1.2658,1.2822,1.3476,1.444,1.4553,1.5142,1.5969,1.5451,1.5544,1.5944,0.0,1.6149,1.6345,0.0,0.0,0.0,0.0,1.8166,1.9455,2.1391,2.3406,2.5137,2.5918,2.8451,3.118,3.2151,3.3721,3.4976,3.4242,3.4295,3.3762,3.0911,2.9704,2.8446,2.5998,0.0,2.5268,2.4056,2.5051,2.6088,2.6113,0.0,2.8642,3.0469,3.1274,3.2019,3.3185,3.3577,3.3701,3.3701,3.4059,3.4278,3.4414,3.4668,3.475,3.4509,3.5046,3.5359,3.5439,3.5439,3.5439,3.5504,3.5439,3.5439,3.5439,3.5439,3.5439,3.5439,3.5504,3.5504,3.5504,3.5439,3.5439,3.5504,3.5374,3.5439,3.5504,3.5439,3.5439,3.5504,3.5504,3.5504,3.5504,0.0,0.0,0.0,0.0,0.0,0.0,0.0,0.0,0.0,0.0,0.223,0.2181,0.0,0.0,0.0,0.0,0.0,0.0,0.0,0.0,0.0,0.5343,0.6073,0.6719,0.7363,0.8317,0.9204,1.004,1.0555,1.104,1.1551,1.1788,1.2256,1.2856,1.3274,1.3674,1.4052,1.4696,1.5069,1.5207,1.5326,1.5726,1.6168,1.5678,0.0,0.0,0.0,0.0,0.0,0.0,1.8801,2.0494,2.129,2.3576,2.6275,2.7528,2.9298,3.1072,3.2071,3.3309,3.4197,3.354,3.3054,3.2283,3.0163,2.8444,0.0,0.0,2.4112,2.3851,2.2589,2.4243,0.0,2.6649,0.0,0.0,0.0,0.0,3.2495,0.0,0.0,0.0,0.0,0.0,0.0,0.0,0.0,3.4491,3.4455,3.4558,3.475,3.5016,3.5001,3.5148,3.5504,3.5148,3.5001,3.5001,3.5359,3.5359,3.5001,3.5359,3.5504,3.5504,3.5148,0.0,3.5439,3.4817,3.4964,3.5439,3.5148,3.5213,3.5504,3.5504,3.5504,3.5504,0.0,0.0,0.0,0.0,0.0,0.0,0.0,0.2203,0.2666,0.3023,0.2937,0.2795,0.2782,0.2906,0.2919,0.0,0.0,0.0,0.0,0.0,0.0,0.0,0.0,0.0,0.7203,0.8203,0.8812,0.9084,0.0,1.0697,1.0926,1.1345,1.1689,1.1997,1.2015,1.2335,1.3009,1.3572,1.3884,1.3974,1.3871,1.4111,1.446,0.0,0.0,0.0,0.0,0.0,0.0,0.0,1.8298,2.0384,2.1525,2.3623,2.5814,2.6772,2.8572,3.054,3.1565,3.2961,3.4073,3.3786,3.3059,3.1668,2.9102,0.0,0.0,0.0,2.2911,2.29,2.2003,0.0,0.0,0.0,0.0,0.0,0.0,0.0,0.0,0.0,0.0,0.0,0.0,0.0,0.0,0.0,0.0,3.4332,3.4964,3.4735,3.4668,3.4668,3.4668,3.475,3.4964,3.475,3.4735,3.4935,3.5082,3.5213,3.5213,3.5439,3.5359,3.5148,3.5001,3.4935,3.4883,3.4549,3.4683,3.5148,3.5001,3.5148,3.5504,3.5504,3.5504,3.5504,0.0,0.0,0.0,0.0,0.0,0.0,0.0,0.2225,0.275,0.343,0.3549,0.3485,0.3311,0.329,0.3156,0.0,0.0,0.0,0.0,0.0,0.0,0.0,0.0,0.0,0.0,0.0,0.0,0.0,0.9439,0.0,0.0,0.0,0.0,0.0,1.0714,1.1004,1.1744,1.213,1.2456,0.0,0.0,1.2392,0.0,0.0,0.0,0.0,0.0,0.0,0.0,0.0,1.7267,1.9061,2.0964,2.3298,2.5327,2.5576,2.7672,3.0037,3.0826,3.2481,3.3848,3.3657,3.2671,3.0954,2.8042,2.613,0.0,0.0,2.195,2.2069,2.1531,0.0,0.0,0.0,0.0,0.0,0.0,0.0,0.0,0.0,0.0,0.0,0.0,0.0,0.0,0.0,0.0,3.4467,3.5228,3.5016,3.4735,3.4414,3.4414,3.4414,3.4414,3.4414,3.4534,3.4802,3.4935,3.5148,3.5359,3.5439,3.5359,3.5001,3.4868,3.4668,3.4481,3.4278,3.4399,3.4802,3.4802,3.5016,3.5294,3.5359,3.5359,3.5359,0.0,0.0,0.0,0.0,0.0,0.0,0.0,0.2168,0.2679,0.3166,0.3539,0.381,0.3906,0.3554,0.3168,0.0,0.0,0.0,0.0,0.0,0.0,0.0,0.0,0.0,0.0,0.0,0.0,0.0,0.0,0.0,0.0,0.0,0.0,0.0,0.0,0.0,1.0518,1.1156,0.0,0.0,0.0,0.0,0.0,0.0,0.0,0.0,0.0,0.0,0.0,0.0,0.0,1.59,1.8175,2.2083,2.5837,2.5362,0.0,0.0,3.001,3.1651,3.3166,3.206,3.0773,2.9242,2.719,0.0,0.0,2.1633,2.142,2.1262,2.0703,2.1542,0.0,0.0,0.0,2.6244,0.0,0.0,0.0,0.0,0.0,0.0,0.0,0.0,0.0,0.0,3.4964,3.5096,3.4549,3.4735,3.4735,3.4414,3.4414,3.4414,3.4414,3.4414,3.4414,3.4481,3.5096,3.5294,3.5001,3.5359,3.5504,3.5439,3.475,3.4601,0.0,3.3785,3.3799,3.4481,3.4481,3.4481,3.4549,3.4868,3.4935,3.4935,0.0,0.0,0.0,0.0,0.0,0.0,0.1804,0.2145,0.2536,0.2898,0.3314,0.3686,0.3953,0.3713,0.34,0.3086,0.0,0.0,0.0,0.0,0.0,0.0,0.0,0.0,0.0,0.0,0.0,0.7076,0.8026,0.0,0.0,0.0,0.0,0.0,0.0,0.0,0.0,0.0,0.0,0.0,0.0,0.0,0.0,0.0,0.0,0.0,0.0,0.0,0.0,0.0,0.0,0.0,1.7046,1.9703,0.0,0.0,2.5135,2.729,2.8687,3.0138,3.1284,3.1555,2.942,2.7136,2.6697,0.0,2.168,2.1391,2.1151,2.0974,2.0862,2.1729,2.2659,2.3238,2.3748,0.0,0.0,0.0,0.0,0.0,0.0,0.0,0.0,0.0,0.0,0.0,3.537,3.5563,3.5111,3.4949,3.4668,3.4059,3.4059,3.3922,3.373,3.3922,3.4128,3.4414,3.5264,3.5638,3.5688,3.5846,3.5782,3.5589,3.5001,3.452,0.0,3.3785,3.3922,3.4414,3.4414,3.4534,3.4735,3.5148,3.4949,3.4668,0.0,0.0,0.0,0.0,0.0,0.185,0.193,0.2078,0.2352,0.2766,0.3068,0.3411,0.3891,0.3812,0.3582,0.3257,0.3142,0.0,0.0,0.0,0.0,0.0,0.0,0.0,0.0,0.0,0.6508,0.6316,0.7517,0.8209,0.0,0.0,0.0,0.0,0.0,0.0,0.0,0.0,0.0,0.0,0.0,0.0,0.0,0.0,0.0,0.0,0.0,0.0,0.0,0.0,0.0,0.0,0.0,0.0,0.0,0.0,2.2817,2.4905,2.6419,2.7858,2.9042,2.9767,2.7631,2.5432,0.0,0.0,2.1076,2.1115,2.0893,2.0744,2.089,2.1478,2.2191,2.2839,2.3023,2.4053,2.6818,0.0,0.0,0.0,0.0,0.0,0.0,0.0,0.0,0.0,3.5606,3.5911,3.5534,3.5406,3.4926,3.3991,3.4045,3.3922,3.3452,3.4045,3.4452,3.4549,3.5429,3.5943,3.6196,3.6196,3.607,3.5816,3.5234,3.4639,0.0,3.377,3.3922,3.4414,3.4414,3.4467,3.4587,3.5016,3.475,3.4278,0.0,0.0,0.0,0.0,0.0,0.0,0.2098,0.1981,0.2152,0.2802,0.2893,0.3147,0.3734,0.3801,0.3651,0.3328,0.3175,0.0,0.0,0.0,0.0,0.0,0.0,0.0,0.0,0.0,0.6071,0.6402,0.7409,0.7768,0.7565,0.9269,0.9631,0.0,0.0,0.0,0.0,0.0,0.0,0.0,0.0,0.0,0.0,0.0,0.0,0.0,0.0,0.0,0.0,0.0,0.0,0.0,0.0,0.0,0.0,0.0,2.0989,2.3393,2.2872,2.4726,2.6723,2.631,2.5309,2.442,0.0,0.0,2.0874,2.0717,2.061,2.0494,2.041,2.0373,2.0737,2.21,2.2416,2.3521,2.6389,0.0,0.0,0.0,0.0,0.0,0.0,0.0,0.0,3.4854,3.5889,0.0,3.5549,3.6133,3.5829,3.4428,3.4735,3.452,3.377,3.5023,3.5429,3.4935,3.5752,3.6196,3.6196,3.6196,3.6196,3.6133,3.5385,3.5008,0.0,3.3716,3.373,3.4414,3.4414,3.4128,3.3839,3.4264,3.4128,3.3839,0.0,0.0,0.0,0.0,0.0,0.0,0.0,0.2414,0.2462,0.2534,0.2713,0.2991,0.3491,0.347,0.3496,0.3634,0.3348,0.0,0.0,0.0,0.0,0.0,0.0,0.0,0.0,0.0,0.5234,0.5939,0.6855,0.7525,0.8002,0.8911,0.9234,0.9088,0.9518,0.0,0.0,0.0,0.0,0.0,0.0,0.0,0.0,0.0,0.0,0.0,0.0,0.0,0.0,0.0,0.0,0.0,0.0,0.0,0.0,1.6162,0.0,0.0,2.2035,2.2948,2.3584,2.4336,2.2849,2.146,2.2228,0.0,1.9463,1.9854,1.963,1.9413,1.9611,1.9594,1.9998,2.1396,2.2058,2.2955,0.0,0.0,0.0,0.0,0.0,0.0,0.0,0.0,0.0,3.4868,3.5889,3.6207,3.5549,3.6133,3.5978,3.4765,3.4868,3.4668,3.4196,3.4854,3.5052,3.4935,3.5752,3.6383,3.6662,3.6662,3.6662,3.6662,3.6102,3.5672,3.5429,3.5103,3.5103,3.5314,3.5314,3.4986,3.4587,3.5016,3.4601,3.3839,0.0,0.0,0.0,0.0,0.0,0.0,0.0,0.2643,0.2613,0.2543,0.2679,0.2918,0.3285,0.3307,0.3357,0.3573,0.334,0.0,0.0,0.0,0.0,0.0,0.0,0.0,0.3212,0.4007,0.4692,0.5323,0.6461,0.7297,0.7919,0.8618,0.8984,0.9007,0.9279,0.9279,0.0,0.0,0.0,0.0,0.0,0.0,0.8306,0.0,0.0,0.0,0.0,0.0,0.0,0.0,0.0,0.0,0.0,0.0,0.0,0.0,1.5617,1.7158,0.0,2.057,2.1101,2.1987,2.086,0.0,0.0,0.0,1.8831,1.9406,1.896,1.8567,1.895,1.8928,1.9228,2.0473,2.1374,2.2327,0.0,0.0,0.0,0.0,0.0,0.0,0.0,0.0,3.4016,3.4854,3.5889,3.6207,3.5549,3.6133,3.6111,3.5162,3.5148,3.4949,3.4601,3.5118,3.5314,3.5148,3.5831,3.6368,3.6662,3.6845,3.6784,3.66,3.6352,3.6006,0.0,3.5314,3.5379,3.5589,3.5444,3.5118,3.4735,3.4964,3.4467,3.3716,0.0,0.0,0.0,0.0,0.0,0.0,0.0,0.2706,0.261,0.2815,0.2815,0.2915,0.3179,0.3245,0.3245,0.3208,0.0,0.0,0.0,0.0,0.0,0.0,0.0,0.0,0.3039,0.3886,0.4432,0.4699,0.6169,0.7071,0.7412,0.8373,0.8781,0.8756,0.9079,0.907,0.0,0.0,0.0,0.0,0.0,0.0,0.0,0.0,0.0,0.0,0.0,0.0,0.0,0.0,0.0,0.0,0.0,0.0,0.0,0.0,0.0,0.0,0.0,1.7779,0.0,0.0,0.0,0.0,0.0,0.0,0.0,0.0,0.0,1.7998,1.8369,1.8292,1.8483,1.9409,2.0529,0.0,0.0,0.0,0.0,0.0,0.0,0.0,0.0,0.0,3.3185,3.4654,3.5778,3.6081,3.5469,3.6088,3.6133,3.5534,3.5504,3.5294,3.4935,3.5767,3.591,3.5504,3.591,3.6148,3.6196,3.6662,3.66,0.0,3.6337,3.6054,3.5504,3.4817,3.4949,3.5554,3.5133,3.4735,3.4481,3.4414,3.3937,3.3326,0.0,0.0,0.0,0.0,0.0,0.0,0.0,0.0,0.0,0.0,0.3109,0.3146,0.3278,0.3047,0.2981,0.0,0.0,0.0,0.0,0.0,0.0,0.0,0.0,0.0,0.2643,0.3184,0.3849,0.4641,0.5439,0.6422,0.7482,0.7912,0.848,0.9159,0.8837,0.848,0.0,0.0,0.0,0.0,0.0,0.0,0.0,0.0,0.0,0.0,0.87,0.8943,0.0,0.0,0.0,0.0,0.0,0.0,0.0,0.0,1.3277,1.3987,1.485,0.0,1.7219,1.7756,1.7536,1.734,0.0,0.0,0.0,0.0,0.0,0.0,0.0,0.0,1.8354,0.0,0.0,0.0,0.0,0.0,0.0,0.0,0.0,0.0,0.0,0.0,3.303,3.3409,3.4583,3.523,3.5016,3.5508,3.5669,3.5504,3.5504,3.5439,3.5359,3.5554,3.5619,3.5504,3.5619,3.5861,3.6196,3.6321,3.6321,3.6196,3.6243,3.6196,3.6022,3.5831,3.6117,3.6492,3.5816,3.5429,3.5299,3.4668,3.4128,3.3701,0.0,0.0,0.0,0.0,0.0,0.0,0.0,0.0,0.0,0.0,0.0,0.3208,0.3245,0.2981,0.0,0.0,0.0,0.0,0.0,0.0,0.0,0.0,0.0,0.258,0.2775,0.3251,0.3849,0.4565,0.5291,0.6178,0.7175,0.7607,0.8226,0.8918,0.8521,0.8283,0.816,0.0,0.0,0.0,0.7251,0.0,0.0,0.0,0.0,0.0,0.861,0.8895,0.0,0.9932,1.0088,1.0196,0.0,0.0,0.0,0.0,1.2662,1.3215,1.3909,1.5051,1.6175,1.6591,1.6712,1.6822,0.0,0.0,0.0,0.0,0.0,0.0,0.0,0.0,0.0,0.0,0.0,0.0,0.0,0.0,0.0,0.0,0.0,0.0,0.0,0.0,3.2818,3.3339,3.4182,3.4668,3.4668,3.5016,3.5213,3.5213,3.5424,3.5504,3.5504,3.5504,3.5504,3.5504,3.5504,3.5619,3.5925,3.6085,3.6006,3.5638,3.6006,3.5943,3.5638,3.5782,3.6037,3.6196,3.5782,3.5524,3.5249,3.4601,3.4128,3.377,0.0,0.0,0.0,0.0,0.0,0.0,0.0,0.0,0.0,0.0,0.0,0.0,0.0,0.0,0.0,0.0,0.0,0.0,0.0,0.0,0.0,0.0,0.2643,0.2812,0.3039,0.3617,0.4098,0.4466,0.528,0.6043,0.6748,0.7301,0.7889,0.848,0.8414,0.8406,0.8439,0.7855,0.7565,0.0,0.7412,0.0,0.0,0.0,0.0,0.0,0.0,0.0,0.0,0.9823,1.0097,1.0283,1.0968,0.0,0.0,0.0,0.0,0.0,1.3332,1.4541,1.5593,1.5909,1.6484,1.6963,1.7021,0.0,0.0,0.0,0.0,0.0,0.0,0.0,0.0,0.0,0.0,0.0,0.0,0.0,0.0,0.0,0.0,0.0,3.1082,3.1742,3.2376,3.3409,3.3977,3.4346,3.4346,3.4668,3.4868,3.4935,3.5213,3.5439,3.5504,3.5504,3.5504,3.5504,3.5504,3.5439,3.5424,3.591,3.5638,3.4935,3.5767,0.0,3.5001,3.5294,3.5439,3.5489,3.5294,3.5082,3.4787,3.4414,3.3991,3.3701,0.0,0.0,0.0,0.0,0.0,0.0,0.0,0.0,0.0,0.0,0.0,0.0,0.0,0.0,0.0,0.0,0.0,0.0,0.0,0.0,0.0,0.2679,0.2739,0.2801,0.2834,0.3651,0.4144,0.4237,0.4963,0.5679,0.6374,0.6719,0.7398,0.8414,0.8854,0.8814,0.8414,0.8167,0.7919,0.7712,0.7946,0.0,0.0,0.0,0.0,0.0,0.0,0.0,0.0,0.9813,1.0229,1.0539,1.1023,0.0,0.0,0.0,0.0,0.0,1.3658,1.4344,1.5012,1.5981,1.6481,1.6851,1.7249,0.0,0.0,0.0,0.0,0.0,0.0,0.0,0.0,0.0,0.0,0.0,0.0,0.0,0.0,0.0,0.0,0.0,2.8836,3.0485,3.1649,3.1869,3.3115,3.3908,3.3908,3.4264,3.4601,3.4868,3.4935,3.5148,3.5504,3.5504,3.5504,3.5504,3.5504,3.5294,3.5001,3.5424,3.5344,3.4935,0.0,3.5554,3.5359,3.5082,3.5249,3.5574,3.452,3.4288,3.4543,3.3785,3.3452,3.3382,0.0,0.0,0.0,0.0,0.0,0.0,0.0,0.0,0.0,0.0,0.0,0.0,0.0,0.0,0.0,0.0,0.0,0.0,0.0,0.0,0.2447,0.2543,0.2988,0.3277,0.3346,0.3994,0.4422,0.4636,0.5099,0.5597,0.6161,0.6979,0.7821,0.861,0.8886,0.8926,0.8814,0.8488,0.825,0.8085,0.0,0.0,0.0,0.0,0.0,0.0,0.0,0.0,0.0,0.0,1.0224,1.0646,1.12,0.0,0.0,0.0,0.0,0.0,1.3459,1.4009,1.4606,1.5662,1.6399,1.6875,1.6903,0.0,0.0,0.0,0.0,0.0,0.0,0.0,0.0,0.0,0.0,0.0,0.0,0.0,0.0,0.0,0.0,2.8427,2.9263,3.0677,3.1736,3.2417,3.3143,3.3507,3.3507,3.3854,3.4128,3.4317,3.4534,3.4817,3.5148,3.5148,3.5294,3.5504,3.5504,3.5424,3.5213,3.5439,3.5162,3.4668,0.0,3.4949,3.4601,3.4601,3.4802,3.492,3.4317,3.4249,3.4438,3.377,3.3452,3.3326,0.0,0.0,0.0,0.0,0.0,0.0,0.0,0.0,0.0,0.0,0.0,0.0,0.0,0.0,0.0,0.0,0.0,0.0,0.0,0.1981,0.2281,0.2408,0.3201,0.3697,0.3832,0.4365,0.4739,0.4944,0.5286,0.5694,0.6204,0.744,0.8324,0.8773,0.8958,0.9079,0.9177,0.8756,0.8521,0.8414,0.0,0.0,0.0,0.0,0.0,0.0,0.0,0.0,0.0,0.0,0.0,0.0,0.0,0.0,0.0,1.2039,1.215,1.2361,1.3317,1.3886,1.4466,1.5488,1.6256,1.6735,1.6812,0.0,0.0,0.0,0.0,0.0,0.0,0.0,0.0,0.0,0.0,0.0,0.0,0.0,0.0,0.0,0.0,2.8361,2.9961,3.0895,3.1809,3.3016,3.3241,3.3326,3.3326,3.3507,3.3716,3.377,3.4128,3.4399,3.4802,3.4868,3.5082,3.5504,3.5504,3.5439,3.5359,3.5359,3.503,3.4414,3.4668,3.4452,3.3977,3.4196,3.4264,3.4264,3.4196,3.4142,3.4074,3.3632,3.3283,3.31,0.0,0.0,0.0,0.0,0.0,0.0,0.0,0.0,0.0,0.0,0.0,0.0,0.0,0.0,0.0,0.0,0.0,0.0,0.0,0.1814,0.2145,0.2374,0.3242,0.375,0.3898,0.4664,0.4974,0.4832,0.5413,0.5996,0.6677,0.7897,0.8561,0.8724,0.9417,0.9536,0.9177,0.891,0.8635,0.8414,0.8602,0.0,0.0,0.0,0.0,0.0,0.0,0.0,0.0,0.0,0.0,0.0,0.0,0.0,1.2609,1.2215,1.2222,1.2589,1.3532,1.4161,1.4839,1.5874,1.6051,0.0,1.7451,1.8202,0.0,0.0,0.0,0.0,0.0,0.0,0.0,0.0,0.0,0.0,0.0,0.0,0.0,0.0,2.7568,2.8335,2.9356,3.0355,3.1355,3.2417,3.3016,3.3326,3.3326,3.3312,3.3452,3.377,3.3839,3.4045,3.4414,3.4735,3.5082,3.5504,3.5504,3.5294,3.4935,3.4935,3.4735,3.4414,3.4414,3.4414,3.4346,3.3991,3.3839,3.3839,3.3521,3.3382,3.3312,3.2717,3.2489,3.2403,0.0,0.0,0.0,0.0,0.0,0.0,0.0,0.0,0.0,0.0,0.0,0.0,0.0,0.0,0.0,0.0,0.0,0.0,0.0,0.1945,0.2414,0.2881,0.3384,0.3707,0.3904,0.4649,0.5032,0.5032,0.5503,0.6056,0.6725,0.7807,0.8464,0.8788,0.9725,0.9892,0.9576,0.9567,0.9328,0.8967,0.9039,0.9079,0.0,0.0,0.0,0.0,0.0,0.0,0.0,0.0,1.1058,1.1442,1.1756,1.2119,1.2429,1.234,1.2473,1.283,1.3639,1.4066,1.4425,1.4991,1.5246,0.0,0.0,1.8078,1.8365,0.0,0.0,0.0,0.0,0.0,0.0,0.0,0.0,0.0,0.0,0.0,0.0,2.6823,2.7763,2.8694,2.9679,3.067,3.1576,3.2345,3.2945,3.3326,3.3326,3.3326,3.3382,3.3521,3.3521,3.3646,3.3991,3.4182,3.4399,3.4817,3.5016,3.4949,3.4601,3.4601,3.4399,3.4059,3.4059,3.3922,3.373,3.3521,3.3521,3.3452,3.3312,3.3086,3.2717,3.2489,3.2187,3.1809,0.0,0.0,0.0,0.0,0.0,0.0,0.0,0.0,0.0,0.0,0.0,0.0,0.0,0.0,0.0,0.0,0.0,0.0,0.1609,0.2042,0.254,0.3004,0.3305,0.361,0.3869,0.4426,0.4778,0.4966,0.5465,0.6007,0.6598,0.7827,0.8568,0.8861,0.9925,1.0213,0.9902,0.9941,0.9734,0.9408,0.9319,0.9279,0.0,0.0,0.0,0.0,0.0,0.0,0.0,0.0,1.1217,1.1505,1.1884,1.2138,1.2401,1.2508,1.2697,1.2996,1.3816,1.3934,1.4023,0.0,0.0,0.0,1.7562,1.8144,1.8599,0.0,0.0,0.0,0.0,0.0,0.0,0.0,0.0,0.0,0.0,0.0,2.5639,2.6659,2.7695,2.8785,2.9909,3.0594,3.1429,3.2345,3.2789,3.31,3.3326,3.3143,3.3115,3.3312,3.3143,3.3169,3.3348,3.3485,3.3536,3.3485,3.4008,3.433,3.4414,3.4264,3.4059,3.377,3.3716,3.3521,3.3326,3.3326,3.3171,3.3016,3.3255,3.2789,3.2114,3.2114,3.1736,3.1206,0.0,0.0,0.0,0.0,0.0,0.0,0.0,0.0,0.0,0.0,0.0,0.0,0.0,0.0,0.0,0.0,0.0,0.0,0.1642,0.2047,0.241,0.2684,0.3008,0.3392,0.3798,0.4019,0.4195,0.4386,0.5339,0.5959,0.6343,0.8091,0.8845,0.8846,1.0141,1.0472,1.0088,0.9902,0.9753,0.9674,0.9408,0.9248,0.9177,0.0,0.0,0.0,0.0,0.0,0.0,0.0,1.1734,1.1884,1.2258,1.252,1.2709,1.2721,1.2745,1.3034,1.4104,1.3853,0.0,0.0,0.0,0.0,0.0,1.8539,1.9771,0.0,0.0,0.0,0.0,0.0,0.0,0.0,0.0,0.0,0.0,2.4729,2.5622,2.6693,2.7452,2.8419,2.9845,2.9986,3.0657,3.2259,3.2403,3.2618,3.3227,3.2736,3.2679,3.3283,3.2707,3.2398,3.2398,3.2709,3.2411,3.1499,3.2411,3.3442,3.4332,3.3977,3.3756,3.3756,3.3437,3.3312,3.3297,3.3312,3.2931,3.2403,3.3016,3.2561,3.1516,3.1516,3.1132,3.0545,0.0,0.0,0.0,0.0,0.0,0.0,0.0,0.0,0.0,0.0,0.0,0.0,0.0,0.0,0.0,0.0,0.0,0.0,0.2106,0.2311,0.2653,0.3166,0.3257,0.3432,0.3712,0.4107,0.4468,0.4805,0.5551,0.6235,0.6805,0.7938,0.8754,0.9338,1.0303,1.0572,1.0387,1.0438,1.0196,0.9744,0.9527,0.9328,0.9177,0.0,0.0,0.0,0.0,0.0,0.0,0.0,0.0,0.0,1.233,1.2556,1.284,1.3289,1.3166,1.3085,1.3796,1.3746,0.0,0.0,0.0,0.0,0.0,0.0,0.0,0.0,0.0,0.0,0.0,0.0,0.0,0.0,0.0,0.0,2.3493,2.4068,2.4922,2.5935,2.667,2.758,2.8791,2.8969,2.9478,3.0599,3.073,3.1158,3.1965,3.185,3.185,3.2033,3.185,3.1766,3.1766,3.1886,3.1801,3.1485,3.1801,3.2051,3.2383,3.2673,3.2563,3.2182,3.2551,3.244,3.2033,3.1598,3.1404,3.1191,3.1405,3.1229,3.0833,3.0833,3.0482,2.9935,0.0,0.0,0.0,0.0,0.0,0.0,0.0,0.0,0.0,0.0,0.0,0.0,0.0,0.0,0.0,0.0,0.0,0.0,0.0,0.254,0.2815,0.3212,0.3186,0.3363,0.3712,0.4254,0.4689,0.5072,0.5674,0.6276,0.689,0.7982,0.8814,0.9382,1.0375,1.0785,1.0695,1.0653,1.0444,1.0087,0.9799,0.9527,0.9337,0.0,0.0,0.0,0.0,0.0,0.0,0.0,0.0,0.0,1.2258,1.2556,1.2877,1.3558,1.3281,1.3,1.3796,0.0,0.0,0.0,0.0,0.0,0.0,0.0,0.0,0.0,0.0,0.0,0.0,0.0,0.0,0.0,0.0,0.0,2.3173,2.374,2.464,2.5684,2.64,2.7244,2.8419,2.837,2.8637,2.9619,2.9737,3.0186,3.1124,3.11,3.1218,3.1485,3.1246,3.1106,3.1106,3.1106,3.0979,3.074,3.0993,3.0979,3.0769,3.1654,3.1702,3.1219,3.1363,3.1171,3.0841,3.0556,3.0263,3.0019,3.0148,2.9842,2.9414,2.9489,2.9152,2.862,0.0,0.0,0.0,0.0,0.0,0.0,0.0,0.0,0.0,0.0,0.0,0.0,0.0,0.0,0.0,0.0,0.0,0.0,0.0,0.2735,0.294,0.3033,0.3054,0.3309,0.3812,0.4409,0.4883,0.5206,0.575,0.6232,0.6612,0.8094,0.8911,0.9167,1.0432,1.1018,1.0992,1.0747,1.0624,1.059,1.0191,0.9853,0.9597,0.9932,0.0,0.0,0.0,0.0,0.0,0.0,0.0,0.0,1.2102,1.2484,1.2818,1.3594,1.3238,1.2839,0.0,0.0,0.0,0.0,0.0,0.0,0.0,0.0,0.0,0.0,0.0,0.0,0.0,0.0,0.0,0.0,0.0,2.3038,2.3028,2.3563,2.445,2.5589,2.6191,2.7093,2.8187,2.7855,2.7968,2.8899,2.8936,2.9389,3.0459,3.0401,3.0648,3.1302,3.074,3.0367,3.0367,3.0367,3.0087,2.954,3.0115,3.0087,2.9582,3.0788,3.104,3.0474,2.9982,2.9707,2.9608,2.9555,2.9232,2.873,2.8905,2.8346,2.7471,2.7705,2.7496,2.6986,0.0,0.0,0.0,0.0,0.0,0.0,0.0,0.0,0.0,0.0,0.0,0.0,0.0,0.0,0.0,0.0,0.0,0.0,0.0,0.2867,0.3011,0.3218,0.3499,0.372,0.3879,0.4463,0.4897,0.5194,0.5927,0.6413,0.6612,0.7915,0.8802,0.9384,1.0433,1.0991,1.1129,1.0867,1.0803,1.0859,1.041,1.0235,1.0225,1.0457,1.0418,0.0,0.0,0.0,0.0,0.0,0.0,0.0,1.1542,1.2029,1.2662,1.3676,1.3689,1.3481,0.0,0.0,0.0,0.0,0.0,0.0,0.0,0.0,0.0,0.0,0.0,0.0,0.0,0.0,0.0,0.0,2.2169,2.2562,2.2224,2.2578,2.3365,2.4596,2.4933,2.554,2.6771,2.6477,2.651,2.7319,2.6984,2.7485,2.9121,2.9192,2.9384,3.001,2.9883,2.9596,2.9187,2.9596,2.954,2.9008,2.954,2.9526,2.9022,2.9766,2.9618,2.8902,2.8732,2.8234,2.7556,2.7126,2.6864,2.6699,2.676,2.6895,2.7136,2.7136,2.7136,2.6863,0.0,0.0,0.0,0.0,0.0,0.0,0.0,0.0,0.0,0.0,0.0,0.0,0.0,0.0,0.0,0.0,0.0,0.0,0.0,0.0,0.3535,0.3415,0.3576,0.3782,0.3947,0.4563,0.4968,0.5157,0.5983,0.6587,0.698,0.8048,0.8886,0.9596,1.0547,1.1215,1.1526,1.1204,1.1219,1.1372,1.0952,1.0753,1.0715,1.1019,1.1019,1.0829,1.0943,0.0,0.0,0.0,0.0,0.0,0.0,0.0,1.2198,1.3362,1.3354,1.3095,0.0,0.0,0.0,0.0,0.0,0.0,0.0,0.0,0.0,0.0,0.0,0.0,0.0,0.0,0.0,0.0,2.1926,2.2121,2.1945,2.206,2.2706,2.4032,2.4182,2.4712,2.6016,2.5635,2.5587,2.6178,2.6003,2.6364,2.7723,2.8274,2.8739,2.9198,2.9477,2.9477,2.9198,2.9477,2.9477,2.9198,2.9198,2.8739,2.7815,2.8119,2.805,2.7562,2.7062,2.6622,2.6171,2.5832,2.5752,2.5721,2.5528,2.5707,2.5958,2.5725,2.5651,2.5604,0.0,0.0,0.0,0.0,0.0,0.0,0.0,0.0,0.0,0.0,0.0,0.0,0.0,0.0,0.0,0.0,0.0,0.0,0.0,0.0,0.0,0.3574,0.3635,0.3775,0.3978,0.4635,0.5017,0.5094,0.5996,0.6805,0.7437,0.8272,0.9061,0.9841,1.0748,1.1384,1.1773,1.1488,1.1557,1.1762,1.1471,1.1282,1.1244,1.1653,1.1653,1.1505,1.1505,1.1457,1.1383,1.1132,0.0,0.0,0.0,0.0,1.1653,1.2809,1.2885,1.2615,0.0,0.0,0.0,0.0,0.0,0.0,0.0,0.0,0.0,0.0,0.0,0.0,0.0,0.0,0.0,2.166,2.1752,2.1783,2.1703,2.1777,2.2237,2.3351,2.3626,2.4133,2.5313,2.5089,2.5027,2.5339,2.5302,2.5644,2.6663,2.7446,2.8166,2.8789,2.9198,2.9477,2.9477,2.9442,2.9386,2.931,2.8683,2.7771,2.6652,2.6316,2.6214,2.6321,2.5444,2.5013,2.4956,2.4861,2.4885,2.4968,2.4648,2.4636,2.4646,2.4345,2.42,2.42,0.0,0.0,0.0,0.0,0.0,0.0,0.0,0.0,0.0,0.0,0.0,0.0,0.0,0.0,0.0,0.0,0.0,0.0,0.4671,0.0,0.0,0.3677,0.3863,0.3938,0.3898,0.4511,0.4893,0.5012,0.6108,0.7131,0.8017,0.841,0.9141,1.0165,1.0939,1.1335,1.1469,1.1375,1.1509,1.1794,1.1611,1.1726,1.1993,1.2413,1.2449,1.2258,1.2318,1.2162,1.1861,1.142,1.1132,0.0,0.0,0.0,1.1238,1.2027,1.2766,1.3376,0.0,0.0,0.0,0.0,0.0,0.0,0.0,0.0,0.0,0.0,0.0,0.0,0.0,0.0,0.0,2.0742,2.1056,2.1184,2.079,2.1104,2.1537,2.2308,2.2909,2.3446,2.4169,2.4612,2.49,2.4919,2.4449,2.4945,2.6637,2.6419,2.7026,2.8776,2.8867,2.8931,2.8931,2.887,2.8619,2.8085,2.7134,2.6534,2.6271,2.4775,2.4458,2.5016,2.4437,2.3966,2.3641,2.319,2.3283,2.3675,2.3616,2.3893,2.4273,2.42,2.42,2.4127,0.0,0.0,0.0,0.0,0.0,0.0,0.0,0.0,0.0,0.0,0.0,0.0,0.0,0.0,0.0,0.5426,0.5537,0.5479,0.5114,0.4768,0.4358,0.3873,0.3999,0.4153,0.435,0.4998,0.5322,0.5281,0.6603,0.7637,0.0,0.8907,0.9612,1.0406,1.1195,1.172,1.2072,1.1881,1.2222,1.2889,1.258,1.2502,1.2626,1.2947,1.283,1.2591,1.265,1.2615,1.2449,1.209,1.1872,1.1737,1.1468,0.0,0.0,0.0,1.2767,0.0,0.0,0.0,0.0,0.0,0.0,0.0,0.0,0.0,0.0,0.0,0.0,0.0,0.0,0.0,0.0,1.9868,2.0002,2.0171,2.0276,2.0182,2.0454,2.1397,2.1744,2.2123,2.2789,2.3553,2.3962,2.3677,2.3816,2.4288,2.4952,2.5247,2.5872,2.6963,2.7542,2.8016,2.8359,2.8223,2.7917,2.7393,2.6324,2.5656,2.5154,2.356,2.3317,2.4148,2.3514,2.3185,2.2995,2.2777,2.2811,2.3041,2.3328,2.3408,2.3374,2.3672,2.3592,2.3351,0.0,0.0,0.0,0.0,0.0,0.0,0.0,0.0,0.0,0.0,0.0,0.0,0.0,0.0,0.0,0.0,0.6256,0.6104,0.545,0.5137,0.4779,0.434,0.447,0.4728,0.5026,0.5671,0.5945,0.5837,0.7174,0.8108,0.8734,0.9412,1.0116,0.0,1.1332,1.1951,1.2607,1.2399,1.2861,1.3777,1.3567,1.3495,1.3545,1.3774,1.3705,1.3431,1.3343,1.3316,1.3291,1.2757,1.2579,1.2508,1.209,1.192,0.0,0.0,0.0,0.0,0.0,0.0,0.0,0.0,0.0,0.0,0.0,0.0,0.0,0.0,0.0,0.0,0.0,0.0,1.9273,1.93,1.928,1.9458,1.9869,1.9544,1.9586,2.0472,2.0796,2.1177,2.1622,2.2637,2.3087,2.2708,2.312,2.3417,2.3549,2.4116,2.4734,2.5458,2.6206,2.6972,2.7728,2.7642,2.7265,2.672,2.5815,2.503,2.4255,2.2935,2.2585,2.2941,2.2492,2.2363,2.2478,2.2352,2.2375,2.2524,2.2903,2.2903,2.2731,2.311,2.3006,2.2673,0.0,0.0,0.0,0.0,0.0,0.0,0.0,0.0,0.0,0.0,0.0,0.0,0.6021,0.6476,0.6725,0.6392,0.6562,0.6396,0.5711,0.5728,0.5566,0.515,0.5634,0.0,0.5918,0.6388,0.6698,0.6737,0.7652,0.8491,0.9283,0.9867,1.0655,1.1425,1.1279,1.1724,1.262,0.0,0.0,0.0,1.432,1.4698,1.5044,1.5359,1.552,1.5462,1.4852,1.4585,1.4436,1.3278,1.2838,1.2697,1.2318,1.209,1.211,0.0,0.0,0.0,0.0,0.0,0.0,0.0,0.0,0.0,0.0,0.0,0.0,0.0,0.0,0.0,0.0,0.0,1.9287,1.9307,1.9285,1.9298,1.9321,1.9328,1.9342,1.9403,2.0357,2.1,2.1022,2.2083,2.2708,2.2685,2.226,2.2324,2.3179,2.2864,2.3389,2.5052,2.5192,2.5834,2.7111,2.6928,2.6568,2.5937,2.5453,2.4818,2.3995,2.3148,2.2165,2.1028,2.1221,2.1514,2.1927,2.1445,2.1525,2.1973,2.1996,2.2283,2.2685,2.2708,2.2696,2.2605,0.0,0.0,0.0,0.0,0.0,0.0,0.0,0.0,0.0,0.0,0.0,0.0,0.0,0.68,0.695,0.6921,0.7047,0.6831,0.6129,0.6276,0.6227,0.5931,0.5998,0.6277,0.6765,0.6955,0.7119,0.7202,0.8061,0.8715,0.9167,0.9859,1.0655,1.161,1.1405,1.1827,1.2584,1.2362,0.0,0.0,0.0,0.0,0.0,0.0,0.0,0.0,0.0,0.0,0.0,1.326,1.3213,1.3498,1.304,1.3044,1.3191,1.312,1.3635,1.4258,0.0,0.0,0.0,0.0,0.0,0.0,0.0,0.0,0.0,0.0,0.0,0.0,0.0,0.0,1.8154,1.8418,1.8017,1.7955,1.8853,1.8448,1.8434,1.937,1.9874,2.021,2.0565,2.1583,2.2053,2.1732,2.2031,2.225,2.2215,2.2305,2.266,2.3542,2.3813,2.4588,2.5873,2.621,2.6217,2.5893,2.5397,2.4808,2.3962,2.3182,2.2116,2.0911,2.1128,2.1089,2.0963,2.1101,2.1273,2.1468,2.1801,2.1835,2.1743,2.2076,2.1996,2.1709,0.0,0.0,0.0,0.0,0.0,0.0,0.0,0.0,0.0,0.6581,0.0,0.0,0.0,0.0,0.7118,0.7251,0.7245,0.7114,0.6713,0.6821,0.6892,0.6786,0.6824,0.7117,0.7598,0.7724,0.7759,0.778,0.843,0.8939,0.936,0.9907,1.0704,1.171,1.1501,1.1949,0.0,0.0,0.0,1.4199,0.0,0.0,1.4888,0.0,0.0,0.0,0.0,0.0,0.0,0.0,1.3517,1.4046,1.3676,1.4097,1.4614,1.425,1.4426,1.4819,1.4988,0.0,0.0,0.0,0.0,0.0,0.0,0.0,0.0,0.0,0.0,0.0,0.0,1.6748,1.708,1.751,1.7109,1.7052,1.7951,1.753,1.7561,1.8539,1.9082,1.9501,1.983,2.0963,2.1537,2.1192,2.1725,0.0,2.1549,2.1737,2.1987,2.2359,2.298,2.3638,2.4273,2.4959,2.5312,2.5368,2.5094,2.4512,2.3733,2.3198,2.1987,2.0405,2.0865,2.0784,2.0446,2.0951,2.1221,2.1256,2.1537,2.1456,2.1267,2.1548,2.1456,2.1221,0.0,0.0,0.0,0.0,0.0,0.0,0.0,0.0,0.7027,0.6956,0.0,0.0,0.0,0.0,0.0,0.7412,0.7196,0.7154,0.7419,0.7419,0.753,0.7724,0.816,0.8414,0.8414,0.861,0.8635,0.8521,0.8765,0.9213,0.9806,1.0066,1.0761,1.171,1.152,1.2215,1.3579,0.0,1.4013,1.4905,0.0,1.5314,1.5261,0.0,0.0,0.0,1.5239,1.4836,0.0,1.3493,0.0,0.0,0.0,0.0,1.6179,1.6019,1.6297,1.6557,0.0,0.0,0.0,0.0,0.0,0.0,0.0,0.0,0.0,0.0,0.0,0.0,0.0,1.6076,1.6172,1.6602,1.6626,1.6636,1.6728,1.6719,1.6719,1.6728,1.8018,1.8902,1.8913,2.0322,2.121,2.1221,2.1221,2.1221,2.1221,2.121,2.1325,2.1678,2.2688,2.3022,2.2464,2.3283,2.3864,2.4353,2.4299,2.3892,2.3145,2.3145,2.1744,1.935,2.0381,2.0644,2.0423,2.0951,2.1221,2.1221,2.1221,2.1221,2.1221,2.1221,2.1221,2.1221,0.0,0.0,0.0,0.0,0.0,0.7812,0.7287,0.758,0.7848,0.0,0.0,0.0,0.7953,0.7836,0.767,0.7628,0.7697,0.778,0.7961,0.8085,0.8201,0.8431,0.8439,0.857,0.8822,0.8822,0.8781,0.8643,0.9047,0.9426,0.9806,1.0239,1.0899,1.1719,1.1997,1.2676,1.3558,1.3116,0.0,0.0,1.4359,1.4701,0.0,0.0,0.0,0.0,0.0,1.4336,1.3941,0.0,1.3755,1.4861,0.0,0.0,1.5836,1.5801,1.5709,1.5683,1.5858,0.0,0.0,0.0,0.0,0.0,0.0,0.0,0.0,0.0,0.0,0.0,1.5069,1.5147,1.5176,1.5303,1.5576,1.6006,1.6641,1.6455,1.6542,1.7223,1.7916,1.8685,1.9394,2.0144,2.0768,0.0,2.1221,2.1221,2.1221,2.1063,2.0983,2.0901,2.1771,2.2189,2.1975,2.2596,2.2932,2.2937,2.2762,2.2489,2.2185,2.17,2.0709,1.9394,2.0203,2.0277,1.9964,2.0814,2.1221,2.1221,2.1221,2.1221,2.1221,2.1221,2.1221,2.1221,0.0,0.0,0.0,0.0,0.0,0.8269,0.7853,0.81,0.8257,0.0,0.0,0.0,0.84,0.8292,0.8112,0.7934,0.8158,0.8341,0.8414,0.8633,0.8774,0.8814,0.9038,0.9211,0.9248,0.9337,0.9377,0.9279,0.9468,0.9778,1.0146,1.049,1.1128,1.1977,1.2452,0.0,0.0,0.0,0.0,0.0,1.4224,0.0,0.0,1.4608,1.4643,0.0,0.0,0.0,1.3654,1.3076,1.36,0.0,0.0,0.0,1.614,1.6517,1.644,1.6271,1.649,1.6157,0.0,0.0,0.0,0.0,1.5558,1.5498,0.0,0.0,0.0,0.0,1.512,1.5147,1.5212,1.5365,1.5435,1.5601,1.6074,1.5957,1.5999,1.6548,1.7224,1.7938,1.8692,1.9409,2.0114,2.0814,2.0848,2.0848,2.0848,2.056,2.0322,2.0251,2.0816,2.0998,2.0742,2.1219,2.1486,2.1581,2.1473,2.131,2.1226,2.0871,2.0079,1.9109,1.9715,1.9737,1.9424,2.0217,2.0791,2.1221,2.1221,2.1221,2.1221,2.1221,2.1221,2.1221,0.0,0.0,0.8799,0.834,0.8398,0.8391,0.8117,0.8401,0.8563,0.0,0.8706,0.8883,0.8542,0.857,0.857,0.8391,0.8594,0.8805,0.8898,0.9207,0.9308,0.9133,0.9742,0.9899,0.9588,0.9913,1.0079,1.004,1.0037,1.0247,1.0705,1.0984,1.1565,1.2421,1.288,0.0,0.0,0.0,0.0,1.4015,1.4462,1.4167,0.0,0.0,1.3814,1.3422,1.3441,1.3437,1.3379,1.3184,1.3488,0.0,0.0,0.0,1.6808,1.7609,1.7774,1.7639,1.7516,1.7018,1.6509,0.0,0.0,0.0,1.578,1.5546,1.5302,0.0,0.0,0.0,1.5532,1.5593,1.5667,1.6061,1.5776,1.5475,1.539,1.541,1.541,1.541,1.6236,1.6974,1.7419,1.8289,1.9231,2.0163,2.027,2.0308,2.0251,1.9838,1.9574,1.9586,1.989,1.9782,1.9209,1.9591,1.9964,2.0271,2.0271,2.0271,2.0271,2.0271,1.9636,1.8595,1.9057,1.9111,1.8931,1.947,2.0205,2.0997,2.0997,2.1095,2.1078,2.1078,2.1175,2.1158,0.0,0.9961,0.9737,0.9446,0.9531,0.9537,0.9148,0.9308,0.9615,0.9969,1.0079,0.9877,0.9181,0.8939,0.8977,0.931,0.9229,0.9501,1.025,1.0098,0.9971,1.004,0.9871,0.9667,0.9359,0.9813,0.9932,0.9707,1.0781,1.1291,1.1255,1.2061,1.2656,1.3025,1.3372,0.0,0.0,0.0,0.0,1.4426,1.4209,0.0,1.3558,1.3273,1.3112,1.3004,1.3037,1.2998,1.3174,1.4212,1.4522,1.479,0.0,0.0,0.0,1.7408,1.747,1.7475,1.7475,0.0,0.0,0.0,0.0,0.0,1.5534,1.5558,1.5537,0.0,0.0,1.5072,1.5065,1.5103,1.5131,1.5264,1.5405,1.5487,1.54,1.541,1.541,1.541,1.5918,1.6491,1.6984,1.7503,1.8175,1.922,1.9636,1.9643,1.9218,1.9103,1.8975,1.8834,1.9265,1.9285,1.8713,1.9235,1.929,1.897,1.8713,1.8713,1.897,1.8713,1.8437,1.8228,1.8723,1.8953,1.8931,1.947,1.9803,1.9975,1.9975,2.0217,2.0561,2.0561,2.0814,2.1158,0.0,1.0312,1.0166,1.0019,0.9862,0.9703,0.9563,0.9656,0.9745,0.9922,1.0129,1.0197,1.0114,1.0111,1.0174,1.0391,1.0535,1.0758,1.106,1.0916,1.0846,1.0998,1.09,1.0835,1.0784,1.1205,1.1369,1.1348,1.1932,1.2238,1.2242,1.2823,1.3148,1.3409,1.3752,1.414,0.0,0.0,1.443,1.4316,1.4351,0.0,1.3752,1.3382,1.32,1.3152,1.2968,1.3018,1.3402,1.485,1.5278,0.0,0.0,1.7107,1.766,0.0,1.7439,1.7889,0.0,0.0,0.0,1.6976,0.0,0.0,0.0,1.5647,1.5513,1.4903,1.5142,1.537,1.5325,0.0,1.5448,1.563,1.5802,1.5793,1.5379,1.5212,1.5003,1.4791,1.5167,1.5625,1.6137,1.656,1.7191,1.8173,1.8686,1.8814,1.8566,1.8543,1.8458,1.8356,1.86,1.8611,1.8356,1.86,1.86,1.8356,1.8193,1.8193,1.8344,1.8193,1.8084,1.8096,1.8359,1.8517,1.854,1.8804,1.8919,1.8977,1.9493,1.9838,2.0056,2.0056,2.0084,2.0065,1.0889,1.0705,1.0627,1.0538,1.0181,0.9917,0.9887,0.9898,0.9881,0.9763,1.0199,1.0641,1.105,1.13,1.1389,1.1367,1.1767,1.1953,1.1851,1.1797,1.1792,1.1977,1.2017,1.2115,1.2297,1.2605,1.2858,1.3026,1.3041,1.3098,1.3297,1.3482,1.3648,1.381,1.4273,1.4562,0.0,0.0,0.0,1.4163,0.0,1.4363,1.3836,1.3666,1.3501,1.3334,1.3106,1.3213,1.3726,1.5235,1.5659,1.5704,1.6238,1.7227,0.0,0.0,0.0,0.0,0.0,0.0,0.0,0.0,0.0,1.6405,0.0,0.0,0.0,0.0,0.0,0.0,0.0,0.0,0.0,0.0,0.0,0.0,0.0,1.4918,0.0,1.4476,1.4821,1.5202,1.5604,1.582,1.6294,1.7041,1.7549,1.7849,1.7928,1.7879,1.7872,1.7975,1.789,1.7844,1.7935,1.7844,1.7844,1.8001,1.8001,1.7993,1.8084,1.8084,1.8084,1.8084,1.8084,1.8084,1.8084,1.8084,1.8084,1.8176,1.9069,1.9447,1.9539,1.9422,1.9231,1.9044,1.1743,1.1747,1.1691,1.1419,1.1466,1.1299,1.0592,1.0721,1.0886,1.0968,1.1709,1.2104,1.1805,0.0,0.0,0.0,0.0,0.0,1.3142,0.0,1.2699,1.3023,1.2548,1.2254,1.2191,1.2542,1.2711,1.2753,1.3487,1.386,1.3927,1.4383,1.4582,1.4499,1.5107,0.0,0.0,0.0,1.5211,0.0,1.4645,1.4114,0.0,1.3481,1.3382,1.322,1.3391,1.3467,1.3728,0.0,1.5479,1.5284,0.0,1.7659,1.7377,1.8056,0.0,0.0,0.0,0.0,0.0,0.0,1.7434,0.0,0.0,0.0,1.6238,1.6281,0.0,0.0,0.0,0.0,0.0,0.0,0.0,0.0,1.484,1.4703,1.4914,1.5677,1.5851,1.5918,1.6039,1.5732,1.5624,1.573,1.6114,1.6503,1.6944,1.6896,1.7079,1.7567,1.7058,1.7014,1.7461,1.7025,1.7025,1.7461,1.7461,1.7702,1.8084,1.8084,1.8084,1.8084,1.8084,1.8084,1.8084,1.8084,1.8084,1.8096,1.8221,1.8586,1.8931,1.8529,1.8622,1.8879,1.2456,1.2215,0.0,1.21,1.1842,1.1645,1.1738,1.1921,1.2016,1.2005,1.2532,1.289,0.0,0.0,0.0,0.0,0.0,1.3338,0.0,0.0,1.3474,1.4174,1.3632,1.3432,1.3683,1.3869,1.395,1.3972,1.4295,1.4485,1.4519,1.471,1.4922,1.5143,1.5092,0.0,1.4996,0.0,1.4871,0.0,0.0,0.0,0.0,1.3955,1.3802,1.3746,1.4145,1.4248,1.4361,0.0,1.6011,0.0,0.0,0.0,0.0,0.0,0.0,0.0,0.0,0.0,0.0,0.0,0.0,0.0,1.7414,0.0,1.6697,0.0,0.0,0.0,0.0,0.0,0.0,0.0,1.6178,0.0,0.0,0.0,1.5421,0.0,0.0,0.0,1.5273,1.5571,1.5595,1.5091,1.5649,1.6023,1.5967,1.6245,1.6353,1.6321,1.6313,1.6394,1.6638,1.6616,1.6692,1.695,1.7271,1.7341,1.7214,1.756,1.7537,1.7226,1.756,1.75,1.7274,1.7847,1.7776,1.7335,1.7611,1.7879,1.8059,1.789,1.7614,1.7307,1.3227,0.0,0.0,0.0,1.2511,1.2388,1.2761,1.2909,1.2969,0.0,0.0,0.0,1.367,1.4082,0.0,0.0,1.4091,1.4177,0.0,0.0,1.4063,1.4925,1.4478,0.0,0.0,1.4851,1.4888,1.4903,1.4891,1.4891,1.4949,1.4891,1.5127,1.5541,0.0,1.5284,1.5286,0.0,0.0,1.4615,1.5079,1.52,1.507,1.4443,1.4141,1.4136,1.4629,1.4785,1.49,1.5389,1.6301,0.0,1.6698,0.0,0.0,0.0,0.0,0.0,1.8916,0.0,0.0,0.0,0.0,0.0,0.0,0.0,0.0,0.0,0.0,0.0,0.0,0.0,1.5792,1.6151,0.0,1.6372,0.0,1.594,0.0,0.0,0.0,0.0,0.0,1.5235,1.5252,1.4655,1.5278,1.5497,1.5174,1.5616,1.568,1.53,1.5433,1.5589,1.5709,1.5807,1.6038,1.6256,1.6546,1.658,1.6463,1.6758,1.6758,1.6474,1.6755,1.6726,1.6488,1.7156,1.7044,1.6543,1.695,1.7125,1.7134,1.7134,1.6673,1.6107,1.4177,1.4023,0.0,0.0,0.0,0.0,1.3529,0.0,0.0,0.0,0.0,0.0,0.0,0.0,0.0,0.0,0.0,1.4883,1.4893,0.0,1.4441,1.505,1.4903,1.4833,0.0,1.5012,1.4964,1.4903,1.5017,1.5108,1.5108,1.5108,1.5302,1.572,1.6284,1.624,1.5836,1.6451,1.5986,1.4831,1.5215,1.5381,1.5341,0.0,1.4301,1.4136,1.4629,0.0,0.0,1.579,1.5816,0.0,0.0,0.0,0.0,0.0,0.0,0.0,0.0,0.0,0.0,1.9093,0.0,0.0,0.0,0.0,1.8972,0.0,0.0,0.0,0.0,1.6057,1.5748,1.6001,1.6013,0.0,0.0,0.0,0.0,0.0,0.0,0.0,0.0,1.4524,1.4195,1.4332,1.4614,1.472,1.4522,1.4977,1.5123,1.484,1.4314,1.4313,1.4744,1.4286,1.4514,1.5427,1.4987,1.5255,1.6117,1.5742,1.5745,1.6084,1.5696,1.5763,1.609,1.5747,1.5781,1.6127,1.6138,1.615,1.6171,1.6171,1.6114,1.6056,0.0,0.0,0.0,0.0,0.0,0.0,0.0,1.4811,0.0,0.0,0.0,0.0,0.0,1.627,1.6219,0.0,0.0,1.5129,1.5243,1.5103,0.0,0.0,0.0,1.5881,0.0,0.0,1.6047,1.601,1.6058,1.6107,1.6107,1.6107,1.6333,1.6814,0.0,1.6107,0.0,0.0,0.0,0.0,0.0,1.5931,1.613,0.0,1.5037,1.5,1.5146,1.5205,0.0,1.5535,1.5768,1.5931,1.6482,1.7346,1.8174,1.8634,1.9409,2.0047,0.0,0.0,2.0035,1.9729,0.0,0.0,0.0,0.0,0.0,0.0,0.0,0.0,0.0,1.6465,1.6088,1.6287,1.6213,1.6071,0.0,0.0,0.0,0.0,0.0,0.0,0.0,0.0,1.4746,1.4378,1.4534,1.4604,1.4568,1.4348,1.4265,1.4345,1.4155,1.4277,1.4707,1.4818,1.5025,1.5353,1.5506,1.5426,1.5107,1.5316,1.5153,1.4714,1.4888,1.4877,1.4731,1.5282,1.5372,1.5198,1.5564,1.566,1.5642,1.5999,1.5874,1.5584,1.5286,0.0,0.0,0.0,0.0,0.0,0.0,0.0,0.0,0.0,1.6931,0.0,1.7053,0.0,1.7131,0.0,1.598,1.5772,1.5859,1.5698,0.0,1.5625,1.6138,0.0,0.0,0.0,1.6378,1.6373,1.6523,1.6623,1.6623,1.6623,1.6899,1.7369,0.0,1.6685,1.67,0.0,1.5898,0.0,0.0,1.6104,0.0,0.0,1.5642,1.5642,0.0,1.541,1.541,1.541,1.5584,1.5874,1.5874,1.6856,1.8101,1.8263,1.9218,2.0118,1.9837,2.0118,0.0,2.0003,2.0552,0.0,2.024,0.0,2.0457,0.0,0.0,0.0,0.0,1.6659,1.6485,1.6637,1.6441,1.6244,0.0,1.5915,0.0,0.0,0.0,0.0,0.0,0.0,1.4692,1.4365,1.4384,1.4408,1.4403,1.4155,1.4059,1.4093,1.4093,1.4222,1.4498,1.476,1.4975,1.5139,1.5096,1.4873,1.444,1.4481,1.4262,1.3824,1.3988,1.3968,1.3872,1.4348,1.4531,1.4532,1.4713,1.5054,1.541,1.5768,1.5642,1.541,0.0,0.0,0.0,0.0,1.5614,0.0,0.0,0.0,1.6752,0.0,1.7627,1.8049,1.7395,1.806,1.8088,1.6904,1.6807,1.6787,1.6768,1.6287,0.0,0.0,1.6078,1.5887,1.5467,0.0,0.0,1.6074,1.6468,1.6619,1.6642,1.6619,1.6933,1.7456,1.7704,0.0,1.7843,1.7357,1.6912,1.6436,1.6161,1.5989,1.5931,1.6056,1.6056,1.6056,1.5584,1.541,1.541,1.541,1.541,1.541,1.541,1.5921,1.6652,1.709,1.7961,1.8833,1.9303,1.9875,2.0271,1.9901,2.0746,0.0,0.0,0.0,2.0577,0.0,0.0,0.0,0.0,0.0,1.6802,1.688,1.665,1.6552,1.6667,1.6808,1.6595,0.0,0.0,0.0,0.0,1.4359,1.4104,1.4222,1.4268,1.4233,0.0,1.4398,1.443,1.416,1.4107,1.416,1.4153,1.4153,1.441,1.48,1.3986,1.3733,1.4048,1.3291,1.3125,1.3457,1.3057,1.3124,1.3449,1.3036,1.3352,1.4049,1.3635,1.4277,1.5381,1.54,1.541,1.541,1.5935,1.5959,1.5988,0.0,1.5824,1.5748,0.0,0.0,0.0,0.0,1.8805,1.9427,1.9336,1.9463,1.9154,1.8223,1.7861,0.0,0.0,0.0,0.0,1.6145,1.6717,1.6685,1.5914,1.667,0.0,1.7092,1.7066,1.7288,1.7695,1.7276,1.7368,1.7932,0.0,0.0,1.7875,1.7124,1.6577,1.6161,1.5758,1.5758,1.5999,0.0,1.5816,1.6056,1.5584,1.541,1.541,1.541,1.541,1.5468,1.5826,1.6436,1.7146,1.7797,1.8566,1.9291,1.9604,1.9811,1.9952,1.985,2.0259,2.0692,2.041,0.0,0.0,0.0,0.0,0.0,0.0,0.0,1.6514,1.6577,1.6446,1.6403,1.6532,0.0,0.0,1.612,0.0,0.0,1.4868,1.4651,1.449,1.4477,1.4221,1.4146,1.4322,0.0,1.4324,1.4636,1.4625,1.4739,1.5042,1.5042,1.5119,1.5255,1.4746,1.4346,1.4068,1.3578,1.3219,1.3037,1.293,1.2959,1.3027,1.2939,1.3214,1.3635,1.3535,1.4102,1.498,1.5293,1.541,1.541,1.6777,0.0,0.0,1.6428,0.0,0.0,1.6372,0.0,0.0,1.8506,1.94,0.0,1.9788,1.9836,1.957,1.8711,1.8418,0.0,1.7686,0.0,0.0,1.667,1.7119,1.6983,1.6137,1.6773,0.0,1.7134,1.7366,1.7702,1.8084,1.7905,1.7982,1.8236,0.0,1.8024,0.0,1.7267,1.6881,1.668,1.6224,1.6117,0.0,1.6058,1.5928,1.5758,1.5468,1.541,1.541,1.541,1.541,1.5526,1.6104,1.6765,1.7523,1.8286,1.9004,1.9565,1.9604,1.9708,1.9747,1.9656,1.9999,2.0269,2.0028,1.9922,1.9564,0.0,1.8084,1.7594,0.0,0.0,1.6608,1.651,1.6617,1.6689,0.0,0.0,0.0,0.0,1.617,0.0,1.4994,1.4789,1.4674,1.4651,1.4244,1.4115,1.4287,0.0,1.4417,1.5044,1.5143,1.5259,1.5479,1.5625,1.5478,1.5022,1.4661,1.4263,1.3857,1.3578,1.3289,1.2929,1.3076,1.3066,1.29,1.3085,1.3394,1.3768,1.398,1.4238,1.4551,1.498,1.5254,1.541,0.0,0.0,0.0,0.0,0.0,0.0,0.0,1.7603,0.0,1.8956,0.0,1.9925,1.9586,1.9756,1.959,1.8789,0.0,1.8457,1.8037,1.8008,1.7793,1.7314,1.7353,1.6973,1.6145,1.6608,1.6832,0.0,1.749,1.7963,1.8193,1.8452,1.8506,1.8422,0.0,0.0,0.0,1.7645,1.7348,1.7493,1.6927,1.6618,1.6497,1.6618,1.6148,1.541,1.541,1.541,1.541,1.541,1.541,1.5642,1.6379,1.709,1.7797,1.8501,1.915,1.954,1.9303,1.9384,1.9488,1.9239,1.9551,1.9824,1.9295,1.9336,1.9022,1.7456,1.7424,1.7479,1.656,1.6788,1.6979,1.672,0.0,0.0,0.0,0.0,0.0,0.0,0.0,0.0,0.0,1.4983,1.4789,1.4709,1.4326,1.4118,1.4168,0.0,1.4457,1.5172,1.5426,1.5528,1.5587,1.5899,1.5536,1.463,1.4243,1.3916,1.3506,1.3447,1.3232,1.2939,1.3272,1.3203,1.292,1.3345,1.3744,1.415,1.4632,1.4551,1.4268,1.4707,1.5098,1.541,0.0,0.0,0.0,0.0,0.0,1.8521,1.8919,1.92,1.9473,1.9924,2.0288,2.0515,2.051,2.0113,1.9717,1.9219,1.8848,0.0,0.0,0.0,0.0,1.6885,1.7197,1.6973,1.6145,1.69,1.7347,0.0,1.7498,1.7865,1.8506,1.8441,1.8494,1.8607,0.0,0.0,1.9356,1.7823,0.0,1.7349,1.6567,1.6186,1.6186,1.6186,1.5851,1.541,1.541,1.541,1.541,1.541,1.5642,1.6104,1.681,1.7435,1.7995,1.8709,1.8738,1.8555,1.8513,1.8232,1.795,1.7907,1.8302,1.8511,1.8038,1.7767,1.7467,1.6786,1.6197,1.5979,1.6332,1.7322,0.0,0.0,0.0,0.0,0.0,0.0,0.0,0.0,0.0,1.6622,0.0,0.0,1.521,1.4811,1.4581,1.4367,1.4052,0.0,1.4343,0.0,1.4764,1.5256,0.0,0.0,1.541,1.5243,1.4473,1.3916,1.3496,1.3154,1.2949,1.2881,1.2949,1.2949,1.291,1.3309,1.3747,1.4175,1.4629,1.4736,1.4727,1.5146,1.5352,1.541,0.0,0.0,0.0,0.0,0.0,0.0,0.0,2.0904,2.0759,2.0481,2.0517,2.0536,2.0307,2.0259,1.999,1.9346,1.9092,1.8701,1.8047,1.8008,1.7822,1.7412,1.7598,1.7402,1.6768,1.7199,1.7531,1.78,1.7788,1.8261,1.9259,1.9395,1.9528,1.9562,0.0,1.9737,0.0,0.0,0.0,1.7893,1.707,1.6748,1.6719,1.6494,1.6133,1.5752,1.5752,1.5605,1.541,1.541,1.6014,1.6848,1.7424,1.8227,1.901,1.928,1.9036,1.8649,1.8193,1.7835,1.7578,1.7413,1.7578,1.7688,1.7413,1.7302,1.7034,1.6436,1.6093,1.5965,1.6022,1.6938,0.0,0.0,0.0,0.0,0.0,0.0,0.0,0.0,0.0,0.0,0.0,0.0,0.0,0.0,0.0,1.4669,1.4205,0.0,1.4496,0.0,0.0,0.0,1.5869,0.0,1.5594,1.519,1.4444,1.3916,1.3496,1.3301,1.3086,1.29,1.334,1.3408,1.3262,1.3906,1.4287,1.4492,1.4697,1.4785,1.4805,1.501,1.5225,1.541,0.0,1.9587,0.0,0.0,2.0649,0.0,2.2073,2.2397,2.2155,2.1046,2.0762,2.0537,2.0098,2.0195,2.0019,1.9346,1.9121,1.873,1.8057,1.8008,1.7969,1.7881,1.7959,1.7812,1.7393,1.7471,1.775,1.8237,1.817,1.8776,1.9995,2.0365,2.0568,2.0606,0.0,0.0,0.0,0.0,1.7757,1.8322,1.7665,1.7383,1.7344,1.7002,1.6592,1.6211,1.6211,1.5986,1.5693,1.5693,1.6375,1.736,1.7947,1.8832,1.9608,1.9597,1.9263,1.8644,1.7908,1.7478,1.721,1.6888,1.6866,1.6922,1.6866,1.6866,1.6765,1.6104,1.629,1.641,1.5889,1.6576,1.7154,0.0,0.0,0.0,0.0,0.0,0.0,0.0,0.0,0.0,1.5669,0.0,0.0,0.0,0.0,1.4898,1.451,1.4434,1.459,1.4996,1.5212,1.5533,1.5942,0.0,1.5671,1.493,1.4493,1.3955,1.3379,1.3555,1.3359,1.293,1.3769,1.4004,1.3828,1.4512,1.4834,1.4912,1.4814,1.4844,1.4912,1.4768,1.4945,1.5303,0.0,0.0,0.0,0.0,0.0,0.0,2.2456,2.3535,2.378,2.2004,2.1416,2.0996,2.0547,1.9853,1.9375,1.9297,1.8584,1.8096,1.8018,1.8008,1.7842,1.7461,1.7803,1.7812,1.7393,1.7754,1.8258,0.0,1.8595,1.9101,2.0262,2.0481,2.0937,2.144,1.995,0.0,1.9414,1.803,1.763,1.7978,1.7605,1.7383,1.7383,1.7334,1.7051,1.667,1.667,1.6641,1.6611,1.6611,1.6675,1.7028,1.8158,1.8611,1.8693,1.9182,1.8671,1.7767,1.7069,1.6567,1.6138,1.5683,1.5874,1.6104,1.57,1.5874,1.6046,1.5584,1.6147,1.6656,1.6128,1.712,1.8074,0.0,0.0,0.0,0.0,0.0,1.7148,1.6353,0.0,0.0,0.0,1.6312,0.0,0.0,1.5244,1.4991,1.4795,1.4529,1.4398,1.4367,1.479,1.5159,1.5471,1.5666,1.5417,1.4838,1.4782,1.4102,1.2969,1.373,1.3643,1.293,1.3769,1.4336,1.4668,1.4756,1.501,1.5312,1.4932,1.5019,1.5245,1.4592,1.4668,1.502,0.0,0.0,0.0,0.0,0.0,0.0,0.0,2.4697,2.4506,2.3225,2.2281,2.1609,2.1158,2.0493,1.9844,1.9336,1.8975,1.8662,1.8408,1.8154,1.8047,1.8135,1.8057,1.8065,1.8221,1.8392,1.8905,0.0,0.0,1.9851,2.0944,2.1128,2.1619,2.231,2.0772,2.0243,2.0375,1.8856,1.835,1.8462,1.7957,1.7764,1.7734,1.748,1.7275,1.7119,1.7119,1.6953,1.6753,1.7324,1.764,1.7916,1.8239,1.8859,1.9391,1.9073,1.8511,1.783,1.6957,1.6454,1.6017,1.5518,1.5526,1.5642,1.541,1.5526,1.5642,1.541,1.5723,1.5969,1.6087,1.6534,1.7172,1.7969,0.0,0.0,0.0,0.0,0.0,1.6432,0.0,1.645,0.0,1.6442,0.0,0.0,0.0,1.5325,1.486,1.4792,1.4774,1.4799,0.0,1.5389,1.5679,1.5698,1.5501,1.5044,1.4566,1.4131,1.3633,1.3721,1.3857,1.4043,1.4375,1.4766,1.5156,1.5156,1.5254,1.5391,1.5071,1.4994,1.5059,1.4236,1.4282,1.4588,2.4269,0.0,2.3453,0.0,2.4824,2.4859,2.5418,2.5513,2.5224,2.4244,2.3285,2.2449,2.1859,2.1293,2.0657,2.0036,1.9928,1.9716,1.9394,1.8903,1.8793,1.9103,1.8566,0.0,1.9008,1.8741,1.9198,2.0431,1.9857,0.0,2.1376,2.1582,2.1849,2.2161,2.1083,2.0635,2.0624,1.9528,1.8942,1.8741,1.8414,1.8144,1.7978,1.7676,1.7568,1.7568,1.7568,1.7373,1.7207,1.7803,1.8185,1.8438,1.8404,1.8882,1.9386,1.8931,1.8461,1.7986,1.7105,1.6602,1.6152,1.5713,1.5508,1.541,1.541,1.541,1.5449,1.5576,1.5723,1.5939,1.6197,1.6198,1.6436,1.7552,0.0,0.0,0.0,1.7506,0.0,0.0,1.6776,1.6685,1.6873,1.6883,0.0,0.0,0.0,1.5737,1.5165,1.5124,1.5148,1.5216,0.0,0.0,1.5786,1.5833,1.5548,1.5099,1.4645,1.4321,1.4068,1.3828,1.416,1.4961,1.4834,1.5029,1.541,1.541,1.5352,1.5235,1.4887,1.4798,1.4765,1.3927,1.3954,1.4258,2.4288,2.4083,2.4143,2.5205,2.6029,2.6278,2.5796,2.614,2.6094,2.5061,2.4374,2.3579,2.2531,2.1988,2.17,2.1679,2.1314,2.1107,2.1096,2.0589,2.0264,0.0,0.0,1.9008,1.9605,1.8549,1.8798,2.0431,0.0,0.0,2.1388,2.1612,2.1296,2.0635,2.0635,2.0248,1.9605,1.9605,1.9274,1.8808,1.8808,1.8472,1.8008,1.8008,1.8008,1.8008,1.8008,1.7998,1.7998,1.8008,1.8008,1.8066,1.8607,1.8405,1.8144,1.8684,1.8405,1.791,1.749,1.7061,1.6621,1.6172,1.5732,1.541,1.541,1.541,1.5537,1.6027,1.6477,1.6739,1.6694,1.6367,1.6372,1.7254,1.6911,0.0,0.0,1.7585,0.0,1.8362,1.7743,1.7439,1.7823,1.7812,0.0,0.0,0.0,1.6209,1.5736,0.0,0.0,1.5504,1.5558,0.0,1.5615,1.5946,1.5662,1.4795,1.5205,1.4951,1.4077,1.4077,1.459,1.5381,1.4971,1.5029,1.541,1.541,1.5245,1.4932,1.4516,1.4361,1.4423,1.37,1.3682,1.402,2.5452,2.5502,2.5694,2.6456,2.6816,2.6932,2.6772,2.6588,2.6347,2.6014,2.5196,2.4469,2.4161,2.297,2.2051,0.0,2.1551,2.1538,0.0,2.0722,2.0562,2.1211,2.0339,2.0062,2.0609,2.0264,2.0368,2.0967,2.0669,2.0744,2.1285,2.136,2.136,2.1336,2.1094,2.1031,2.1008,2.0366,1.9857,1.9341,1.8942,1.8472,1.8008,1.8008,1.8008,1.8008,1.8008,1.8008,1.8008,1.8008,1.8008,1.8008,1.8212,1.8144,1.8008,1.8212,1.8144,1.792,1.75,1.7285,1.7002,1.625,1.6191,1.6152,1.5547,1.541,1.5537,1.5977,1.6246,1.6317,1.6277,1.6208,1.6384,1.7123,1.6674,0.0,1.724,0.0,1.7557,1.734,1.7861,1.8167,1.8094,1.7861,0.0,0.0,0.0,0.0,0.0,0.0,0.0,0.0,1.5753,0.0,1.5434,1.5708,1.5501,1.4785,1.4922,1.4844,1.459,1.4873,1.5156,1.54,1.5264,1.5283,1.541,1.5196,1.5088,1.4961,1.435,1.4132,1.4052,1.3279,1.3245,1.3675,2.6307,2.6362,2.6445,2.7056,2.707,2.7013,2.7196,2.6634,2.6175,2.6175,2.544,2.4843,2.4659,2.3698,2.2955,2.2637,2.2615,2.2615,2.2615,2.187,2.1706,2.2319,2.1446,2.1158,2.1722,2.1129,2.1019,2.1445,2.1261,2.1221,2.1221,2.1221,2.1285,2.1474,2.1285,2.1348,2.1463,2.0955,2.0377,1.9857,1.9528,1.9065,1.8607,1.8405,1.8279,1.8279,1.8076,1.8008,1.8008,1.8008,1.8008,1.8008,1.8008,1.8008,1.8008,1.8008,1.8008,1.7959,1.7686,1.75,1.7256,1.6689,1.6523,1.6289,1.5576,1.5537,1.5781,1.6221,1.6318,1.6402,1.6537,1.6346,1.6267,1.6728,1.6264,1.6085,1.6732,1.7155,1.7456,0.0,0.0,1.8444,1.8573,1.8121,1.7814,0.0,0.0,0.0,0.0,0.0,1.5553,1.5911,1.5772,1.5666,1.5584,1.5551,1.5355,1.5019,1.5019,1.5019,1.5029,1.5293,1.5362,1.5245,1.5352,1.5352,1.5245,1.5196,1.502,1.4784,1.4369,1.4061,1.3761,1.3224,1.3369,1.3706,2.6798,2.6704,2.6456,2.7056,2.6829,2.668,2.7162,2.637,2.5739,2.5807,2.5268,2.4717,2.4338,2.4235,2.42,2.42,2.42,2.42,2.42,2.3718,2.3395,2.3429,2.2498,2.2228,2.2731,2.1259,2.0906,2.187,2.1399,2.1221,2.1221,2.1221,2.1221,2.1221,2.1221,2.1221,2.1221,2.1221,2.0892,2.0431,2.0431,2.0118,1.9539,1.9075,1.8875,1.8808,1.8279,1.8076,1.8076,1.8008,1.8008,1.8008,1.8008,1.8008,1.8008,1.8008,1.8008,1.8008,1.8008,1.7725,1.7422,1.7393,1.6738,1.6016,1.5674,1.5859,1.624,1.668,1.6777,1.6885,1.7227,1.6641,1.6154,1.6086,1.5674,1.5633,1.6425,1.6729,1.7335,1.8691,0.0,1.8442,1.9032,1.8526,1.7932,0.0,0.0,0.0,0.0,0.0,1.5669,1.581,1.5656,1.5685,1.5864,1.5461,1.5292,1.541,1.541,1.541,1.541,1.5352,1.5245,1.5029,1.5245,1.5186,1.497,1.5186,1.4942,1.4469,1.441,1.4052,1.3511,1.3511,1.3742,1.4119,2.6362,2.6715,2.6974,2.7149,2.7128,2.7093,2.7208,2.637,2.5991,2.6772,2.5406,2.4625,2.5279,2.4659,2.42,2.42,2.42,2.42,2.42,2.3718,2.3544,2.4005,2.3381,2.3119,2.3259,2.248,2.1911,2.1342,2.1227,2.1221,2.1221,2.1221,2.1221,2.1221,2.1221,2.1221,2.1221,2.1221,2.0892,2.0431,2.0431,2.0118,1.9605,1.9473,1.9407,1.9341,1.8808,1.8607,1.8549,1.8144,1.8008,1.8008,1.8008,1.8008,1.8008,1.8008,1.8008,1.8008,1.8008,1.7939,1.7783,1.7461,1.6973,1.6719,1.7275,1.6973,1.6699,1.7139,1.7227,1.7051,1.6484,1.6484,1.6348,1.5674,1.5478,1.5738,1.6666,1.7235,1.7786,1.8382,1.867,1.8686,1.8247,1.8124,1.8047,0.0,0.0,1.7132,1.7376,1.6151,1.5602,1.6007,1.5666,1.5486,1.5526,1.5428,1.537,1.541,1.541,1.541,1.541,1.5196,1.5088,1.497,1.4775,1.4647,1.4597,1.4419,1.424,1.4061,1.3812,1.3631,1.3511,1.3511,1.3571,1.375,2.6622,2.6974,2.7056,2.6798,2.6524,2.6363,2.6268,2.5699,2.5498,2.6276,2.5267,2.474,2.5279,2.4659,2.42,2.42,2.42,2.42,2.42,2.3936,2.3913,2.4189,2.3936,2.3672,2.3383,2.2937,2.218,2.1221,2.1221,2.1221,2.1221,2.1221,2.1221,2.1221,2.1221,2.1221,2.1221,2.1221,2.1031,2.0764,2.0764,2.0571,2.0313,2.0053,1.9987,1.9922,1.9341,1.9142,1.9075,1.8549,1.8347,1.8347,1.8076,1.8008,1.8008,1.8008,1.8008,1.8008,1.8008,1.8008,1.791,1.749,1.7207,1.71,1.7363,1.7061,1.6855,1.7295,1.7383,1.7236,1.6758,1.6699,1.6504,1.582,1.5771,1.6026,1.6564,1.7253,1.779,1.7969,1.8349,1.8491,1.8038,1.8071,1.8003,1.7777,1.7376,0.0,1.6896,1.6222,1.5921,1.6114,1.5642,1.541,1.541,1.541,1.5312,1.5127,1.5322,1.5362,1.5196,1.5088,1.4852,1.4547,1.4538,1.441,1.424,1.424,1.413,1.401,1.3821,1.3631,1.3528,1.3708,1.3887,1.4119,2.7056,2.7149,2.688,2.6279,2.5771,2.5311,2.5221,2.4854,2.4853,2.5429,2.5048,2.4796,2.5027,2.4533,2.42,2.42,2.42,2.42,2.42,2.42,2.42,2.42,2.42,2.3959,2.3383,2.2868,2.2111,2.1221,2.1221,2.1221,2.1221,2.1221,2.1221,2.1221,2.1221,2.1221,2.1221,2.1221,2.1221,2.1221,2.1221,2.1221,2.1158,2.07,2.0495,2.0431,1.9922,1.9736,1.9671,1.9075,1.8875,1.8741,1.8269,1.8076,1.8008,1.8008,1.8008,1.8008,1.8008,1.8008,1.793,1.7568,1.748,1.7383,1.7012,1.6924,1.7031,1.7402,1.748,1.7461,1.7393,1.708,1.6689,1.6353,1.6374,1.6415,1.6576,1.7154,1.7584,1.769,1.7956,1.808,1.8025,1.8059,1.7936,1.7563,1.7549,1.7249,1.6556,1.6424,1.6355,1.6318,1.5712,1.541,1.541,1.5547,1.5371,1.4883,1.5245,1.5254,1.497,1.4911,1.4547,1.401,1.424,1.4172,1.395,1.424,1.4181,1.3941,1.3941,1.3795,1.3639,1.3973,1.4341,1.4718,2.7149,2.6704,2.6279,2.6196,2.563,2.5199,2.5179,2.4794,2.4859,2.5926,2.4869,2.4478,2.5455,2.4751,2.42,2.42,2.42,2.42,2.42,2.42,2.42,2.42,2.42,2.3959,2.3383,2.2524,2.1755,2.1221,2.1221,2.1221,2.1221,2.1221,2.1221,2.1221,2.1221,2.1221,2.1221,2.1221,2.1221,2.1221,2.1221,2.1221,2.1158,2.1094,2.1094,2.1031,2.0495,2.0302,2.0172,1.9671,1.9142,1.8808,1.8674,1.8337,1.8008,1.8008,1.8008,1.8008,1.8008,1.8008,1.7998,1.793,1.791,1.79,1.7822,1.7812,1.7832,1.79,1.791,1.7803,1.7451,1.7334,1.7323,1.7286,1.6961,1.7019,1.7964,1.7716,1.7595,1.8154,1.8099,1.7893,1.754,1.7843,1.8022,1.8083,1.7687,1.7688,1.8375,1.7242,1.6825,1.7185,1.6029,1.541,1.541,1.6152,1.6123,1.5322,1.5463,1.5362,1.497,1.4428,1.413,1.401,1.3761,1.3631,1.3571,1.3631,1.3631,1.3571,1.3571,1.3778,1.4016,1.4076,1.4341,1.4661,2.7231,2.6622,2.6113,2.5695,2.5105,2.4509,2.4166,2.4237,2.4503,2.5062,2.4653,2.4559,2.5116,2.4573,2.42,2.42,2.42,2.4043,2.3751,2.4043,2.42,2.42,2.3936,2.3546,2.3041,2.2042,2.1533,2.1497,2.1578,2.1578,2.1497,2.1567,2.1571,2.1571,2.1284,2.1221,2.1221,2.1221,2.1221,2.1221,2.1221,2.1221,2.1221,2.1221,2.1221,2.1158,2.0892,2.0828,2.0764,2.0237,1.9857,1.9584,1.8998,1.8607,1.8347,1.8076,1.8008,1.8008,1.8008,1.8008,1.8008,1.8008,1.8008,1.8008,1.8008,1.8184,1.835,1.835,1.835,1.8291,1.8096,1.7686,1.7579,1.8165,1.7656,1.7593,1.8676,1.8294,1.8092,1.8562,1.843,1.8365,1.8431,1.8612,1.8634,1.8455,1.8021,1.7841,1.8005,1.7209,1.6792,1.7024,1.639,1.6006,1.5762,1.6172,1.604,1.5453,1.5533,1.5289,1.4748,1.4434,1.4083,1.37,1.3571,1.3511,1.3511,1.3511,1.3511,1.3528,1.3742,1.3939,1.4144,1.4547,1.4812,1.495,2.7082,2.6453,2.5771,2.5114,2.4345,2.3665,2.3193,2.3481,2.3872,2.4145,2.4291,2.4494,2.4574,2.4191,2.3909,2.3909,2.3818,2.3593,2.315,2.3519,2.3824,2.397,2.3521,2.2949,2.2377,2.1536,2.1194,2.13,2.1442,2.1453,2.1289,2.133,2.135,2.1339,2.1138,2.1031,2.1031,2.1031,2.1031,2.1019,2.0903,2.0839,2.0839,2.0839,2.0903,2.1031,2.1031,2.1094,2.1158,2.07,2.0495,2.0237,1.9462,1.8998,1.8741,1.8279,1.8144,1.8154,1.8154,1.8232,1.8311,1.8311,1.8311,1.8311,1.8311,1.8555,1.8789,1.8789,1.8789,1.8789,1.8789,1.8262,1.8093,1.891,1.8434,1.8268,1.902,1.877,1.8639,1.8843,1.8795,1.8877,1.9256,1.9324,1.9108,1.8636,1.8281,1.7958,1.7549,1.7217,1.7031,1.7031,1.6934,1.667,1.6221,1.6416,1.623,1.5656,1.5679,1.5311,1.4577,1.4524,1.417,1.3639,1.3545,1.3562,1.3648,1.3648,1.3648,1.3682,1.4076,1.4281,1.4427,1.5,1.5274,1.5256,2.6622,2.5936,2.5267,2.4602,2.3608,2.2968,2.3104,2.2803,2.3028,2.4018,2.3821,2.3764,2.432,2.3583,2.3107,2.3107,2.2723,2.2478,2.2478,2.2478,2.2777,2.3372,2.2967,2.2287,2.123,2.1096,2.0609,1.9777,2.0162,2.0162,1.9777,1.9745,1.979,1.979,2.0259,2.0495,2.0495,2.0495,2.0495,2.0431,1.9922,1.9736,1.9736,1.9736,2.0053,2.0495,2.0495,2.0764,2.1158,2.1158,2.0828,2.0366,2.0302,1.9584,1.8808,1.8741,1.8626,1.8594,1.8594,1.8887,1.9189,1.9189,1.9189,1.9189,1.9189,1.9219,1.9238,1.9238,1.9238,1.9238,1.9238,1.9189,1.9239,1.9342,1.9231,1.9059,1.8875,1.9046,1.9053,1.8654,1.8975,1.9253,1.9264,1.9311,1.9088,1.8637,1.8587,1.8368,1.7969,1.793,1.792,1.792,1.7539,1.7129,1.6689,1.7471,1.7272,1.6119,1.6216,1.5669,1.4577,1.4273,1.4076,1.4033,1.3665,1.3716,1.405,1.405,1.405,1.4093,1.4487,1.4846,1.5137,1.5197,1.5446,1.5621,2.5753,2.474,2.3906,2.422,2.3375,2.2715,2.3047,2.2998,2.3046,2.3454,2.3438,2.3492,2.3732,2.358,2.3324,2.3037,2.2847,2.2471,2.1904,2.1842,2.1881,2.1901,2.1745,2.1461,2.1069,2.0708,2.0477,2.0317,2.0565,2.0418,1.9972,2.0022,2.002,2.0009,1.992,1.9922,1.9922,1.9922,1.9922,1.9857,1.9671,1.9605,1.9605,1.9605,1.9736,1.9922,1.9922,2.0053,2.0194,2.0194,2.0064,1.9857,1.9528,1.9131,1.8792,1.8734,1.8842,1.9092,1.9355,1.9355,1.9287,1.9287,1.9287,1.9287,1.9287,1.9482,1.9678,1.9678,1.9678,1.9678,1.9678,1.9463,1.9525,2.0195,1.9705,1.9503,1.9951,1.9595,1.9357,1.9394,1.957,1.9814,2.0099,2.0134,1.9889,1.9443,1.9216,1.8862,1.8418,1.8154,1.8008,1.8008,1.7658,1.7369,1.7139,1.7461,1.7196,1.629,1.6296,1.5797,1.4976,1.4853,1.4667,1.4453,1.4298,1.4324,1.4461,1.4461,1.4461,1.4495,1.4863,1.5095,1.524,1.5489,1.5677,1.5655,2.4864,2.3881,2.3041,2.3504,2.2762,2.234,2.2656,2.2744,2.2793,2.292,2.3137,2.3283,2.3283,2.3308,2.3154,2.2835,2.2546,2.2111,2.1426,2.1312,2.1084,2.0873,2.1108,2.1066,2.0705,2.0331,2.0184,2.0363,2.0278,2.0062,1.9697,1.9599,1.9588,1.9578,1.941,1.9341,1.9341,1.9341,1.9341,1.9341,1.9142,1.9075,1.9075,1.9075,1.9208,1.9341,1.9198,1.9264,1.9396,1.932,1.9253,1.9187,1.8798,1.8596,1.8436,1.845,1.8682,1.9027,1.9583,1.9525,1.9389,1.9613,1.9687,1.9687,1.9687,2.0019,2.0283,2.0146,2.0234,2.0332,2.0332,2.0098,2.0141,2.0797,2.05,2.0249,2.0702,2.0282,1.9951,2.0098,2.0117,2.0234,2.0537,2.0566,2.0332,1.9775,1.9551,1.9268,1.8857,1.8434,1.8141,1.8006,1.7511,1.7245,1.7245,1.7245,1.69,1.6301,1.6147,1.5736,1.5215,1.501,1.4943,1.4846,1.4735,1.4744,1.4855,1.4855,1.4855,1.4889,1.5257,1.5403,1.5429,1.5703,1.5805,1.5726,2.387,2.3392,2.284,2.2234,2.1808,2.1585,2.184,2.1885,2.2041,2.2461,2.2881,2.3135,2.3135,2.2764,2.251,2.251,2.1728,2.123,2.123,2.081,2.0609,2.0677,2.1293,2.1094,2.0083,2.0073,1.9857,1.9287,1.8848,1.8562,1.8623,1.8213,1.8008,1.8008,1.8539,1.8808,1.8808,1.8808,1.8808,1.8741,1.8212,1.8008,1.8008,1.8008,1.8347,1.8741,1.8317,1.8509,1.89,1.8603,1.8459,1.8469,1.8499,1.8114,1.7741,1.799,1.8082,1.8265,1.9081,1.9301,1.9539,2.0401,2.0566,2.0566,2.0566,2.0908,2.1103,2.0654,2.0928,2.116,2.116,2.124,2.124,2.124,2.1602,2.1582,2.0693,2.0957,2.1074,2.0625,2.0566,2.0566,2.0566,2.0566,2.0236,1.9389,1.9652,1.9713,1.9307,1.8941,1.8531,1.8095,1.7117,1.6723,1.6917,1.6908,1.6691,1.6272,1.5754,1.5418,1.5146,1.4607,1.4676,1.5197,1.4846,1.4898,1.5215,1.5215,1.5215,1.5257,1.5651,1.5797,1.5805,1.5805,1.5805,1.5655,2.2539,2.2168,2.179,2.1957,2.1826,2.1826,2.1928,2.2139,2.2373,2.249,2.2881,2.3135,2.3135,2.3027,2.2715,2.2129,2.1846,2.1426,2.081,2.0352,2.0105,2.0153,2.0332,2.0292,1.995,1.9653,1.957,1.9727,1.8994,1.8562,1.8623,1.8213,1.8008,1.8008,1.8144,1.8212,1.8212,1.8008,1.7872,1.7872,1.7392,1.7254,1.7254,1.7254,1.7314,1.7451,1.7314,1.7373,1.751,1.7432,1.7364,1.7411,1.7703,1.7862,1.7925,1.8092,1.8293,1.8577,1.8815,1.9091,1.9381,1.9618,1.9696,1.9696,1.9696,1.9799,1.9846,1.9724,2.0042,2.0261,2.0261,2.0813,2.1167,2.1167,2.1622,2.1797,2.1533,2.1347,2.1014,2.0675,2.0537,2.0413,2.0127,2.0098,2.0022,1.9763,1.9317,1.8873,1.8406,1.8256,1.8155,1.8009,1.7483,1.7051,1.6633,1.6368,1.6097,1.5754,1.5604,1.513,1.4403,1.4269,1.4474,1.4952,1.4511,1.4808,1.5625,1.518,1.4961,1.4969,1.5084,1.4919,1.4641,1.4641,1.4641,1.4641,2.196,2.1441,2.1055,2.1318,2.1367,2.1367,2.1367,2.1728,2.207,2.2246,2.2627,2.2959,2.3125,2.2988,2.26,2.1916,2.1476,2.0914,2.0371,2.0091,1.9869,1.9922,1.9912,1.9834,1.9668,1.9248,1.9238,1.9668,1.8809,1.8467,1.8623,1.8213,1.8008,1.8008,1.8008,1.8008,1.8008,1.7666,1.747,1.747,1.7047,1.6908,1.6908,1.6908,1.6908,1.6908,1.67,1.663,1.6648,1.6669,1.6821,1.6919,1.7151,1.7391,1.7614,1.7832,1.8056,1.8279,1.8362,1.8576,1.8834,1.8834,1.9063,1.9301,1.9301,1.9549,1.9742,1.9577,1.9998,2.0393,2.0393,2.0838,2.1221,2.1399,2.1608,2.1731,2.1644,2.1353,2.1016,2.0604,2.0466,2.0307,1.9916,1.9878,1.9804,1.9636,1.9049,1.8674,1.8552,1.8321,1.8213,1.8046,1.743,1.6979,1.6674,1.6193,1.5738,1.5235,1.4879,1.4603,1.4364,1.4096,1.4251,1.4867,1.4527,1.4784,1.5275,1.5039,1.476,1.4553,1.4553,1.441,1.4129,1.4129,1.4141,1.4233,2.1885,2.124,2.0664,2.0635,2.0625,2.0605,2.0576,2.0977,2.1435,2.1836,2.2285,2.2705,2.3047,2.2744,2.231,2.1798,2.0633,1.9947,1.9882,1.9835,1.985,1.9798,1.9824,1.96,1.9189,1.8747,1.8848,1.9287,1.8428,1.8223,1.8623,1.8213,1.8008,1.8008,1.8008,1.8008,1.8008,1.7598,1.747,1.7401,1.6978,1.6769,1.6769,1.6769,1.6788,1.6815,1.643,1.6298,1.6307,1.6378,1.6627,1.697,1.697,1.6995,1.7072,1.7381,1.7492,1.7586,1.7903,1.8014,1.804,1.804,1.8594,1.9143,1.9143,1.9743,2.0189,1.9834,2.0389,2.0934,2.0934,2.1049,2.1195,2.1587,2.1642,2.1603,2.1218,2.1163,2.0921,2.0434,2.0352,2.018,1.988,1.9852,1.9697,1.9332,1.8913,1.8834,1.9234,1.8878,1.8444,1.8082,1.7195,1.6801,1.6945,1.6343,1.569,1.4887,1.4136,1.4074,1.4724,1.3906,1.4004,1.4857,1.4762,1.4676,1.4568,1.4767,1.4568,1.4076,1.4076,1.4076,1.4003,1.4003,1.4192,1.4328,2.1885,2.1728,2.1494,2.1152,2.1094,2.0967,2.0625,2.123,2.1777,2.1875,2.2539,2.291,2.2676,2.2568,2.2068,2.098,2.0046,1.9473,1.9469,1.9406,1.9279,1.8946,1.8885,1.8579,1.7884,1.8375,1.8848,1.9287,1.8428,1.8223,1.8623,1.8213,1.8008,1.8008,1.8008,1.8008,1.794,1.7323,1.7047,1.6978,1.6289,1.6008,1.6008,1.6008,1.6182,1.639,1.6042,1.6048,1.6297,1.631,1.679,1.7346,1.7346,1.7552,1.7749,1.7535,1.768,1.7869,1.7646,1.7809,1.804,1.804,1.8112,1.8273,1.8273,1.8629,1.9016,1.8937,1.9462,2.0,2.0,2.058,2.1078,2.1168,2.1454,2.1704,2.1612,2.123,2.0899,2.0428,2.0116,1.9778,1.9377,1.9333,1.9277,1.9256,1.8821,1.865,1.8726,1.8413,1.8086,1.7992,1.7831,1.7468,1.6975,1.661,1.6022,1.5064,1.4842,1.4384,1.3588,1.3376,1.3682,1.4279,1.3761,1.4036,1.4781,1.4414,1.4231,1.4084,1.4084,1.3775,1.3402,1.3402,1.3443,1.3485,2.2148,2.2021,2.1816,2.1582,2.1543,2.1396,2.0947,2.1279,2.1582,2.1582,2.1963,2.222,2.2149,2.1803,2.1056,1.9777,1.903,1.8754,1.9002,1.9049,1.8988,1.8958,1.8944,1.8764,1.835,1.8562,1.8581,1.8469,1.8148,1.8218,1.8633,1.8408,1.8311,1.8301,1.79,1.7735,1.7735,1.6968,1.6621,1.656,1.6008,1.5908,1.6045,1.5865,1.5884,1.5846,1.548,1.5551,1.5729,1.5899,1.6554,1.7334,1.7334,1.7629,1.7997,1.78,1.7877,1.7997,1.7792,1.8014,1.8254,1.8083,1.8305,1.8485,1.8126,1.8468,1.887,1.887,1.9478,2.0001,2.0001,2.0335,2.0645,2.0645,2.0826,2.1015,2.1015,2.0826,2.0567,2.0375,2.0183,1.9905,1.9512,1.9312,1.9158,1.9169,1.9028,1.8783,1.8575,1.8371,1.8189,1.8049,1.804,1.7789,1.7456,1.7346,1.6677,1.5538,1.5061,1.4438,1.3621,1.348,1.3655,1.4089,1.3798,1.3908,1.4258,1.4116,1.3902,1.3673,1.3673,1.3444,1.3213,1.3213,1.3213,1.3174,2.2539,2.2275,2.1973,2.1894,2.1826,2.1621,2.1031,2.1021,2.107,2.0989,2.1047,2.1173,2.1457,2.0761,1.9848,1.8807,1.8282,1.8201,1.8531,1.87,1.8831,1.904,1.9174,1.9137,1.9004,1.8646,1.8234,1.7688,1.7948,1.8214,1.8421,1.8498,1.8489,1.8411,1.7786,1.7543,1.753,1.6756,1.6369,1.6378,1.5959,1.5986,1.6164,1.5715,1.5576,1.5434,1.5001,1.4942,1.5202,1.5397,1.6194,1.7049,1.7049,1.7465,1.804,1.804,1.7951,1.7878,1.7951,1.8172,1.826,1.8113,1.8522,1.8752,1.811,1.8684,1.9273,1.9273,1.9812,2.0292,2.0292,2.0292,2.0292,2.0292,2.0292,2.0283,2.0167,2.0184,2.0283,2.0167,2.0133,2.0078,1.9769,1.9461,1.9299,1.9358,1.9307,1.9153,1.8786,1.8709,1.853,1.8215,1.8206,1.8155,1.8134,1.8134,1.7548,1.6306,1.536,1.4641,1.4155,1.3961,1.3975,1.4135,1.4204,1.4019,1.3701,1.401,1.3833,1.336,1.336,1.336,1.336,1.328,1.3113,1.3024,2.2969,2.2715,2.2314,2.1953,2.1572,2.1012,2.0172,2.0419,2.0576,2.0242,2.0458,2.0588,2.0264,1.9435,1.8914,1.87,1.8282,1.804,1.8121,1.8451,1.8514,1.8166,1.8552,1.8455,1.7755,1.7671,1.7924,1.8559,1.8221,1.7917,1.7648,1.7926,1.7908,1.7639,1.7512,1.7687,1.7843,1.7126,1.6838,1.6793,1.6163,1.5756,1.5438,1.4872,1.5034,1.5426,1.4781,1.4919,1.5427,1.5473,1.6186,1.7041,1.7041,1.7456,1.804,1.804,1.7627,1.7302,1.787,1.7652,1.7425,1.8269,1.8087,1.779,1.8018,1.8916,1.9667,1.9667,2.0001,2.0292,2.0292,2.0292,2.0292,2.0292,2.0292,2.0068,1.9406,1.9943,2.0068,1.9406,1.9583,1.9795,1.9752,1.9692,1.9795,2.0121,1.9847,1.9575,1.9592,1.9256,1.9067,1.9022,1.9031,1.8871,1.8519,1.8511,1.8179,1.7427,1.6607,1.5597,1.4469,1.4689,1.4669,1.4456,1.4462,1.4307,1.4028,1.4065,1.4052,1.3968,1.3968,1.3968,1.3968,1.3542,1.2952,1.2457,2.1693,2.1779,2.1693,2.1258,2.1155,2.0884,2.0065,2.0121,2.0077,1.9684,1.9723,1.977,1.9579,1.9018,1.8434,1.7895,1.7627,1.7383,1.696,1.7123,1.7293,1.7279,1.7845,1.8083,1.7978,1.7761,1.777,1.816,1.8091,1.7895,1.7504,1.7908,1.788,1.7495,1.7279,1.7071,1.6789,1.647,1.6113,1.5737,1.5449,1.5381,1.5405,1.4904,1.4814,1.4874,1.4202,1.4207,1.4476,1.4646,1.5292,1.5899,1.5899,1.6386,1.696,1.696,1.6714,1.6632,1.6878,1.7,1.7125,1.7323,1.7589,1.7846,1.7807,1.8335,1.8723,1.8514,1.8755,1.908,1.9115,1.9055,1.9096,1.9096,1.9096,1.8988,1.8656,1.888,1.8988,1.8656,1.8744,1.8961,1.9414,1.9414,1.9661,2.0283,2.0146,1.9928,1.9673,1.9542,1.9417,1.9238,1.8825,1.8534,1.8319,1.8311,1.7969,1.7282,1.7113,1.6492,1.5374,1.5075,1.4897,1.477,1.477,1.4603,1.4329,1.4329,1.4235,1.4088,1.4088,1.4088,1.4004,1.3307,1.2796,1.246]},{"header":{"parameterUnit":"m.s-1","parameterCategory":1,"la1":30.6,"la2":28.766,"lo1":-90.7593,"lo2":-88.6598,"dy":0.0162,"dx":0.0183,"nx":116,"ny":114,"refTime":"2023-06-08T12:00:00:Z","depth":0,"parameterNumber":3,"parameterNumberName":"V-component_of_WINDS"},"data":[0.0,0.0,0.0,0.0,0.0,0.0,0.0,0.0,0.0,0.0,0.0,0.0,0.0,0.0,0.0,0.0,0.0,0.0,0.0,0.0,0.0,0.0,0.0,0.0,0.0,0.0,0.0,0.0,0.0,0.0,0.0,0.0,0.0,0.0,0.0,0.0,0.0,0.0,0.0,0.0,0.0,0.0,0.0,0.0,0.0,0.0,0.0,0.0,0.0,0.0,0.0,0.0,0.0,0.0,0.0,0.0,0.0,0.0,0.0,0.0,0.0,0.0,0.0,0.0,0.0,0.0,0.0,0.0,0.0,0.0,0.0,0.0,0.0,0.0,0.0,0.0,0.0,0.0,0.0,0.0,0.0,0.0,0.0,0.0,0.0,0.0,0.0,0.0,0.0,0.0,0.0,0.0,0.0,0.0,0.0,0.0,0.0,0.0,0.0,0.0,0.0,0.0,0.0,0.0,0.0,0.0,0.0,0.0,0.0,0.0,0.0,0.0,0.0,0.0,0.0,0.0,0.0,0.0,0.0,0.0,0.0,0.0,0.0,0.0,0.0,0.0,0.0,0.0,0.0,0.0,0.0,0.0,0.0,0.0,0.0,0.0,0.0,0.0,0.0,0.0,0.0,0.0,0.0,0.0,0.0,0.0,0.0,0.0,0.0,0.0,0.0,0.0,0.0,0.0,0.0,0.0,0.0,0.0,0.0,0.0,0.0,0.0,0.0,0.0,0.0,0.0,0.0,0.0,0.0,0.0,0.0,0.0,0.0,0.0,0.0,0.0,0.0,0.0,0.0,0.0,0.0,0.0,0.0,0.0,0.0,0.0,0.0,0.0,0.0,0.0,0.0,0.0,0.0,0.0,0.0,0.0,0.0,0.0,0.0,0.0,0.0,0.0,0.0,0.0,0.0,0.0,0.0,0.0,0.0,0.0,0.0,0.0,0.0,0.0,0.0,0.0,0.0,0.0,0.0,0.0,0.0,0.0,0.0,0.0,0.0,0.0,0.0,0.0,0.0,0.0,0.0,0.0,0.0,0.0,0.0,0.0,0.0,0.0,0.0,0.0,0.0,0.0,0.0,0.0,0.0,0.0,0.0,0.0,0.0,0.0,0.0,0.0,0.0,0.0,0.0,0.0,0.0,0.0,0.0,0.0,0.0,0.0,0.0,0.0,0.0,0.0,0.0,0.0,0.0,0.0,0.0,0.0,0.0,0.0,0.0,0.0,0.0,0.0,0.0,0.0,0.0,0.0,0.0,0.0,0.0,0.0,0.0,0.0,0.0,0.0,0.0,0.0,0.0,0.0,0.0,0.0,0.0,0.0,0.0,0.0,0.0,0.0,0.0,0.0,0.0,0.0,0.0,0.0,0.0,0.0,0.0,0.0,0.0,0.0,0.0,0.0,0.0,0.0,0.0,0.0,0.0,0.0,0.0,0.0,0.0,0.0,0.0,0.0,0.0,0.0,0.0,0.0,0.0,0.0,0.0,0.0,0.0,0.0,0.0,0.0,0.0,0.0,0.0,0.0,0.0,0.0,0.0,0.0,0.0,0.0,0.0,0.0,0.0,0.0,0.0,0.0,0.0,0.0,0.0,0.0,0.0,0.0,0.0,0.0,0.0,0.0,0.0,0.0,0.0,0.0,0.0,0.0,0.0,0.0,0.0,0.0,0.0,0.0,0.0,0.0,0.0,0.0,0.0,0.0,0.0,0.0,0.0,0.0,0.0,0.0,0.0,0.0,0.0,0.0,0.0,0.0,0.0,0.0,0.0,0.0,0.0,0.0,0.0,0.0,0.0,0.0,0.0,0.0,0.0,0.0,0.0,0.0,0.0,0.0,0.0,0.0,0.0,0.0,0.0,0.0,0.0,0.0,0.0,0.0,0.0,0.0,0.0,0.0,0.0,0.0,0.0,0.0,0.0,0.0,0.0,0.0,0.0,0.0,0.0,0.0,0.0,0.0,0.0,0.0,0.0,0.0,0.0,0.0,0.0,0.0,0.0,0.0,0.0,0.0,0.0,0.0,0.0,0.0,0.0,0.0,0.0,0.0,0.0,0.0,0.0,0.0,0.0,0.0,0.0,0.0,0.0,0.0,0.0,0.0,0.0,0.0,0.0,0.0,0.0,0.0,0.0,0.0,0.0,0.0,0.0,0.0,0.0,0.0,0.0,0.0,0.0,0.0,0.0,0.0,0.0,0.0,0.0,0.0,0.0,0.0,0.0,0.0,0.0,0.0,0.0,0.0,0.0,0.0,0.0,0.0,0.0,0.0,0.0,0.0,0.0,0.0,0.0,0.0,0.0,0.0,0.0,0.0,0.0,0.0,0.0,0.0,0.0,0.0,0.0,0.0,0.0,0.0,0.0,0.0,0.0,0.0,0.0,0.0,0.0,0.0,0.0,0.0,0.0,0.0,0.0,0.0,0.0,0.0,0.0,0.0,0.0,0.0,0.0,0.0,0.0,0.0,0.0,0.0,0.0,0.0,0.0,0.0,0.0,0.0,0.0,0.0,0.0,0.0,0.0,0.0,0.0,0.0,0.0,0.0,0.0,0.0,0.0,0.0,0.0,0.0,0.0,0.0,0.0,0.0,0.0,0.0,0.0,0.0,0.0,0.0,0.0,0.0,0.0,0.0,0.0,0.0,0.0,0.0,0.0,0.0,0.0,0.0,0.0,0.0,0.0,0.0,0.0,0.0,0.0,0.0,0.0,0.0,0.0,0.0,0.0,0.0,0.0,0.0,0.0,0.0,0.0,0.0,0.0,0.0,0.0,0.0,0.0,0.0,0.0,0.0,0.0,0.0,0.0,0.0,0.0,0.0,0.0,0.0,0.0,0.0,0.0,0.0,0.0,0.0,0.0,0.0,0.0,0.0,0.0,0.0,0.0,0.0,0.0,0.0,0.0,0.0,0.0,0.0,0.0,0.0,0.0,0.0,0.0,0.0,0.0,0.0,0.0,0.0,0.0,0.0,0.0,0.0,0.0,0.0,0.0,0.0,0.0,0.0,0.0,0.0,0.0,0.0,0.0,0.0,0.0,0.0,0.0,0.0,0.0,0.0,0.0,0.0,0.0,0.0,0.0,0.0,0.0,0.0,0.0,0.0,0.0,0.0,0.0,0.0,0.0,0.0,0.0,0.0,0.0,0.0,0.0,0.0,0.0,0.0,0.0,0.0,0.0,0.0,0.0,0.0,0.0,0.0,0.0,0.0,0.0,0.0,0.0,0.0,0.0,0.0,0.0,0.0,0.0,0.0,0.0,0.0,0.0,0.0,0.0,0.0,0.0,0.0,0.0,0.0,0.0,0.0,0.0,0.0,0.0,0.0,0.0,0.0,0.0,0.0,0.0,0.0,0.0,0.0,0.0,0.0,0.0,0.0,0.0,0.0,0.0,0.0,0.0,0.0,0.0,0.0,0.0,0.0,0.0,0.0,0.0,0.0,0.0,0.0,0.0,0.0,0.0,0.0,0.0,0.0,0.0,0.0,0.0,0.0,0.0,0.0,0.0,0.0,0.0,0.0,0.0,0.0,0.0,0.0,0.0,0.0,0.0,0.0,0.0,0.0,0.0,0.0,0.0,0.0,0.0,0.0,0.0,0.0,0.0,0.0,0.0,0.0,0.0,0.0,0.0,0.0,0.0,0.0,0.0,0.0,0.0,0.0,0.0,0.0,0.0,0.0,0.0,0.0,0.0,0.0,0.0,0.0,0.0,0.0,0.0,0.0,0.0,0.0,0.0,0.0,0.0,0.0,0.0,0.0,0.0,0.0,0.0,0.0,0.0,0.0,0.0,0.0,0.0,0.0,0.0,0.0,0.0,0.0,0.0,0.0,0.0,0.0,0.0,0.0,0.0,0.0,0.0,0.0,0.0,0.0,0.0,0.0,0.0,0.0,0.0,0.0,0.0,0.0,0.0,0.0,0.0,0.0,0.0,0.0,0.0,0.0,0.0,0.0,0.0,0.0,0.0,0.0,0.0,0.0,0.0,0.0,0.0,0.0,0.0,0.0,0.0,0.0,0.0,0.0,0.0,0.0,0.0,0.0,0.0,0.0,0.0,0.0,0.0,0.0,0.0,0.0,0.0,0.0,0.0,0.0,0.0,0.0,0.0,0.0,0.0,0.0,0.0,0.0,0.0,0.0,0.0,0.0,0.0,0.0,0.0,0.0,0.0,0.0,0.0,0.0,0.0,0.0,0.0,0.0,0.0,0.0,0.0,0.0,0.0,0.0,0.0,0.0,0.0,0.0,0.0,0.0,0.0,0.0,0.0,0.0,0.0,0.0,0.0,0.0,0.0,0.0,0.0,0.0,0.0,0.0,0.0,0.0,0.0,0.0,0.0,0.0,0.0,0.0,0.0,0.0,0.0,0.0,0.0,0.0,0.0,0.0,0.0,0.0,0.0,0.0,0.0,0.0,0.0,0.0,0.0,0.0,0.0,0.0,0.0,0.0,0.0,0.0,0.0,0.0,0.0,0.0,0.0,0.0,0.0,0.0,0.0,0.0,0.0,0.0,0.0,0.0,0.0,0.0,0.0,0.0,0.0,0.0,0.0,0.0,0.0,0.0,0.0,0.0,0.0,0.0,0.0,0.0,0.0,0.0,0.0,0.0,0.0,0.0,0.0,0.0,0.0,0.0,0.0,0.0,0.0,0.0,0.0,0.0,0.0,0.0,0.0,0.0,0.0,0.0,0.0,0.0,0.0,0.0,0.0,0.0,0.0,0.0,0.0,0.0,0.0,0.0,0.0,0.0,0.0,0.0,0.0,0.0,0.0,0.0,0.0,0.0,0.0,0.0,0.0,0.0,0.0,0.0,0.0,0.0,0.0,0.0,0.0,0.0,0.0,0.0,0.0,0.0,0.0,0.0,0.0,0.0,0.0,0.0,0.0,0.0,0.0,0.0,0.0,0.0,0.0,0.0,0.0,0.0,0.0,0.0,0.0,0.0,0.0,0.0,0.0,0.0,0.0,0.0,0.0,0.0,0.0,0.0,0.0,0.0,0.0,0.0,0.0,0.0,0.0,0.0,0.0,0.0,0.0,0.0,0.0,0.0,0.0,0.0,0.0,0.0,0.0,0.0,0.0,0.0,0.0,0.0,0.0,0.0,0.0,0.0,0.0,0.0,0.0,0.0,0.0,0.0,0.0,0.0,0.0,0.0,0.0,0.0,0.0,0.0,0.0,0.0,0.0,0.0,0.0,0.0,0.0,0.0,0.0,0.0,0.0,0.0,0.0,0.0,0.0,0.0,0.0,0.0,0.0,0.0,0.0,0.0,0.0,0.0,0.0,0.0,0.0,0.0,0.0,0.0,0.0,0.0,0.0,0.0,0.0,0.0,0.0,0.0,0.0,0.0,0.0,0.0,0.0,0.0,0.0,0.0,0.0,0.0,0.0,0.0,0.0,0.0,0.0,0.0,0.0,0.0,0.0,0.0,0.0,0.0,0.0,0.0,0.0,0.0,0.0,0.0,0.0,0.0,0.0,0.0,0.0,0.0,0.0,0.0,0.0,0.0,0.0,0.0,0.0,0.0,0.0,0.0,0.0,0.0,0.0,0.0,0.0,0.0,0.0,0.0,0.0,0.0,0.0,0.0,0.0,0.0,0.0,0.0,0.0,0.0,0.0,0.0,0.0,0.0,0.0,0.0,0.0,0.0,0.0,0.0,0.0,0.0,0.0,0.0,0.0,0.0,0.0,0.0,0.0,0.0,0.0,0.0,0.0,0.0,0.0,0.0,0.0,0.0,0.0,0.0,0.0,0.0,0.0,0.0,0.0,0.0,0.0,0.0,0.0,0.0,0.0,0.0,0.0,0.0,0.0,0.0,0.0,0.0,0.0,0.0,0.0,0.0,0.0,0.0,0.0,0.0,0.0,0.0,0.0,0.0,0.0,0.0,0.0,0.0,0.0,0.0,0.0,0.0,0.0,0.0,0.0,0.0,0.0,0.0,0.0,0.0,0.0,0.0,0.0,0.0,0.0,0.0,0.0,0.0,0.0,0.0,0.0,0.0,0.0,0.0,0.0,0.0,0.0,0.0,0.0,0.0,0.0,0.0,0.0,0.0,0.0,0.0,0.0,0.0,0.0,0.0,0.0,0.0,0.0,0.0,0.0,0.0,-1.1183,0.0,0.0,0.0,0.0,0.0,0.0,0.0,0.0,0.0,0.0,0.0,0.0,0.0,0.0,0.0,0.0,0.0,0.0,0.0,0.0,0.0,0.0,0.0,0.0,0.0,0.0,0.0,0.0,0.0,0.0,0.0,0.0,0.0,0.0,0.0,0.0,0.0,0.0,0.0,-0.8682,-0.8976,-0.9671,-1.03,-0.9807,-0.8355,0.0,0.0,0.0,0.0,0.0,0.0,0.0,0.0,0.0,0.0,0.0,0.0,0.0,0.0,0.0,0.0,0.0,0.0,0.0,0.0,0.0,0.0,0.0,0.0,0.0,0.0,0.0,0.0,0.0,0.0,0.0,0.0,0.0,0.0,0.0,0.0,0.0,0.0,0.0,0.0,0.0,0.0,0.0,0.0,0.0,0.0,0.0,0.0,0.0,0.0,0.0,0.0,0.0,0.0,0.0,0.0,0.0,0.0,0.0,0.0,0.0,0.0,0.0,0.0,0.0,0.0,0.0,0.0,0.0,0.0,0.0,-1.1378,0.0,0.0,0.0,0.0,0.0,0.0,0.0,0.0,0.0,0.0,0.0,0.0,0.0,0.0,0.0,0.0,0.0,0.0,0.0,0.0,0.0,0.0,0.0,-1.253,-1.2107,-1.1869,-1.0879,-1.0226,0.0,0.0,0.0,0.0,0.0,0.0,0.0,-0.8992,-0.9162,-0.9871,-0.9684,-1.0066,-1.103,-1.1756,-1.1111,-0.9282,-0.7686,0.0,0.0,0.0,0.0,0.0,0.0,0.0,0.0,0.0,0.0,0.0,0.0,0.0,0.0,0.0,0.0,0.0,0.0,0.0,0.0,0.0,0.0,0.0,0.0,0.0,0.0,0.0,0.0,0.0,0.0,0.0,0.0,0.0,0.0,0.0,0.0,0.0,0.0,0.0,0.0,0.0,0.0,0.0,0.0,0.0,0.0,0.0,0.0,0.0,0.0,0.0,0.0,0.0,0.0,0.0,0.0,0.0,0.0,0.0,0.0,0.0,0.0,0.0,-1.3552,-1.3726,-1.3617,-1.4244,-1.4198,-1.3579,-1.3188,-1.3003,-1.2824,-1.1174,0.0,0.0,0.0,0.0,0.0,0.0,0.0,0.0,0.0,0.0,0.0,0.0,0.0,0.0,0.0,0.0,0.0,0.0,0.0,0.0,0.0,-1.2759,-1.2471,-1.2096,-1.1527,-1.1073,-1.0715,0.0,0.0,0.0,0.0,0.0,-0.9313,-0.9035,-0.9042,-0.9403,-1.1347,-1.2566,-1.3127,-1.3462,-1.3107,-1.2148,-0.9853,-0.8207,-0.7107,0.0,0.0,0.0,0.0,0.0,0.0,0.0,0.0,0.0,0.0,0.0,0.0,0.0,0.0,0.0,0.0,0.0,0.0,0.0,0.0,0.0,0.0,0.0,0.0,0.0,0.0,0.0,0.0,0.0,0.0,0.0,0.0,0.0,0.0,0.0,0.0,0.0,0.0,0.0,0.0,0.0,-1.1164,-1.1667,0.0,0.0,0.0,0.0,0.0,0.0,0.0,0.0,0.0,0.0,0.0,0.0,0.0,-1.4258,-1.5302,-1.5596,-1.6061,-1.6724,-1.6798,-1.6564,-1.6065,-1.6663,-1.6885,-1.6778,-1.5892,0.0,-1.3476,-1.2837,0.0,0.0,0.0,0.0,0.0,0.0,0.0,0.0,0.0,0.0,0.0,0.0,0.0,0.0,0.0,0.0,0.0,0.0,0.0,0.0,0.0,-1.3266,-1.3398,-1.3138,-1.3574,-1.3298,-1.1954,-1.1865,0.0,0.0,0.0,-0.9807,-0.996,-0.9664,-0.9982,-1.0921,-1.355,-1.4634,-1.4315,-1.5189,-1.5069,-1.4023,-1.2659,-1.086,-0.8799,-0.8324,0.0,0.0,0.0,0.0,0.0,0.0,0.0,0.0,0.0,0.0,0.0,0.0,0.0,0.0,0.0,0.0,0.0,0.0,0.0,0.0,0.0,0.0,0.0,0.0,0.0,0.0,0.0,0.0,0.0,0.0,0.0,0.0,0.0,0.0,0.0,0.0,0.0,0.0,0.0,-1.1497,-1.2098,-1.2445,-1.2111,-1.1711,0.0,0.0,0.0,0.0,0.0,0.0,0.0,0.0,0.0,-1.5262,-1.504,-1.5295,-1.6029,-1.5998,-1.6172,-1.6485,-1.6967,-1.6895,-1.6492,-1.7402,-1.7607,-1.717,-1.7039,-1.6515,-1.573,-1.4416,-1.4068,-1.4238,0.0,0.0,0.0,0.0,-1.3693,-1.4642,0.0,0.0,0.0,0.0,0.0,0.0,0.0,0.0,0.0,0.0,0.0,0.0,-1.3659,-1.4251,-1.4704,-1.4898,-1.538,-1.4989,-1.3396,-1.3049,-1.2213,0.0,-1.0392,-1.0375,-1.0509,-1.0738,-1.156,-1.2989,-1.5561,-1.646,-1.5802,-1.7041,-1.7066,-1.6062,-1.5724,-1.3761,-1.0641,-1.0063,-0.8873,-0.7328,0.0,0.0,0.0,0.0,0.0,0.0,0.0,0.0,0.0,0.0,0.0,0.0,0.0,0.0,0.0,0.0,0.0,0.0,0.0,0.0,0.0,0.0,0.0,0.0,0.0,0.0,0.0,0.0,0.0,0.0,0.0,0.0,0.0,0.0,0.0,0.0,0.0,-1.2406,-1.2976,-1.3253,-1.2829,-1.2484,0.0,0.0,0.0,0.0,0.0,0.0,-1.5108,-1.4959,-1.5541,-1.6949,-1.6356,-1.6265,-1.6776,-1.6506,-1.6462,-1.6706,-1.7396,-1.7588,-1.7319,-1.8216,-1.8253,-1.7759,-1.8264,-1.8425,-1.8253,-1.6221,-1.5436,-1.5452,-1.4703,-1.4275,-1.4083,-1.382,-1.4575,-1.5765,0.0,0.0,0.0,0.0,0.0,0.0,0.0,0.0,0.0,0.0,0.0,-1.4311,-1.5679,-1.5991,-1.6536,-1.7613,-1.6237,-1.5195,-1.4908,-1.2993,-1.1767,-1.1545,-1.1467,-1.1135,-1.0521,-1.2306,-1.3852,-1.5155,-1.7013,-1.7999,-1.8147,-1.9114,-1.9248,-1.8727,-1.8967,-1.661,-1.2361,-1.0833,-0.9869,-0.9199,-0.7692,0.0,0.0,0.0,0.0,0.0,0.0,0.0,0.0,0.0,0.0,0.0,0.0,0.0,0.0,0.0,0.0,0.0,0.0,0.0,0.0,0.0,0.0,0.0,0.0,0.0,0.0,0.0,0.0,0.0,0.0,0.0,0.0,0.0,0.0,0.0,0.0,0.0,0.0,-1.3465,-1.4224,0.0,0.0,0.0,0.0,-1.3521,-1.4373,-1.5292,-1.6197,-1.6681,-1.7328,-1.8106,-1.7629,-1.7666,-1.8298,-1.8277,-1.8537,-1.9049,-1.9516,-1.9707,-1.9608,-1.9672,-1.9723,-1.9697,-2.03,-2.0539,-2.036,-1.8302,-1.7472,-1.7388,-1.666,-1.618,-1.5981,-1.6219,-1.6576,-1.705,0.0,0.0,0.0,0.0,0.0,0.0,0.0,0.0,-1.3896,-1.3719,-1.4623,-1.5673,-1.673,-1.8002,-1.9111,-1.9946,-1.9376,-1.8589,-1.7702,-1.5863,-1.4424,-1.3513,-1.2444,-1.2208,-1.2871,-1.4438,-1.5933,-1.7349,-1.8772,-1.963,-1.9907,-2.0121,-2.0019,-1.9739,-1.9713,-1.8605,-1.6616,-1.4808,-1.2817,-1.0763,-0.9849,-0.8865,0.0,0.0,0.0,0.0,0.0,0.0,0.0,0.0,0.0,0.0,0.0,0.0,0.0,0.0,0.0,0.0,0.0,0.0,0.0,0.0,0.0,0.0,0.0,0.0,0.0,0.0,0.0,0.0,0.0,0.0,0.0,0.0,0.0,0.0,0.0,0.0,0.0,-1.4688,-1.4942,0.0,-1.5121,-1.5459,-1.5672,-1.5719,-1.7205,-1.8229,-1.8602,-1.9132,-1.9716,-2.03,-2.0154,-1.9907,-1.9499,-1.9179,-1.8998,-1.8832,-1.8955,-1.9048,-1.904,-1.9977,-2.0192,-1.999,-2.0832,-2.1192,-2.1154,-2.0445,-1.9574,-1.8602,-1.776,-1.7517,-1.768,-1.773,-1.8454,-1.9465,0.0,0.0,0.0,0.0,0.0,0.0,0.0,0.0,-1.4188,-1.4383,-1.5555,-1.6931,-1.8326,-1.9939,-2.1272,-2.2134,-2.1309,-2.0342,-1.9321,-1.7214,-1.5483,-1.4361,-1.3384,-1.3607,-1.5223,-1.6677,-1.7994,-1.917,-2.0457,-2.1162,-2.1303,-2.1201,-2.1076,-2.0926,-2.0703,-2.0225,-1.9495,-1.8151,-1.5868,-1.3055,-1.2079,-1.0503,-0.8689,0.0,0.0,0.0,0.0,0.0,0.0,0.0,0.0,0.0,0.0,0.0,0.0,0.0,0.0,0.0,0.0,0.0,0.0,0.0,0.0,0.0,0.0,0.0,0.0,0.0,0.0,0.0,0.0,0.0,0.0,0.0,0.0,0.0,0.0,0.0,-1.5382,-1.6196,-1.6409,-1.6763,-1.7319,-1.7583,-1.7815,-1.8166,-1.9552,-2.0378,-2.041,-2.0777,-2.1104,-2.1481,-2.1369,-2.0962,-2.0332,-2.005,-1.9702,-1.9355,-1.9542,-1.9586,-1.9582,-2.0548,-2.0819,-2.0557,-2.1406,-2.1769,-2.1782,-2.197,-2.1338,-2.0237,-1.9417,-1.9263,-1.9485,-1.9485,-2.0101,-2.1033,0.0,0.0,0.0,0.0,0.0,0.0,0.0,-1.459,-1.4707,-1.5514,-1.6483,-1.805,-2.0575,-2.1768,-2.2888,-2.4137,-2.1862,-2.0143,-1.9748,-1.6805,-1.4727,-1.4027,-1.4309,-1.5395,-1.7368,-1.8933,-2.0004,-2.059,-2.1967,-2.2512,-2.2362,-2.2445,-2.2471,-2.2473,-2.2207,-2.1671,-2.0887,-2.0482,-1.878,-1.6244,-1.4279,-1.2338,-1.0525,0.0,0.0,0.0,0.0,0.0,0.0,0.0,0.0,0.0,0.0,0.0,0.0,0.0,0.0,0.0,0.0,0.0,0.0,0.0,0.0,0.0,0.0,0.0,0.0,0.0,0.0,0.0,0.0,0.0,0.0,0.0,0.0,0.0,-1.42,-1.5993,-1.7407,-1.784,-1.8734,-1.9324,-1.9348,-1.9841,-2.0311,-2.0715,-2.123,-2.1543,-2.1543,-2.1543,-2.1543,-2.1543,-2.1124,-2.0885,-2.0827,-2.0926,-2.0914,-2.0803,-2.1338,-2.1559,-2.1493,-2.1506,-2.1518,-2.1568,-2.2108,-2.2347,-2.2397,-2.2865,-2.2824,-2.2284,-2.1732,-2.1506,-2.1506,-2.1506,-2.1531,-2.1675,0.0,0.0,0.0,0.0,0.0,0.0,0.0,-1.4738,-1.4893,-1.5913,-1.774,-1.9741,-2.1802,-2.3316,-2.453,-2.5437,-2.2878,-2.1528,-2.2171,-1.8497,-1.6238,-1.6083,-1.627,-1.7543,-2.006,-2.0127,-2.0927,-2.254,-2.2726,-2.3022,-2.3488,-2.3807,-2.4116,-2.4377,-2.4489,-2.4229,-2.3722,-2.2956,-2.1898,-2.0555,-1.7455,-1.4931,-1.2947,0.0,0.0,0.0,0.0,0.0,0.0,0.0,0.0,0.0,0.0,0.0,0.0,0.0,0.0,0.0,0.0,0.0,0.0,0.0,0.0,0.0,0.0,0.0,0.0,0.0,0.0,0.0,0.0,0.0,0.0,0.0,0.0,-1.6059,-1.6071,-1.7424,-1.879,-1.978,-2.02,-2.0568,-2.0925,-2.1141,-2.1284,-2.1354,-2.2138,-2.2508,-2.2151,-2.2449,-2.2686,-2.2686,-2.2555,-2.2318,-2.197,-2.1668,-2.1474,-2.1387,-2.1131,-2.1166,-2.1506,-2.1895,-2.2297,-2.2686,-2.2849,-2.315,-2.3514,-2.3238,-2.2977,-2.2862,-2.2297,-2.2083,-2.2083,-2.2083,-2.2334,-2.2698,0.0,0.0,0.0,0.0,0.0,0.0,0.0,-1.4881,-1.5225,-1.6632,-1.8593,-2.0534,-2.2412,-2.4041,-2.4987,-2.4998,-2.3221,-2.2018,-2.1832,-1.9048,-1.7606,-1.8099,-1.8648,-2.0119,-2.2604,-2.2588,-2.3289,-2.4758,-2.4668,-2.4855,-2.5266,-2.5316,-2.5435,-2.5601,-2.5689,-2.5604,-2.5374,-2.4929,-2.4351,-2.3568,-2.1472,-1.8629,-1.5522,-1.4687,-1.3697,-1.2494,-1.0965,-1.1154,-1.2002,-1.1,0.0,0.0,0.0,0.0,0.0,0.0,0.0,0.0,0.0,0.0,0.0,0.0,0.0,0.0,0.0,0.0,0.0,0.0,0.0,0.0,0.0,0.0,0.0,0.0,-1.7075,-1.8572,-1.9352,-1.9937,-2.0655,-2.1596,-2.2159,-2.248,-2.2591,-2.2664,-2.2664,-2.2603,-2.3131,-2.3379,-2.3071,-2.353,-2.3779,-2.3779,-2.3779,-2.3654,-2.3404,-2.3158,-2.2997,-2.2936,-2.2603,-2.2635,-2.2899,-2.3226,-2.354,-2.3779,-2.3779,-2.4029,-2.4318,-2.3979,-2.3779,0.0,0.0,0.0,0.0,0.0,-2.2802,-2.3078,0.0,0.0,0.0,0.0,0.0,0.0,0.0,-1.497,-1.5571,-1.7324,-1.8819,-2.0419,-2.2207,-2.3679,-2.4255,-2.3556,-2.2813,-2.1646,-1.9921,-1.8952,-1.8961,-2.0069,-2.1122,-2.2727,-2.4983,-2.5511,-2.6134,-2.6973,-2.7045,-2.7099,-2.7099,-2.6694,-2.6486,-2.6472,-2.6389,-2.6385,-2.6459,-2.6678,-2.6389,-2.5716,-2.5661,-2.2682,-1.8226,-1.7834,-1.6352,-1.4414,-1.3968,-1.3278,-1.2572,-1.2484,0.0,0.0,0.0,0.0,0.0,0.0,0.0,0.0,0.0,0.0,0.0,0.0,0.0,0.0,0.0,0.0,0.0,0.0,0.0,0.0,0.0,0.0,0.0,0.0,-1.9076,-2.1181,-2.3115,-2.2987,-2.2849,-2.3215,-2.4205,-2.4607,-2.4054,-2.4054,-2.4067,-2.4004,-2.4054,-2.4092,-2.4092,0.0,0.0,0.0,0.0,-2.4845,-2.4908,-2.4845,-2.4755,-2.4691,-2.4755,-2.4755,-2.4691,-2.4755,-2.4858,-2.4908,-2.4845,-2.4858,-2.4908,-2.4845,-2.4858,-2.4858,-2.4305,-2.3778,-2.3265,-2.3265,-2.3265,-2.3265,0.0,0.0,0.0,0.0,0.0,0.0,0.0,-1.5059,-1.5452,-1.6596,-1.7555,-1.8596,-1.9759,-2.06,-2.1531,-2.2696,-2.0966,-1.9669,-1.928,-1.9713,-2.0601,-2.1996,-2.2513,-2.4091,-2.6901,-2.6404,-2.6753,-2.802,-2.7394,-2.7099,-2.7115,-2.7548,-2.7651,-2.7471,-2.8314,-2.8566,-2.8454,-2.8449,-2.833,-2.8204,-2.7882,-2.5093,-2.112,-2.0445,-1.9519,-1.8602,-1.8228,-1.7576,-1.6673,-1.5099,-1.3726,-1.2463,-1.1252,-0.9848,0.0,0.0,0.0,0.0,0.0,0.0,0.0,0.0,0.0,0.0,0.0,0.0,0.0,0.0,0.0,0.0,0.0,0.0,0.0,-1.9988,-2.1743,-2.3359,-2.4883,-2.5034,-2.4845,-2.4531,-2.4695,-2.4607,-2.4054,-2.4406,-2.4481,-2.4029,-2.4406,-2.4669,-2.4669,-2.4757,-2.5008,-2.5435,-2.5046,-2.5021,-2.5435,-2.5034,-2.4549,-2.4054,0.0,0.0,-2.412,-2.4613,-2.5059,-2.5423,-2.5008,-2.5059,-2.541,-2.4996,-2.5071,-2.5385,-2.487,-2.4594,-2.4494,-2.4494,-2.4494,-2.4494,0.0,0.0,0.0,0.0,0.0,0.0,0.0,-1.4845,-1.5446,-1.6378,-1.7202,-1.821,-1.9542,-2.0271,-2.0956,-2.1688,-2.0212,-1.9465,-1.9969,-2.105,-2.2247,-2.3605,-2.4882,-2.6609,-2.8736,-2.8476,-2.8693,-2.9565,-2.8851,-2.8371,-2.8126,-2.8306,-2.8451,-2.8541,-2.9245,-2.9644,-2.9756,-3.0086,-3.007,-2.9827,-2.9653,-2.7852,-2.5175,-2.3813,-2.2506,-2.1227,-2.042,-1.9348,-1.8277,-1.7408,-1.6261,-1.5046,-1.3984,-1.2692,-1.1334,0.0,0.0,0.0,0.0,0.0,0.0,0.0,0.0,0.0,0.0,0.0,0.0,0.0,0.0,-1.5553,0.0,0.0,-2.0251,-2.1775,-2.3231,-2.4697,-2.6201,-2.6201,-2.5824,-2.5272,-2.5473,-2.5423,-2.4858,-2.5046,-2.5096,-2.482,-2.5059,-2.5209,-2.5209,-2.5485,-2.5762,-2.6013,-2.5774,-2.59,-2.644,-2.6176,-2.5902,-2.5617,-2.5902,-2.5765,-2.5197,-2.549,-2.5787,-2.6025,-2.605,-2.6038,-2.6013,-2.5749,-2.5799,-2.6,-2.5749,-2.5473,-2.5172,-2.4921,-2.482,-2.482,0.0,0.0,0.0,0.0,0.0,0.0,0.0,-1.468,-1.5383,-1.6143,-1.6804,-1.7708,-1.9054,-1.9659,-1.9998,-2.0081,-1.9823,-2.0109,-2.122,-2.2456,-2.3856,-2.544,-2.7183,-2.8841,-3.0346,-3.0543,-3.081,-3.1167,-3.0606,-3.0121,-2.9687,-2.9328,-2.9321,-2.9647,-3.0204,-3.0591,-3.0859,-3.1627,-3.1723,-3.1323,-3.1205,-3.0468,-2.9252,-2.7169,-2.5181,-2.3271,-2.1865,-2.0121,-1.859,-1.9034,-1.8678,-1.7948,-1.7078,-1.5825,-1.4333,-1.2969,-1.2049,0.0,0.0,0.0,0.0,0.0,0.0,0.0,0.0,0.0,-1.5141,-1.6489,-1.7173,-1.7861,-1.8844,-2.0531,-2.2213,-2.3563,-2.4666,-2.5925,-2.7397,-2.7037,-2.6508,-2.611,-2.6307,-2.6239,-2.5649,-2.5699,-2.5762,-2.5762,-2.5762,-2.5812,-2.5912,-2.6364,-2.6666,-2.6848,-2.6779,-2.7042,-2.7595,-2.7494,-2.736,-2.7288,-2.736,-2.7205,-2.6627,-2.6779,-2.6779,-2.6804,-2.7256,-2.7193,-2.6779,-2.6779,-2.6779,-2.6779,-2.6779,-2.649,-2.6025,-2.5498,-2.5234,-2.5172,0.0,0.0,0.0,0.0,0.0,0.0,0.0,0.0,-1.5237,-1.532,-1.5362,-1.5453,-1.5651,-1.5578,-1.5953,-1.7077,-1.9234,-2.116,-2.2575,-2.3527,-2.536,-2.831,-2.8286,-2.9208,-3.1391,-3.1463,-3.1806,-3.2483,-3.2061,-3.1838,-3.1762,-3.1182,-3.082,-3.0678,-3.1964,-3.2314,-3.191,-3.3167,-3.3517,-3.3154,-3.2572,-3.2229,-3.1827,-2.9724,-2.7533,-2.5338,-2.3505,-2.0738,-1.8072,-1.9426,-2.0279,-2.0525,-1.9202,-1.7399,-1.5655,-1.4824,0.0,-1.1647,-1.0794,-1.0669,-1.1157,-1.2688,-1.3657,-1.509,0.0,0.0,-1.8967,-2.107,-2.1952,-2.2524,-2.3218,-2.4691,-2.6045,-2.6721,-2.7297,-2.7952,-2.8503,-2.7746,-2.7309,-2.7595,-2.7005,-2.6239,-2.5649,-2.6063,-2.6433,-2.6433,-2.6433,-2.6578,-2.7067,-2.7155,-2.7419,-2.7908,-2.7921,-2.8185,-2.8737,-2.826,-2.7777,-2.7225,-2.7777,-2.7667,-2.7127,-2.769,-2.7921,-2.7921,-2.7984,-2.7984,-2.7921,-2.7921,-2.7921,-2.7921,-2.7921,-2.7883,-2.7758,-2.7205,-2.6703,-2.6414,0.0,0.0,0.0,0.0,0.0,0.0,0.0,0.0,0.0,-1.513,-1.4724,-1.4724,-1.5589,-1.6231,-1.6771,-1.7118,-1.8901,-2.08,-2.272,-2.4351,-2.6413,-2.9082,-3.0167,-3.1028,-3.1701,-3.2523,-3.2875,-3.272,-3.3015,-3.28,-3.2082,-3.2288,-3.2249,-3.2055,-3.3037,-3.3454,-3.3514,-3.4081,-3.4089,-3.3744,-3.3049,-3.2675,-3.2199,-2.9711,-2.8467,-2.7729,-2.5437,-2.2076,0.0,-1.706,-1.7859,-1.9393,-1.912,-1.776,-1.6204,-1.5633,-1.4378,0.0,-1.3011,-1.312,-1.3691,0.0,-1.6911,-1.8309,-2.1031,-2.196,-2.269,-2.4251,-2.5242,-2.5884,-2.62,-2.7087,-2.7779,0.0,-2.7959,-2.8296,-2.8758,-2.7905,-2.7352,-2.7493,-2.664,-2.6,-2.6088,-2.6603,-2.6942,-2.6942,-2.6942,-2.718,-2.7733,-2.7457,-2.7544,-2.8084,-2.8109,-2.8373,-2.8925,-2.8699,-2.8425,-2.8176,-2.8425,-2.8263,-2.7705,-2.795,-2.8285,-2.8561,-2.8247,-2.8285,-2.8561,-2.8235,-2.8109,-2.8109,-2.8109,-2.8109,-2.8084,-2.7846,-2.7607,-2.7482,0.0,0.0,0.0,0.0,0.0,0.0,0.0,0.0,0.0,0.0,-1.4639,-1.4606,-1.5602,-1.6682,-1.7321,-1.7333,-1.8629,-2.0344,-2.2497,-2.4498,-2.666,-2.9008,-3.0895,-3.1883,-3.1864,-3.3405,-3.3882,-3.3239,-3.4066,-3.4143,-3.3504,-3.3898,-3.4038,-3.4091,-3.4666,-3.4974,-3.5058,-3.5143,-3.4891,-3.4303,-3.3676,-3.2834,-3.1807,-2.9219,-2.8148,-2.7763,-2.5459,-2.2018,-1.8167,-1.6067,-1.6336,-1.7748,-1.8425,-1.7711,-1.6507,-1.6101,-1.5002,-1.4125,-1.4902,0.0,0.0,-1.8726,-2.0378,-2.1825,-2.3778,-2.4987,-2.5909,-2.6893,-2.7626,-2.8124,-2.8208,-2.855,-2.8813,-2.8677,-2.8505,-2.8632,-2.9149,-2.8248,-2.7487,-2.7291,-2.6198,-2.5731,-2.6231,-2.6578,-2.6942,-2.7256,-2.7281,-2.7519,-2.8072,-2.7871,-2.7921,-2.8323,-2.8486,-2.8762,-2.9164,-2.9164,-2.9164,-2.9164,-2.9164,-2.895,-2.8574,-2.8574,-2.8787,-2.9151,-2.875,-2.88,-2.9139,-2.8737,-2.8574,-2.8574,-2.8574,-2.8574,-2.8574,-2.8574,-2.8373,-2.8147,0.0,0.0,0.0,0.0,0.0,0.0,0.0,0.0,0.0,0.0,0.0,0.0,0.0,-1.5399,-1.6159,-1.6849,-1.8375,-2.0119,-2.2093,-2.3749,-2.577,-2.8327,-2.962,-3.0837,-3.205,-3.397,-3.4872,-3.4653,-3.5572,-3.6388,-3.7041,-3.6489,-3.6501,-3.697,-3.7281,-3.7067,-3.6546,-3.682,-3.635,-3.5277,-3.466,-3.3058,-3.0843,-2.8794,-2.6445,-2.4043,-2.2478,-1.9512,-1.6536,-1.7915,-1.737,-1.635,-1.7339,-1.7299,0.0,-1.6263,-1.4985,-1.4173,0.0,0.0,-1.8171,-2.0838,-2.3393,-2.555,-2.6719,-2.7741,-2.8507,-2.9096,-2.917,-2.9196,-2.9138,-2.9151,-2.936,-2.9947,-2.965,-2.9512,-2.9986,-2.8937,-2.7877,-2.7169,-2.6024,-2.5409,0.0,-2.5636,-2.6101,-2.7205,-2.7281,-2.7519,-2.8072,-2.8599,-2.8888,-2.89,-2.9453,-2.9754,-2.9767,-2.9767,-2.9767,-2.9767,-2.9767,-2.9754,-2.9741,-2.9741,-2.9754,-2.9767,-2.9754,-2.9754,-2.9767,-2.9754,-2.9741,-2.9741,-2.9741,-2.9741,-2.9741,-2.9741,-2.9051,-2.826,0.0,0.0,0.0,0.0,0.0,0.0,0.0,0.0,0.0,0.0,0.0,0.0,0.0,0.0,0.0,0.0,-1.8603,-2.0383,-2.2154,-2.3888,-2.5726,-2.7706,-2.9645,-3.0782,-3.1033,-3.3021,-3.3965,-3.3713,-3.5366,-3.6094,-3.5942,-3.6549,-3.6709,-3.6536,-3.7036,-3.748,-3.7768,-3.731,-3.7096,-3.6777,-3.3814,-3.2123,-3.0889,-2.7055,-2.4663,-2.3129,0.0,-1.8773,-1.6529,-1.7465,-1.7194,-1.6613,-1.739,-1.68,-1.5843,-1.5879,-1.6115,-1.6756,-1.8536,0.0,-2.1762,-2.3833,-2.5996,-2.7811,-2.8556,-2.9666,-3.036,-2.979,-2.8815,-2.7848,-2.7066,-2.6156,-2.614,-2.7797,-2.8192,-2.8619,-2.9567,-2.9297,-2.8505,-2.6878,-2.6329,0.0,0.0,0.0,0.0,-2.8104,-2.7978,-2.8369,-2.9591,-2.9176,-2.9101,-2.949,-2.9691,-2.9792,-2.9792,-2.9792,-2.9792,-2.9792,-2.9792,-2.9792,-2.9792,-2.9792,-2.9792,-2.9792,-2.9792,-2.9792,-2.9792,-2.9792,-2.9792,-2.9792,-2.9792,-2.9792,-2.9792,-2.9792,-2.9553,-2.9277,0.0,0.0,0.0,0.0,0.0,0.0,0.0,0.0,0.0,0.0,0.0,0.0,0.0,0.0,0.0,0.0,0.0,-1.9922,-2.1372,-2.2741,-2.4149,-2.5601,-2.7554,-2.8537,-2.8452,-3.0287,-3.1026,-3.0599,-3.2634,-3.3494,-3.3304,-3.4545,-3.5132,-3.5115,-3.5402,-3.6068,-3.6928,-3.5983,-3.543,-3.5037,-3.2045,-2.9959,-2.8299,-2.5002,-2.2878,0.0,-1.9865,-1.8278,-1.6913,-1.7229,-1.6935,-1.6566,-1.7157,-1.6536,-1.5809,-1.6646,-1.6818,-1.7438,-2.0447,-2.2543,-2.4335,-2.6488,-2.8267,-2.9675,-3.016,-3.0897,-3.1061,-2.9508,-2.8103,-2.6687,-2.5201,-2.4033,-2.3961,-2.6156,-2.7352,-2.8568,-3.0268,-2.9463,-2.8337,-2.7314,-2.6977,-2.6731,0.0,0.0,0.0,-2.7837,-2.8217,-2.8698,-2.9516,-2.9366,-2.9402,-2.9779,-2.9792,-2.9792,-2.9792,-2.9792,-2.9792,-2.9792,-2.9792,-2.9792,-2.9792,-2.9792,-2.9792,-2.9792,-2.9792,-2.9792,-2.9792,-2.9792,-2.9792,-2.9792,-2.9792,-2.9792,-2.9792,-2.9792,-2.9792,-2.9792,0.0,0.0,0.0,0.0,0.0,0.0,0.0,0.0,0.0,0.0,0.0,0.0,0.0,0.0,0.0,0.0,0.0,0.0,-1.9924,-2.0521,-2.1279,-2.2287,-2.364,-2.4468,-2.4703,-2.6139,-2.6551,-2.5832,-2.7864,-2.9054,-2.9462,-3.0738,-3.1841,-3.2807,-3.2415,-3.292,-3.4047,-3.2857,-3.1647,-3.0438,-2.9345,-2.6798,-2.3548,-2.2703,-2.1075,-1.9223,-1.8556,-1.8016,-1.7544,-1.7323,0.0,0.0,-1.6905,-1.6867,-1.6977,-1.8694,-1.7512,-1.6759,-2.1913,-2.4341,-2.611,-2.8882,-3.029,-3.1123,-3.1529,-3.1352,-3.0532,-2.8454,-2.6985,-2.5422,0.0,0.0,-2.3034,-2.5252,-2.7243,-2.9389,-3.1744,-2.9481,-2.7829,0.0,0.0,0.0,0.0,0.0,0.0,-2.6659,0.0,-2.8712,-2.821,-2.9214,-2.9792,-2.9792,-2.9792,-2.9792,-2.9792,-2.9792,-2.9792,-2.9792,-2.9792,-2.9792,-2.9792,-2.9792,-2.9792,-2.9792,-2.9792,-2.9792,-2.9792,-2.9792,-2.9792,-2.9792,-2.9792,-2.9792,-2.9792,-2.9792,-2.9792,-2.9792,0.0,0.0,0.0,0.0,0.0,0.0,0.0,0.0,0.0,0.0,0.0,0.0,0.0,0.0,0.0,0.0,0.0,0.0,-1.9915,-2.0601,-2.1174,-2.1493,-2.2849,-2.3566,-2.3528,-2.4747,-2.5195,-2.4863,-2.6188,-2.6892,-2.7006,-2.7514,-2.8117,-2.8769,-2.8589,-2.9204,-3.0418,-2.9622,-2.9426,-2.9321,-2.6422,-2.4791,-2.381,-2.1403,-1.9998,-1.9238,-1.8879,-1.8773,0.0,0.0,0.0,0.0,0.0,-2.1135,-2.2685,-2.3104,-2.3162,-2.3898,-2.7434,-2.862,-2.9215,-3.0671,-3.1262,-3.1415,-3.1441,-3.0197,-2.8394,-2.6101,-2.3367,-2.0926,0.0,0.0,0.0,-2.4178,-2.6646,0.0,-3.0516,-3.0659,0.0,-2.9887,0.0,-2.9327,-2.8982,-2.9191,0.0,0.0,-2.8609,-2.9202,-2.9769,-2.977,-2.9792,-2.9792,-2.9792,-2.9792,-2.9792,-2.9792,-2.9792,-2.9792,-2.9792,-2.9792,-2.9792,-2.9792,-2.9792,-2.9792,-2.9792,-2.9792,-2.9792,-2.9792,-2.9792,-2.9792,-2.9792,-2.9792,-2.9792,-2.9792,-2.9792,-2.9792,0.0,0.0,0.0,0.0,0.0,0.0,0.0,0.0,0.0,0.0,0.0,0.0,0.0,0.0,0.0,0.0,0.0,0.0,0.0,-1.9741,-2.0138,-2.0527,-2.1269,-2.1525,-2.1216,-2.1726,-2.1821,-2.1441,-2.2495,-2.2951,-2.2835,-2.3454,-2.4036,-2.4528,-2.4828,-2.5697,-2.6889,-2.6526,-2.6449,0.0,0.0,-2.2113,-2.1508,-1.9809,-1.9027,-1.88,-1.908,0.0,0.0,0.0,0.0,-2.2395,-2.3139,-2.4023,-2.501,-2.619,0.0,-2.7561,-3.0347,-3.1673,-3.2313,-3.2563,-3.2334,-3.1502,-2.9478,-2.9226,-2.8038,-2.3195,-2.1192,0.0,0.0,0.0,0.0,0.0,0.0,0.0,-3.0198,-3.0872,-3.111,0.0,-3.0897,0.0,-3.0309,-3.0427,-3.0285,0.0,-2.964,-2.9618,-2.977,-2.9795,-2.9792,-2.9792,-2.9792,-2.9792,-2.9792,-2.9792,-2.9792,-2.9792,-2.9792,-2.9792,-2.9792,-2.9792,-2.9792,-2.9792,0.0,-2.9792,-2.9792,-2.9792,-2.9792,-2.9792,-2.9792,-2.9792,-2.9792,-2.9792,-2.9792,-2.9792,0.0,0.0,0.0,0.0,0.0,0.0,0.0,0.0,0.0,0.0,0.0,0.0,0.0,0.0,0.0,0.0,0.0,0.0,0.0,0.0,-1.8815,-1.9525,-1.9572,-1.9346,-1.8842,-1.8553,-1.8125,-1.7539,-1.8444,-1.8718,-1.8414,-1.9416,-2.0127,-2.0556,-2.1234,-2.2208,-2.3335,-2.3403,-2.3096,-2.2388,-2.0881,-1.963,-1.8669,0.0,-1.8414,-1.8475,0.0,0.0,0.0,0.0,-2.5235,-2.5126,-2.6533,-2.6572,-2.6605,-2.8911,-2.9462,-2.9848,-3.2151,-3.3868,-3.4823,-3.4093,-3.3118,-3.1209,-2.6989,-2.7943,-2.7591,-1.9859,0.0,-1.9302,-1.5922,-1.7378,-1.9838,-2.2204,0.0,-2.636,-3.0602,-3.0733,-3.092,-3.2046,-3.1863,-3.1703,-3.1703,-3.1347,-3.1136,-3.0986,-3.0672,-3.0075,-2.9214,-2.9669,-2.9934,-2.9869,-2.9869,-2.9869,-2.9792,-2.9869,-2.9869,-2.9869,-2.9869,-2.9869,-2.9869,-2.9792,-2.9792,-2.9792,-2.9869,-2.9869,-2.9792,-2.9946,-2.9869,-2.9792,-2.9869,-2.9869,-2.9792,-2.9792,-2.9792,-2.9792,0.0,0.0,0.0,0.0,0.0,0.0,0.0,0.0,0.0,0.0,-1.428,-1.5275,0.0,0.0,0.0,0.0,0.0,0.0,0.0,0.0,0.0,-1.8786,-1.9261,-1.9376,-1.9057,-1.8681,-1.8261,-1.7837,-1.7742,-1.7583,-1.7369,-1.7233,-1.7503,-1.8107,-1.8022,-1.8479,-1.9341,-1.9861,-1.9997,-1.9818,-1.9354,-1.9334,-1.9527,-1.9019,0.0,0.0,0.0,0.0,0.0,0.0,-2.8005,-2.8468,-2.917,-3.1145,-3.3181,-3.3246,-3.4002,-3.4966,-3.5619,-3.5408,-3.4799,-3.413,-3.2767,-3.0502,-2.6804,-2.4617,0.0,0.0,-1.5658,-1.6088,-1.5094,-1.6897,0.0,-2.266,0.0,0.0,0.0,0.0,-3.1243,0.0,0.0,0.0,0.0,0.0,0.0,0.0,0.0,-3.0784,-3.0618,-3.0709,-3.0609,-3.0305,-3.0292,-3.0152,-2.9792,-3.0152,-3.0292,-3.0292,-2.9934,-2.9934,-3.0292,-2.9934,-2.9792,-2.9792,-3.0152,0.0,-2.9869,-3.0533,-3.0394,-2.9869,-3.0152,-3.0075,-2.9792,-2.9792,-2.9792,-2.9792,0.0,0.0,0.0,0.0,0.0,0.0,0.0,-1.4106,-1.4563,-1.4533,-1.5287,-1.5651,-1.5197,-1.5491,-1.5747,0.0,0.0,0.0,0.0,0.0,0.0,0.0,0.0,0.0,-1.9139,-1.8753,-1.8475,-1.8321,0.0,-1.7542,-1.7401,-1.706,-1.7087,-1.7374,-1.7646,-1.7947,-1.8238,-1.894,-1.9197,-1.9059,-1.8576,-1.8811,-1.9453,0.0,0.0,0.0,0.0,0.0,0.0,0.0,-2.6623,-2.9383,-3.2831,-3.5188,-3.6358,-3.4577,-3.592,-3.7546,-3.5678,-3.5971,-3.6379,-3.4682,-3.3204,-3.0581,-2.4204,0.0,0.0,0.0,-1.4456,-1.4942,-1.4494,0.0,0.0,0.0,0.0,0.0,0.0,0.0,0.0,0.0,0.0,0.0,0.0,0.0,0.0,0.0,0.0,-3.1048,-3.0394,-3.0596,-3.0672,-3.0672,-3.0672,-3.0609,-3.0394,-3.0609,-3.0596,-3.0368,-3.0228,-3.0075,-3.0075,-2.9869,-2.9934,-3.0152,-3.0292,-3.0368,-3.0457,-3.0836,-3.0685,-3.0152,-3.0292,-3.0152,-2.9792,-2.9792,-2.9792,-2.9792,0.0,0.0,0.0,0.0,0.0,0.0,0.0,-1.5111,-1.5401,-1.5964,-1.6178,-1.6052,-1.541,-1.5315,-1.5343,0.0,0.0,0.0,0.0,0.0,0.0,0.0,0.0,0.0,0.0,0.0,0.0,0.0,-1.8229,0.0,0.0,0.0,0.0,0.0,-1.792,-1.8133,-1.8084,-1.8858,-1.9089,0.0,0.0,-1.8546,0.0,0.0,0.0,0.0,0.0,0.0,0.0,0.0,-2.489,-2.8934,-3.4043,-3.622,-3.6509,-3.4406,-3.6226,-3.8446,-3.5933,-3.6875,-3.8091,-3.5778,-3.3831,-3.0418,-2.2506,-2.0232,0.0,0.0,-1.4254,-1.4607,-1.4251,0.0,0.0,0.0,0.0,0.0,0.0,0.0,0.0,0.0,0.0,0.0,0.0,0.0,0.0,0.0,0.0,-3.0898,-3.0088,-3.0305,-3.0596,-3.0986,-3.0986,-3.0986,-3.0986,-3.0986,-3.0823,-3.052,-3.0368,-3.0152,-2.9934,-2.9869,-2.9934,-3.0292,-3.0444,-3.0672,-3.0911,-3.1136,-3.0973,-3.052,-3.052,-3.0305,-3.0011,-2.9934,-2.9934,-2.9934,0.0,0.0,0.0,0.0,0.0,0.0,0.0,-1.4724,-1.5195,-1.5221,-1.58,-1.6179,-1.6115,-1.6197,-1.6297,0.0,0.0,0.0,0.0,0.0,0.0,0.0,0.0,0.0,0.0,0.0,0.0,0.0,0.0,0.0,0.0,0.0,0.0,0.0,0.0,0.0,-1.7855,-1.8475,0.0,0.0,0.0,0.0,0.0,0.0,0.0,0.0,0.0,0.0,0.0,0.0,0.0,-2.7265,-2.9085,-3.0959,-3.2481,-3.2903,0.0,0.0,-3.911,-3.926,-3.8661,-3.7704,-3.4028,-2.937,-2.459,0.0,0.0,-1.4799,-1.4312,-1.4477,-1.4699,-1.5508,0.0,0.0,0.0,-2.1252,0.0,0.0,0.0,0.0,0.0,0.0,0.0,0.0,0.0,0.0,-3.0394,-3.0241,-3.0836,-3.0596,-3.0596,-3.0986,-3.0986,-3.0986,-3.0986,-3.0986,-3.0986,-3.0911,-3.0241,-3.0011,-3.0292,-2.9934,-2.9792,-2.9869,-3.0609,-3.0748,0.0,-3.1643,-3.1656,-3.0911,-3.0911,-3.0911,-3.0836,-3.0444,-3.0368,-3.0368,0.0,0.0,0.0,0.0,0.0,0.0,-1.4694,-1.5023,-1.5358,-1.5831,-1.6108,-1.6628,-1.7649,-1.6922,-1.617,-1.5695,0.0,0.0,0.0,0.0,0.0,0.0,0.0,0.0,0.0,0.0,0.0,-1.8435,-1.8681,0.0,0.0,0.0,0.0,0.0,0.0,0.0,0.0,0.0,0.0,0.0,0.0,0.0,0.0,0.0,0.0,0.0,0.0,0.0,0.0,0.0,0.0,0.0,-2.3248,-2.4331,0.0,0.0,-3.2757,-3.6051,-3.5904,-3.772,-3.9329,-3.7773,-3.3844,-2.9228,-2.4896,0.0,-1.7793,-1.4909,-1.4605,-1.4823,-1.488,-1.5715,-1.6463,-1.6729,-1.7977,0.0,0.0,0.0,0.0,0.0,0.0,0.0,0.0,0.0,0.0,0.0,-3.0612,-3.0508,-3.0254,-3.0381,-3.0672,-3.1347,-3.1347,-3.1495,-3.173,-3.1495,-3.1272,-3.0986,-2.9985,-2.9509,-2.9419,-2.9287,-2.9365,-2.9599,-3.0292,-3.081,0.0,-3.1643,-3.1495,-3.0986,-3.0986,-3.0823,-3.0596,-3.0152,-3.0381,-3.0672,0.0,0.0,0.0,0.0,0.0,-1.4295,-1.5171,-1.5269,-1.5506,-1.631,-1.6355,-1.6766,-1.7922,-1.702,-1.599,-1.5162,-1.5106,0.0,0.0,0.0,0.0,0.0,0.0,0.0,0.0,0.0,-1.8125,-1.8213,-1.8723,-1.8878,0.0,0.0,0.0,0.0,0.0,0.0,0.0,0.0,0.0,0.0,0.0,0.0,0.0,0.0,0.0,0.0,0.0,0.0,0.0,0.0,0.0,0.0,0.0,0.0,0.0,0.0,-2.9735,-3.3201,-3.3664,-3.6305,-3.8716,-3.759,-3.3668,-2.8873,0.0,0.0,-1.7451,-1.5131,-1.4971,-1.521,-1.5108,-1.5893,-1.6571,-1.6746,-1.7349,-1.7798,-1.7835,0.0,0.0,0.0,0.0,0.0,0.0,0.0,0.0,0.0,-3.0816,-3.0671,-2.9817,-3.024,-3.0764,-3.1421,-3.1334,-3.1495,-3.2023,-3.1334,-3.0885,-3.0836,-2.9729,-2.9106,-2.8791,-2.8791,-2.8949,-2.9263,-2.996,-3.0646,0.0,-3.1629,-3.1495,-3.0986,-3.0986,-3.0898,-3.0735,-3.0305,-3.0609,-3.1136,0.0,0.0,0.0,0.0,0.0,0.0,-1.5168,-1.5302,-1.5555,-1.6304,-1.6407,-1.638,-1.6336,-1.6301,-1.5975,-1.5167,-1.5099,0.0,0.0,0.0,0.0,0.0,0.0,0.0,0.0,0.0,-1.8276,-1.8204,-1.8808,-1.9106,-1.9082,-1.849,-1.8305,0.0,0.0,0.0,0.0,0.0,0.0,0.0,0.0,0.0,0.0,0.0,0.0,0.0,0.0,0.0,0.0,0.0,0.0,0.0,0.0,0.0,0.0,0.0,-2.5803,-2.8505,-3.407,-3.5808,-3.6279,-3.7227,-3.3434,-2.7968,0.0,0.0,-1.6678,-1.5541,-1.539,-1.5513,-1.5591,-1.5703,-1.6348,-1.7896,-1.7751,-1.7564,-1.8052,0.0,0.0,0.0,0.0,0.0,0.0,0.0,0.0,-3.0432,-3.0517,0.0,-2.9829,-3.0319,-3.0737,-3.0999,-3.0596,-3.081,-3.1629,-3.0177,-2.9729,-3.0368,-2.9341,-2.8791,-2.8791,-2.8791,-2.8791,-2.887,-2.9691,-3.0165,0.0,-3.1716,-3.173,-3.0986,-3.0986,-3.1272,-3.1556,-3.1123,-3.1272,-3.1556,0.0,0.0,0.0,0.0,0.0,0.0,0.0,-1.524,-1.5331,-1.5557,-1.5586,-1.5754,-1.625,-1.5815,-1.5609,-1.5899,-1.5422,0.0,0.0,0.0,0.0,0.0,0.0,0.0,0.0,0.0,-1.6985,-1.7372,-1.7975,-1.8509,-1.8967,-1.8579,-1.842,-1.8428,-1.8187,0.0,0.0,0.0,0.0,0.0,0.0,0.0,0.0,0.0,0.0,0.0,0.0,0.0,0.0,0.0,0.0,0.0,0.0,0.0,0.0,-1.9176,0.0,0.0,-2.8587,-3.0592,-3.1872,-3.1573,-2.8469,-2.4796,-2.2131,0.0,-1.7144,-1.6293,-1.5825,-1.5721,-1.6311,-1.6514,-1.7004,-1.8194,-1.8591,-1.8672,0.0,0.0,0.0,0.0,0.0,0.0,0.0,0.0,0.0,-3.0444,-3.0517,-3.0382,-2.9829,-3.0319,-3.0593,-3.0622,-3.0444,-3.0672,-3.1198,-3.0432,-3.0203,-3.0368,-2.9341,-2.8554,-2.8131,-2.8131,-2.8131,-2.8131,-2.8846,-2.9406,-2.9729,-3.0114,-3.0114,-2.9896,-2.9896,-3.0279,-3.0735,-3.0305,-3.0748,-3.1556,0.0,0.0,0.0,0.0,0.0,0.0,0.0,-1.5182,-1.5207,-1.5199,-1.5195,-1.537,-1.5795,-1.5391,-1.53,-1.5792,-1.5384,0.0,0.0,0.0,0.0,0.0,0.0,0.0,-1.5112,-1.607,-1.6778,-1.7142,-1.7996,-1.8642,-1.9002,-1.8695,-1.8522,-1.8467,-1.831,-1.831,0.0,0.0,0.0,0.0,0.0,0.0,-1.9687,0.0,0.0,0.0,0.0,0.0,0.0,0.0,0.0,0.0,0.0,0.0,0.0,0.0,-1.9372,-2.226,0.0,-2.6929,-2.8387,-2.8525,-2.6108,0.0,0.0,0.0,-1.7407,-1.6795,-1.6265,-1.6211,-1.6988,-1.6894,-1.7086,-1.8273,-1.858,-1.8818,0.0,0.0,0.0,0.0,0.0,0.0,0.0,0.0,-3.1307,-3.0432,-3.0517,-3.0382,-2.9829,-3.0319,-3.0435,-3.0164,-3.0152,-3.0381,-3.0748,-3.0126,-2.9896,-3.0152,-2.9275,-2.8542,-2.8131,-2.7891,-2.7971,-2.8211,-2.853,-2.9028,0.0,-2.9896,-2.9819,-2.9599,-2.9741,-3.0126,-3.0596,-3.0394,-3.0898,-3.1716,0.0,0.0,0.0,0.0,0.0,0.0,0.0,-1.5151,-1.5188,-1.519,-1.519,-1.5172,-1.5119,-1.5105,-1.5105,-1.5092,0.0,0.0,0.0,0.0,0.0,0.0,0.0,0.0,-1.5107,-1.6502,-1.7293,-1.7384,-1.8572,-1.9167,-1.9184,-1.8806,-1.8619,-1.8566,-1.841,-1.8393,0.0,0.0,0.0,0.0,0.0,0.0,0.0,0.0,0.0,0.0,0.0,0.0,0.0,0.0,0.0,0.0,0.0,0.0,0.0,0.0,0.0,0.0,0.0,-2.4358,0.0,0.0,0.0,0.0,0.0,0.0,0.0,0.0,0.0,-1.6784,-1.7585,-1.6983,-1.6863,-1.8419,-1.8003,0.0,0.0,0.0,0.0,0.0,0.0,0.0,0.0,0.0,-3.2046,-3.0659,-3.0557,-3.041,-2.9894,-3.0281,-3.0319,-2.9817,-2.9792,-3.0011,-3.0368,-2.9353,-2.9209,-2.9792,-2.9209,-2.8882,-2.8791,-2.8131,-2.8211,0.0,-2.8518,-2.8937,-2.9792,-3.0533,-3.0381,-2.9702,-3.0139,-3.0596,-3.0911,-3.0986,-3.1508,-3.2182,0.0,0.0,0.0,0.0,0.0,0.0,0.0,0.0,0.0,0.0,-1.5113,-1.5125,-1.5097,-1.5146,-1.5159,0.0,0.0,0.0,0.0,0.0,0.0,0.0,0.0,0.0,-1.5182,-1.5477,-1.6189,-1.7319,-1.7515,-1.8135,-1.9115,-1.8984,-1.8715,-1.8371,-1.8528,-1.8715,0.0,0.0,0.0,0.0,0.0,0.0,0.0,0.0,0.0,0.0,-1.8657,-1.8542,0.0,0.0,0.0,0.0,0.0,0.0,0.0,0.0,-1.6692,-1.7349,-1.9008,0.0,-2.0072,-2.0974,-2.0262,-1.9342,0.0,0.0,0.0,0.0,0.0,0.0,0.0,0.0,-1.8354,0.0,0.0,0.0,0.0,0.0,0.0,0.0,0.0,0.0,0.0,0.0,-3.2318,-3.1982,-3.1003,-3.0356,-3.0305,-3.006,-2.993,-2.9792,-2.9792,-2.9869,-2.9934,-2.9702,-2.9624,-2.9792,-2.9624,-2.93,-2.8791,-2.8633,-2.8633,-2.8791,-2.87,-2.8791,-2.904,-2.9275,-2.8858,-2.8383,-2.9263,-2.9729,-2.9883,-3.0672,-3.1272,-3.1703,0.0,0.0,0.0,0.0,0.0,0.0,0.0,0.0,0.0,0.0,0.0,-1.5092,-1.5105,-1.5159,0.0,0.0,0.0,0.0,0.0,0.0,0.0,0.0,0.0,-1.5212,-1.5158,-1.5463,-1.6189,-1.7339,-1.758,-1.8199,-1.9191,-1.9066,-1.8807,-1.8489,-1.8697,-1.8825,-1.8878,0.0,0.0,0.0,-1.9266,0.0,0.0,0.0,0.0,0.0,-1.8677,-1.8544,0.0,-1.8009,-1.7922,-1.7839,0.0,0.0,0.0,0.0,-1.6576,-1.6914,-1.7486,-1.8017,-1.8444,-1.8753,-1.8724,-1.852,0.0,0.0,0.0,0.0,0.0,0.0,0.0,0.0,0.0,0.0,0.0,0.0,0.0,0.0,0.0,0.0,0.0,0.0,0.0,0.0,-3.2533,-3.2055,-3.1185,-3.0672,-3.0672,-3.0305,-3.0075,-3.0075,-2.9856,-2.9792,-2.9792,-2.9792,-2.9792,-2.9792,-2.9792,-2.9624,-2.9221,-2.8961,-2.9028,-2.9509,-2.9028,-2.9106,-2.9509,-2.9365,-2.9052,-2.8791,-2.9365,-2.9677,-2.9973,-3.0748,-3.1272,-3.1629,0.0,0.0,0.0,0.0,0.0,0.0,0.0,0.0,0.0,0.0,0.0,0.0,0.0,0.0,0.0,0.0,0.0,0.0,0.0,0.0,0.0,0.0,-1.5182,-1.5171,-1.5107,-1.5822,-1.6591,-1.7425,-1.8113,-1.8737,-1.9324,-1.9143,-1.893,-1.8715,-1.8788,-1.877,-1.8734,-1.8965,-1.9082,0.0,-1.9184,0.0,0.0,0.0,0.0,0.0,0.0,0.0,0.0,-1.8091,-1.8029,-1.7991,-1.7467,0.0,0.0,0.0,0.0,0.0,-1.7219,-1.7956,-1.8583,-1.8545,-1.8796,-1.884,-1.7936,0.0,0.0,0.0,0.0,0.0,0.0,0.0,0.0,0.0,0.0,0.0,0.0,0.0,0.0,0.0,0.0,0.0,-3.3772,-3.3449,-3.2946,-3.1982,-3.1408,-3.1061,-3.1061,-3.0672,-3.0444,-3.0368,-3.0075,-2.9869,-2.9792,-2.9792,-2.9792,-2.9792,-2.9792,-2.9869,-2.9856,-2.9209,-2.9509,-3.0368,-2.9353,0.0,-3.0292,-3.0011,-2.9869,-2.9779,-3.0011,-3.0228,-3.0508,-3.0986,-3.1421,-3.1703,0.0,0.0,0.0,0.0,0.0,0.0,0.0,0.0,0.0,0.0,0.0,0.0,0.0,0.0,0.0,0.0,0.0,0.0,0.0,0.0,0.0,-1.5195,-1.5145,-1.5114,-1.5108,-1.5814,-1.662,-1.7482,-1.8203,-1.8871,-1.9472,-1.9376,-1.9148,-1.8788,-1.8563,-1.8582,-1.8788,-1.8896,-1.9002,-1.9087,-1.8948,0.0,0.0,0.0,0.0,0.0,0.0,0.0,0.0,-1.8074,-1.8358,-1.8722,-1.764,0.0,0.0,0.0,0.0,0.0,-1.788,-1.8114,-1.805,-1.8223,-1.8144,-1.8149,-1.8579,0.0,0.0,0.0,0.0,0.0,0.0,0.0,0.0,0.0,0.0,0.0,0.0,0.0,0.0,0.0,0.0,0.0,-3.4826,-3.4155,-3.3644,-3.3437,-3.2259,-3.1482,-3.1482,-3.1123,-3.0748,-3.0444,-3.0368,-3.0152,-2.9792,-2.9792,-2.9792,-2.9792,-2.9792,-3.0011,-3.0292,-2.9856,-2.9921,-3.0368,0.0,-2.9702,-2.9934,-3.0228,-2.9973,-2.9586,-3.081,-3.1009,-3.0696,-3.1643,-3.2023,-3.2096,0.0,0.0,0.0,0.0,0.0,0.0,0.0,0.0,0.0,0.0,0.0,0.0,0.0,0.0,0.0,0.0,0.0,0.0,0.0,0.0,-1.5234,-1.5199,-1.5555,-1.5756,-1.5742,-1.6476,-1.7255,-1.8087,-1.8388,-1.8895,-1.954,-1.9305,-1.9,-1.8677,-1.8526,-1.8506,-1.8582,-1.8733,-1.8861,-1.8932,0.0,0.0,0.0,0.0,0.0,0.0,0.0,0.0,0.0,0.0,-1.807,-1.8165,-1.7412,0.0,0.0,0.0,0.0,0.0,-1.7541,-1.793,-1.828,-1.9084,-1.8948,-1.8578,-1.8446,0.0,0.0,0.0,0.0,0.0,0.0,0.0,0.0,0.0,0.0,0.0,0.0,0.0,0.0,0.0,0.0,-3.606,-3.503,-3.422,-3.3589,-3.2988,-3.2286,-3.1936,-3.1936,-3.1569,-3.1272,-3.1035,-3.0823,-3.0533,-3.0152,-3.0152,-3.0011,-2.9792,-2.9792,-2.9856,-3.0075,-2.9869,-3.0164,-3.0672,0.0,-3.0381,-3.0748,-3.0748,-3.052,-3.0355,-3.1035,-3.111,-3.0872,-3.1629,-3.2023,-3.2182,0.0,0.0,0.0,0.0,0.0,0.0,0.0,0.0,0.0,0.0,0.0,0.0,0.0,0.0,0.0,0.0,0.0,0.0,0.0,-1.5302,-1.526,-1.5201,-1.6091,-1.6505,-1.6274,-1.7189,-1.8,-1.8612,-1.8742,-1.907,-1.9526,-1.9132,-1.8807,-1.8601,-1.8469,-1.841,-1.8406,-1.8566,-1.8697,-1.8788,0.0,0.0,0.0,0.0,0.0,0.0,0.0,0.0,0.0,0.0,0.0,0.0,0.0,0.0,0.0,-1.6723,-1.657,-1.6705,-1.7355,-1.7853,-1.8515,-1.9823,-1.9808,-1.9508,-1.9597,0.0,0.0,0.0,0.0,0.0,0.0,0.0,0.0,0.0,0.0,0.0,0.0,0.0,0.0,0.0,0.0,-3.6137,-3.508,-3.4312,-3.352,-3.2444,-3.2241,-3.2182,-3.2182,-3.1936,-3.1716,-3.1629,-3.1272,-3.0973,-3.052,-3.0444,-3.0228,-2.9792,-2.9792,-2.9869,-2.9934,-2.9934,-3.0318,-3.0986,-3.0672,-3.0885,-3.1408,-3.1198,-3.1123,-3.1123,-3.1198,-3.1286,-3.136,-3.1776,-3.2141,-3.2386,0.0,0.0,0.0,0.0,0.0,0.0,0.0,0.0,0.0,0.0,0.0,0.0,0.0,0.0,0.0,0.0,0.0,0.0,0.0,-1.5323,-1.526,-1.5206,-1.668,-1.7093,-1.6238,-1.7717,-1.8564,-1.8682,-1.9355,-1.9612,-1.939,-1.8948,-1.8678,-1.8603,-1.8284,-1.8222,-1.8406,-1.8471,-1.8623,-1.8788,-1.8659,0.0,0.0,0.0,0.0,0.0,0.0,0.0,0.0,0.0,0.0,0.0,0.0,0.0,-1.7515,-1.6812,-1.6517,-1.6706,-1.8122,-1.8207,-1.8243,-1.9691,-2.0,0.0,-2.38,-2.3403,0.0,0.0,0.0,0.0,0.0,0.0,0.0,0.0,0.0,0.0,0.0,0.0,0.0,0.0,-3.7087,-3.643,-3.5612,-3.4765,-3.3919,-3.2988,-3.2444,-3.2182,-3.2182,-3.2169,-3.2023,-3.1629,-3.1556,-3.1334,-3.0986,-3.0596,-3.0228,-2.9792,-2.9792,-3.0011,-3.0368,-3.0368,-3.0596,-3.0986,-3.0986,-3.0986,-3.1061,-3.1421,-3.1556,-3.1556,-3.195,-3.2096,-3.2169,-3.2717,-3.2917,-3.2974,0.0,0.0,0.0,0.0,0.0,0.0,0.0,0.0,0.0,0.0,0.0,0.0,0.0,0.0,0.0,0.0,0.0,0.0,0.0,-1.5287,-1.5457,-1.5933,-1.701,-1.7442,-1.7079,-1.8648,-1.9457,-1.9457,-1.9675,-1.9655,-1.9394,-1.8964,-1.868,-1.8529,-1.81,-1.8031,-1.8201,-1.8184,-1.8307,-1.8487,-1.843,-1.841,0.0,0.0,0.0,0.0,0.0,0.0,0.0,0.0,-1.7526,-1.7535,-1.6946,-1.6834,-1.6874,-1.6526,-1.6328,-1.6422,-1.7301,-1.8331,-1.9406,-2.0445,-2.108,0.0,0.0,-2.399,-2.4483,0.0,0.0,0.0,0.0,0.0,0.0,0.0,0.0,0.0,0.0,0.0,0.0,-3.7605,-3.6843,-3.6073,-3.537,-3.4514,-3.3713,-3.3058,-3.2516,-3.2182,-3.2182,-3.2182,-3.2096,-3.195,-3.195,-3.179,-3.1421,-3.1185,-3.0973,-3.0533,-3.0305,-3.0381,-3.0748,-3.0748,-3.0973,-3.1347,-3.1347,-3.1495,-3.173,-3.195,-3.195,-3.2023,-3.2169,-3.2372,-3.2717,-3.2917,-3.3185,-3.352,0.0,0.0,0.0,0.0,0.0,0.0,0.0,0.0,0.0,0.0,0.0,0.0,0.0,0.0,0.0,0.0,0.0,0.0,-1.5306,-1.5255,-1.5595,-1.6407,-1.7205,-1.7742,-1.8007,-1.9364,-1.9903,-1.9555,-1.9705,-1.9649,-1.9438,-1.9251,-1.8911,-1.8473,-1.828,-1.8143,-1.8048,-1.8027,-1.8117,-1.8266,-1.829,-1.831,0.0,0.0,0.0,0.0,0.0,0.0,0.0,0.0,-1.7191,-1.6977,-1.6738,-1.6554,-1.6382,-1.6301,-1.6179,-1.6266,-1.7061,-1.8407,-1.9842,0.0,0.0,0.0,-2.485,-2.5203,-2.5717,0.0,0.0,0.0,0.0,0.0,0.0,0.0,0.0,0.0,0.0,0.0,-3.7834,-3.7722,-3.6919,-3.6026,-3.5175,-3.4581,-3.3851,-3.3058,-3.2646,-3.2386,-3.2182,-3.2006,-3.1979,-3.2169,-3.2006,-3.1753,-3.1508,-3.1362,-3.1136,-3.0818,-3.062,-3.0641,-3.0986,-3.1123,-3.1347,-3.1629,-3.1716,-3.195,-3.2182,-3.2182,-3.2314,-3.2444,-3.2255,-3.2646,-3.3255,-3.3255,-3.3589,-3.4056,0.0,0.0,0.0,0.0,0.0,0.0,0.0,0.0,0.0,0.0,0.0,0.0,0.0,0.0,0.0,0.0,0.0,0.0,-1.5303,-1.5293,-1.5655,-1.6482,-1.7279,-1.8083,-1.8879,-1.9752,-1.9735,-1.8812,-1.9416,-1.9643,-1.9523,-1.9776,-1.9408,-1.8545,-1.8874,-1.8603,-1.7922,-1.8048,-1.8151,-1.8194,-1.8266,-1.8348,-1.8406,0.0,0.0,0.0,0.0,0.0,0.0,0.0,-1.6914,-1.6738,-1.649,-1.6316,-1.6194,-1.621,-1.6166,-1.6386,-1.7731,-1.8467,0.0,0.0,0.0,0.0,0.0,-2.7616,-2.7087,0.0,0.0,0.0,0.0,0.0,0.0,0.0,0.0,0.0,0.0,-3.9384,-3.8528,-3.777,-3.727,-3.6538,-3.5255,-3.5109,-3.4499,-3.3115,-3.2974,-3.2761,-3.2228,-3.1612,-3.1558,-3.2141,-3.1585,-3.1287,-3.1287,-3.0905,-3.0623,-3.0418,-3.0623,-3.0778,-3.1048,-3.1408,-3.1616,-3.1616,-3.2009,-3.2169,-3.2155,-3.2169,-3.2503,-3.2974,-3.2444,-3.2846,-3.3796,-3.3796,-3.4124,-3.4677,0.0,0.0,0.0,0.0,0.0,0.0,0.0,0.0,0.0,0.0,0.0,0.0,0.0,0.0,0.0,0.0,0.0,0.0,-1.5226,-1.5236,-1.5854,-1.7291,-1.7572,-1.8076,-1.8877,-1.9115,-1.9354,-1.9635,-1.9681,-1.9926,-2.0337,-2.0153,-2.0132,-2.0256,-2.0112,-1.9573,-1.8739,-1.8734,-1.8488,-1.8134,-1.8205,-1.8307,-1.8406,0.0,0.0,0.0,0.0,0.0,0.0,0.0,0.0,0.0,-1.6436,-1.6289,-1.6215,-1.6632,-1.6928,-1.7286,-1.8143,-1.9631,0.0,0.0,0.0,0.0,0.0,0.0,0.0,0.0,0.0,0.0,0.0,0.0,0.0,0.0,0.0,0.0,-3.9884,-3.9859,-3.9308,-3.827,-3.7738,-3.7103,-3.6196,-3.5299,-3.4362,-3.3393,-3.2525,-3.1706,-3.1004,-3.0758,-3.0758,-3.0934,-3.0758,-3.0676,-3.0676,-3.0524,-3.0443,-3.0405,-3.0443,-3.0548,-3.0596,-3.1141,-3.1172,-3.0807,-3.1297,-3.1327,-3.0934,-3.1323,-3.1957,-3.2868,-3.2664,-3.3343,-3.4394,-3.4394,-3.4758,-3.5204,0.0,0.0,0.0,0.0,0.0,0.0,0.0,0.0,0.0,0.0,0.0,0.0,0.0,0.0,0.0,0.0,0.0,0.0,0.0,-1.518,-1.5766,-1.7123,-1.7188,-1.7711,-1.8877,-1.8802,-1.9161,-1.9971,-1.9788,-2.0057,-2.0741,-2.066,-2.0765,-2.1072,-2.1038,-2.05,-1.9596,-1.9218,-1.8842,-1.8481,-1.8237,-1.8205,-1.8325,0.0,0.0,0.0,0.0,0.0,0.0,0.0,0.0,0.0,-1.649,-1.6289,-1.6261,-1.6817,-1.7308,-1.7811,-1.8729,0.0,0.0,0.0,0.0,0.0,0.0,0.0,0.0,0.0,0.0,0.0,0.0,0.0,0.0,0.0,0.0,0.0,-3.9935,-4.0101,-3.9624,-3.8439,-3.7879,-3.7326,-3.6538,-3.5507,-3.4585,-3.3774,-3.2594,-3.1533,-3.0719,-3.0297,-3.0147,-3.0405,-3.0174,-3.0038,-3.0038,-3.0038,-2.9916,-2.9686,-2.993,-2.9916,-2.9713,-3.0568,-3.0883,-3.0678,-3.1227,-3.1308,-3.0976,-3.123,-3.1891,-3.276,-3.2614,-3.3289,-3.4288,-3.4224,-3.4588,-3.5029,0.0,0.0,0.0,0.0,0.0,0.0,0.0,0.0,0.0,0.0,0.0,0.0,0.0,0.0,0.0,0.0,0.0,0.0,0.0,-1.5126,-1.5485,-1.6362,-1.6477,-1.7224,-1.8737,-1.8726,-1.9052,-1.9775,-1.9726,-2.007,-2.0811,-2.1224,-2.1381,-2.1337,-2.1749,-2.1392,-2.0457,-1.9589,-1.9166,-1.9007,-1.829,-1.8053,-1.8146,-1.8009,0.0,0.0,0.0,0.0,0.0,0.0,0.0,0.0,-1.6581,-1.6344,-1.6332,-1.6938,-1.7488,-1.8167,0.0,0.0,0.0,0.0,0.0,0.0,0.0,0.0,0.0,0.0,0.0,0.0,0.0,0.0,0.0,0.0,0.0,-4.0104,-4.0087,-4.0002,-3.9511,-3.8479,-3.793,-3.7291,-3.6569,-3.5814,-3.5003,-3.4137,-3.2996,-3.1933,-3.0996,-3.0006,-2.9726,-3.0228,-2.9686,-2.9454,-2.9454,-2.9454,-2.9182,-2.8651,-2.9209,-2.9182,-2.8692,-2.9862,-3.0637,-3.1146,-3.1457,-3.1718,-3.189,-3.1833,-3.2182,-3.2761,-3.2528,-3.3043,-3.3924,-3.3759,-3.3955,-3.4386,0.0,0.0,0.0,0.0,0.0,0.0,0.0,0.0,0.0,0.0,0.0,0.0,0.0,0.0,0.0,0.0,0.0,0.0,0.0,-1.5101,-1.5491,-1.6366,-1.7007,-1.75,-1.7865,-1.8412,-1.8766,-1.8889,-1.9388,-2.0034,-2.0811,-2.1312,-2.1785,-2.2242,-2.2762,-2.2411,-2.1378,-2.0545,-1.9692,-1.8809,-1.8121,-1.7816,-1.78,-1.7664,-1.7687,0.0,0.0,0.0,0.0,0.0,0.0,0.0,-1.6952,-1.6633,-1.6576,-1.7743,-1.8249,-1.8813,0.0,0.0,0.0,0.0,0.0,0.0,0.0,0.0,0.0,0.0,0.0,0.0,0.0,0.0,0.0,0.0,-3.9183,-4.0082,-4.0092,-3.9106,-3.8504,-3.8983,-3.821,-3.7335,-3.651,-3.5781,-3.4705,-3.3141,-3.2302,-3.1203,-2.9764,-2.9448,-2.9256,-2.898,-2.8858,-2.8957,-2.9315,-2.8957,-2.8903,-2.9135,-2.8903,-2.8889,-2.9149,-2.9896,-3.067,-3.1266,-3.0543,-3.1083,-3.2407,-3.1901,-3.23,-3.3267,-3.3193,-3.3661,-3.4268,-3.4268,-3.4268,-3.4383,0.0,0.0,0.0,0.0,0.0,0.0,0.0,0.0,0.0,0.0,0.0,0.0,0.0,0.0,0.0,0.0,0.0,0.0,0.0,0.0,-1.5621,-1.5727,-1.6132,-1.6546,-1.6929,-1.7642,-1.8222,-1.8595,-1.9268,-1.9977,-2.0711,-2.1241,-2.1856,-2.247,-2.301,-2.2867,-2.2141,-2.0852,-1.993,-1.921,-1.7959,-1.7462,-1.7486,-1.7296,-1.7296,-1.7415,-1.7344,0.0,0.0,0.0,0.0,0.0,0.0,0.0,-1.6945,-1.8224,-1.8808,-1.9414,0.0,0.0,0.0,0.0,0.0,0.0,0.0,0.0,0.0,0.0,0.0,0.0,0.0,0.0,0.0,0.0,-3.8557,-3.9299,-4.0001,-3.821,-3.7053,-3.7722,-3.7416,-3.681,-3.5973,-3.5284,-3.4422,-3.3356,-3.2399,-3.142,-3.0254,-2.9794,-2.9373,-2.8944,-2.8716,-2.8716,-2.8944,-2.8716,-2.8716,-2.8944,-2.8944,-2.9373,-3.0222,-3.0553,-3.0881,-3.1291,-3.1132,-3.1586,-3.2463,-3.2185,-3.2374,-3.2921,-3.3119,-3.3352,-3.3676,-3.383,-3.3886,-3.3824,0.0,0.0,0.0,0.0,0.0,0.0,0.0,0.0,0.0,0.0,0.0,0.0,0.0,0.0,0.0,0.0,0.0,0.0,0.0,0.0,0.0,-1.503,-1.4995,-1.5283,-1.5957,-1.6855,-1.764,-1.8369,-1.9162,-1.9904,-2.0572,-2.1134,-2.1742,-2.2364,-2.2917,-2.2958,-2.2496,-2.0831,-1.9917,-1.9478,-1.7748,-1.7126,-1.715,-1.6876,-1.6876,-1.6977,-1.6977,-1.6986,-1.7035,-1.7224,0.0,0.0,0.0,0.0,-1.7277,-1.8379,-1.9014,-1.9707,0.0,0.0,0.0,0.0,0.0,0.0,0.0,0.0,0.0,0.0,0.0,0.0,0.0,0.0,0.0,-3.7516,-3.7486,-3.7919,-3.9153,-3.7155,-3.5759,-3.6303,-3.6381,-3.6117,-3.5324,-3.4691,-3.4132,-3.3779,-3.2678,-3.181,-3.1218,-3.0348,-2.9681,-2.9296,-2.8944,-2.8716,-2.8716,-2.8556,-2.8502,-2.8552,-2.8934,-2.9651,-3.066,-3.0949,-3.124,-3.1507,-3.1845,-3.216,-3.2377,-3.2253,-3.2284,-3.2392,-3.271,-3.2841,-3.3005,-3.3203,-3.3309,-3.3309,0.0,0.0,0.0,0.0,0.0,0.0,0.0,0.0,0.0,0.0,0.0,0.0,0.0,0.0,0.0,0.0,0.0,0.0,-1.6987,0.0,0.0,-1.5025,-1.4938,-1.4959,-1.5071,-1.6545,-1.735,-1.7479,-1.8798,-1.9727,-2.0353,-2.108,-2.1666,-2.2176,-2.2805,-2.2611,-2.1685,-2.0626,-1.9538,-1.8423,-1.7376,-1.6825,-1.6659,-1.6398,-1.6371,-1.649,-1.6421,-1.6512,-1.6706,-1.701,-1.7224,0.0,0.0,0.0,-1.7388,-1.8085,-1.8575,-1.9103,0.0,0.0,0.0,0.0,0.0,0.0,0.0,0.0,0.0,0.0,0.0,0.0,0.0,0.0,0.0,-3.5926,-3.5925,-3.5963,-3.6192,-3.5828,-3.5844,-3.6404,-3.5959,-3.5424,-3.484,-3.4504,-3.3959,-3.3068,-3.2298,-3.1643,-3.1188,-3.0526,-2.9885,-2.9282,-2.9247,-2.9184,-2.9184,-2.8247,-2.8001,-2.8455,-2.8344,-2.8454,-2.867,-2.9922,-3.1305,-3.2602,-3.0998,-3.1093,-3.2242,-3.1628,-3.1754,-3.2289,-3.2357,-3.2735,-3.3256,-3.3309,-3.3309,-3.3361,0.0,0.0,0.0,0.0,0.0,0.0,0.0,0.0,0.0,0.0,0.0,0.0,0.0,0.0,0.0,-1.7887,-1.7832,-1.7645,-1.7266,-1.6493,-1.5715,-1.4976,-1.4923,-1.5103,-1.5555,-1.6608,-1.7408,-1.7971,-1.9313,-2.029,0.0,-2.1637,-2.1974,-2.2064,-2.2702,-2.2634,-2.1892,-2.0475,-1.9654,-1.92,-1.78,-1.7207,-1.7141,-1.6949,-1.6645,-1.6262,-1.6191,-1.6219,-1.6297,-1.6565,-1.6722,-1.6841,-1.7002,0.0,0.0,0.0,-1.8929,0.0,0.0,0.0,0.0,0.0,0.0,0.0,0.0,0.0,0.0,0.0,0.0,0.0,0.0,0.0,0.0,-3.4762,-3.482,-3.4587,-3.3912,-3.3923,-3.3874,-3.3587,-3.3643,-3.3583,-3.3158,-3.3173,-3.283,-3.1997,-3.1894,-3.1511,-3.0813,-3.0088,-2.9501,-2.9042,-2.8521,-2.8385,-2.8733,-2.7735,-2.7434,-2.7875,-2.774,-2.8121,-2.9064,-2.9225,-3.0114,-3.1471,-3.0923,-3.1049,-3.165,-3.1349,-3.1397,-3.1713,-3.2108,-3.2218,-3.2171,-3.2582,-3.2471,-3.2139,0.0,0.0,0.0,0.0,0.0,0.0,0.0,0.0,0.0,0.0,0.0,0.0,0.0,0.0,0.0,0.0,-1.8564,-1.8244,-1.7552,-1.6933,-1.6265,-1.5518,-1.5461,-1.571,-1.6313,-1.6948,-1.7638,-1.8372,-1.9711,-2.0716,-2.1349,-2.2039,-2.2327,0.0,-2.2481,-2.2358,-2.1837,-2.0234,-1.9617,-1.9585,-1.8169,-1.7587,-1.7573,-1.7394,-1.6924,-1.6366,-1.6186,-1.6082,-1.6052,-1.6182,-1.6246,-1.6301,-1.6565,-1.6712,0.0,0.0,0.0,0.0,0.0,0.0,0.0,0.0,0.0,0.0,0.0,0.0,0.0,0.0,0.0,0.0,0.0,0.0,-3.355,-3.3939,-3.3905,-3.3533,-3.2744,-3.2689,-3.2436,-3.1675,-3.2023,-3.2148,-3.1756,-3.1883,-3.1776,-3.1255,-3.1388,-3.1217,-3.0552,-2.978,-2.9217,-2.8902,-2.8226,-2.7931,-2.8093,-2.7045,-2.6676,-2.6837,-2.6849,-2.7556,-2.8906,-2.8449,-2.8778,-2.9763,-3.0396,-3.078,-3.0939,-3.0765,-3.0796,-3.1002,-3.1523,-3.1523,-3.1286,-3.1808,-3.1665,-3.1207,0.0,0.0,0.0,0.0,0.0,0.0,0.0,0.0,0.0,0.0,0.0,0.0,-1.8395,-1.8943,-1.9394,-1.9527,-1.9471,-1.9115,-1.8392,-1.8304,-1.7925,-1.7113,-1.696,0.0,-1.6946,-1.767,-1.8035,-1.802,-1.9552,-2.0625,-2.1223,-2.1904,-2.2464,-2.2915,-2.2136,-2.1481,-2.0899,0.0,0.0,0.0,-1.8083,-1.7751,-1.7459,-1.7209,-1.7011,-1.68,-1.6351,-1.6198,-1.6174,-1.6036,-1.6067,-1.6179,-1.6421,-1.6565,-1.6744,0.0,0.0,0.0,0.0,0.0,0.0,0.0,0.0,0.0,0.0,0.0,0.0,0.0,0.0,0.0,0.0,0.0,-3.3406,-3.344,-3.3069,-3.2925,-3.3296,-3.2976,-3.2673,-3.2614,-3.242,-3.203,-3.1313,-3.1246,-3.1255,-3.1223,-3.0638,-3.0446,-3.076,-3.0068,-2.9536,-2.9203,-2.9108,-2.8566,-2.7468,-2.6462,-2.5656,-2.5157,-2.5564,-2.6153,-2.6884,-2.7464,-2.774,-2.7905,-2.8809,-2.9611,-3.018,-2.9516,-2.9627,-3.0243,-3.0275,-3.067,-3.1223,-3.1255,-3.1239,-3.1257,0.0,0.0,0.0,0.0,0.0,0.0,0.0,0.0,0.0,0.0,0.0,0.0,0.0,-1.9203,-1.9357,-1.9408,-1.9363,-1.9026,-1.8318,-1.8227,-1.7831,-1.6982,-1.6938,-1.7128,-1.7508,-1.7769,-1.8188,-1.8763,-1.9704,-2.0532,-2.1209,-2.1886,-2.2464,-2.291,-2.2027,-2.1336,-2.0738,-1.9219,0.0,0.0,0.0,0.0,0.0,0.0,0.0,0.0,0.0,0.0,0.0,-1.7838,-1.7775,-1.7511,-1.7148,-1.6923,-1.6884,-1.7332,-1.8094,-1.8921,0.0,0.0,0.0,0.0,0.0,0.0,0.0,0.0,0.0,0.0,0.0,0.0,0.0,0.0,-3.1444,-3.1901,-3.105,-3.0634,-3.1532,-3.1318,-3.0986,-3.0849,-3.0898,-3.068,-2.9923,-3.0259,-3.0354,-2.9911,-2.991,-2.9797,-2.9481,-2.9069,-2.8744,-2.8432,-2.8129,-2.7428,-2.6329,-2.6325,-2.5876,-2.5005,-2.5508,-2.6028,-2.673,-2.7384,-2.7679,-2.7749,-2.8683,-2.9027,-2.8853,-2.9042,-2.9279,-2.9548,-3.0006,-3.0054,-2.9927,-3.0385,-3.0275,-2.988,0.0,0.0,0.0,0.0,0.0,0.0,0.0,0.0,0.0,-1.9526,0.0,0.0,0.0,0.0,-1.9295,-1.9266,-1.9248,-1.9026,-1.857,-1.8489,-1.8191,-1.7563,-1.7548,-1.7726,-1.812,-1.8088,-1.8391,-1.9017,-1.974,-2.0435,-2.1146,-2.1864,-2.2441,-2.2859,-2.1977,-2.1447,0.0,0.0,0.0,-1.8843,0.0,0.0,-1.7822,0.0,0.0,0.0,0.0,0.0,0.0,0.0,-1.8691,-1.8223,-1.7743,-1.7486,-1.7339,-1.721,-1.7974,-1.8883,-1.9098,0.0,0.0,0.0,0.0,0.0,0.0,0.0,0.0,0.0,0.0,0.0,0.0,-2.9008,-2.9583,-3.0328,-2.9634,-2.9239,-3.0023,-2.9909,-2.9664,-2.9525,-2.9666,-2.9603,-2.9124,-2.9526,-2.9643,-2.9169,-2.936,0.0,-2.8858,-2.8716,-2.8525,-2.8235,-2.763,-2.6836,-2.5916,-2.6073,-2.5758,-2.4929,-2.5204,-2.5717,-2.6358,-2.6804,-2.7031,-2.7079,-2.8198,-2.8476,-2.8142,-2.8837,-2.9075,-2.9122,-2.9643,-2.9532,-2.9138,-2.9659,-2.9532,-2.9075,0.0,0.0,0.0,0.0,0.0,0.0,0.0,0.0,-1.9308,-1.9375,0.0,0.0,0.0,0.0,0.0,-1.9184,-1.9246,-1.9261,-1.9202,-1.9202,-1.9117,-1.8998,-1.8878,-1.8788,-1.8788,-1.8677,-1.8623,-1.8697,-1.9572,-2.0334,-2.1029,-2.1834,-2.2435,-2.2859,-2.2012,-2.1701,-2.1731,0.0,-1.992,-1.9336,0.0,-1.8332,-1.7633,0.0,0.0,0.0,-2.004,-2.0049,0.0,-1.9092,0.0,0.0,0.0,0.0,-1.8048,-1.7028,-1.8021,-1.9301,0.0,0.0,0.0,0.0,0.0,0.0,0.0,0.0,0.0,0.0,0.0,0.0,0.0,-2.7705,-2.801,-2.8755,-2.8943,-2.896,-2.8975,-2.8958,-2.8958,-2.8975,-2.8976,-2.8968,-2.8985,-2.9022,-2.9059,-2.9075,-2.9075,-2.9075,-2.9075,-2.9059,-2.8951,-2.8638,-2.7769,-2.6956,-2.6302,-2.5633,-2.5147,-2.4674,-2.4727,-2.5067,-2.5705,-2.5705,-2.5685,-2.5795,-2.717,-2.7899,-2.811,-2.8837,-2.9075,-2.9075,-2.9075,-2.9075,-2.9075,-2.9075,-2.9075,-2.9075,0.0,0.0,0.0,0.0,0.0,-1.8517,-1.8499,-1.8761,-1.8947,0.0,0.0,0.0,-1.8966,-1.9036,-1.9104,-1.912,-1.9051,-1.9017,-1.8984,-1.8932,-1.8861,-1.8716,-1.8734,-1.8696,-1.86,-1.86,-1.8619,-1.8641,-1.9401,-2.0215,-2.1029,-2.171,-2.2347,-2.2876,-2.2444,-2.2067,-2.1698,-2.0197,0.0,0.0,-1.9406,-1.9246,0.0,0.0,0.0,0.0,0.0,-2.0956,-2.0963,0.0,-2.0782,-1.9811,0.0,0.0,-1.7358,-1.7018,-1.7446,-1.8121,-1.8485,0.0,0.0,0.0,0.0,0.0,0.0,0.0,0.0,0.0,0.0,0.0,-2.5079,-2.5714,-2.6285,-2.6505,-2.6979,-2.7723,-2.8822,-2.8501,-2.8224,-2.8524,-2.8395,-2.8364,-2.8618,-2.8503,-2.8584,0.0,-2.9075,-2.9075,-2.9075,-2.8465,-2.7719,-2.6995,-2.7005,-2.6561,-2.5616,-2.5879,-2.5581,-2.4705,-2.484,-2.5087,-2.5408,-2.5747,-2.5803,-2.5737,-2.7303,-2.7782,-2.7478,-2.8647,-2.9075,-2.9075,-2.9075,-2.9075,-2.9075,-2.9075,-2.9075,-2.9075,0.0,0.0,0.0,0.0,0.0,-1.8681,-1.85,-1.8968,-1.9219,0.0,0.0,0.0,-1.9434,-1.9417,-1.9345,-1.9038,-1.9219,-1.9183,-1.8788,-1.9053,-1.9032,-1.8582,-1.8843,-1.8781,-1.8348,-1.8325,-1.8304,-1.831,-1.8784,-1.9612,-2.0802,-2.1155,-2.184,-2.2764,-2.2463,0.0,0.0,0.0,0.0,0.0,-1.9578,0.0,0.0,-2.048,-2.0719,0.0,0.0,0.0,-2.2282,-2.231,-2.1764,0.0,0.0,0.0,-1.8004,-1.7712,-1.7784,-1.8071,-1.8556,-1.9001,0.0,0.0,0.0,0.0,-2.046,-2.0944,0.0,0.0,0.0,0.0,-2.4315,-2.4597,-2.4946,-2.5698,-2.5816,-2.6353,-2.7841,-2.7638,-2.7433,-2.7676,-2.7699,-2.7755,-2.7843,-2.7849,-2.8069,-2.8647,-2.8695,-2.8695,-2.8695,-2.7913,-2.7214,-2.6632,-2.6764,-2.6398,-2.55,-2.5741,-2.5493,-2.4717,-2.4811,-2.4951,-2.5073,-2.5319,-2.5356,-2.5243,-2.6522,-2.6918,-2.6735,-2.7826,-2.8616,-2.9075,-2.9075,-2.9075,-2.9075,-2.9075,-2.9075,-2.9075,0.0,0.0,-1.8243,-1.7683,-1.8216,-1.852,-1.7915,-1.9093,-1.9811,0.0,-2.0387,-2.1054,-2.0371,-2.019,-1.9829,-1.9183,-1.9648,-1.9661,-1.8866,-1.9412,-1.9406,-1.8623,-1.9017,-1.8914,-1.8128,-1.7975,-1.7905,-1.7927,-1.8107,-1.8972,-2.0454,-2.0549,-2.1301,-2.2525,-2.2198,0.0,0.0,0.0,0.0,-2.0109,-1.9815,-1.9499,0.0,0.0,-2.107,-2.0767,-2.2593,-2.3274,-2.3173,-2.2382,-2.1903,0.0,0.0,0.0,-1.942,-1.8884,-1.8648,-1.8669,-1.8784,-1.9236,-1.9675,0.0,0.0,0.0,-2.0289,-2.0444,-2.087,0.0,0.0,0.0,-2.4263,-2.3898,-2.3896,-2.5454,-2.5125,-2.5129,-2.6522,-2.6691,-2.6691,-2.6691,-2.7021,-2.7164,-2.6951,-2.7243,-2.7592,-2.8009,-2.8028,-2.7952,-2.7873,-2.7304,-2.6941,-2.6835,-2.6635,-2.6252,-2.5608,-2.5416,-2.5098,-2.47,-2.47,-2.47,-2.47,-2.47,-2.4686,-2.4677,-2.5404,-2.5827,-2.6056,-2.6799,-2.781,-2.89,-2.89,-2.8902,-2.9011,-2.9011,-2.9012,-2.9121,0.0,-1.7971,-1.8027,-1.8049,-1.8115,-1.8419,-1.918,-1.9515,-1.9823,-2.0215,-2.0552,-2.0823,-2.099,-2.0435,-2.0162,-2.0548,-2.0134,-1.992,-2.0117,-1.9712,-1.936,-1.9083,-1.8663,-1.8374,-1.827,-1.8074,-1.8009,-1.8065,-1.9056,-1.9755,-2.0201,-2.1317,-2.1921,-2.2113,-2.1928,0.0,0.0,0.0,0.0,-2.0989,-2.1066,0.0,-2.1282,-2.1874,-2.2039,-2.1967,-2.2355,-2.2513,-2.2365,-2.137,-2.1632,-2.2135,0.0,0.0,0.0,-2.0114,-1.9488,-1.8822,-1.8822,0.0,0.0,0.0,0.0,0.0,-2.0429,-2.046,-2.0525,0.0,0.0,-2.1229,-2.1616,-2.2182,-2.2752,-2.3062,-2.4182,-2.5397,-2.6539,-2.6691,-2.6691,-2.6691,-2.6756,-2.6911,-2.7181,-2.7082,-2.7201,-2.7576,-2.7402,-2.7036,-2.6451,-2.6293,-2.5879,-2.5108,-2.5566,-2.5477,-2.4833,-2.5295,-2.5253,-2.4611,-2.4833,-2.4833,-2.4611,-2.4833,-2.4916,-2.4973,-2.5652,-2.5967,-2.6056,-2.6799,-2.7257,-2.7494,-2.7494,-2.7826,-2.83,-2.83,-2.8647,-2.9121,0.0,-1.7772,-1.7878,-1.7983,-1.807,-1.8443,-1.95,-2.0019,-2.0432,-2.0802,-2.0767,-2.0907,-2.1445,-2.1079,-2.0745,-2.0615,-2.0564,-2.0448,-2.0264,-1.9898,-1.9668,-1.9539,-1.9168,-1.8958,-1.8965,-1.8741,-1.8643,-1.861,-1.9282,-1.9874,-2.0374,-2.1028,-2.1561,-2.1882,-2.1691,-2.1464,0.0,0.0,-2.1294,-2.1324,-2.1276,0.0,-2.1691,-2.1945,-2.2077,-2.2106,-2.2237,-2.2547,-2.2866,-2.2867,-2.2865,0.0,0.0,-2.1506,-2.0953,0.0,-2.0062,-1.9184,0.0,0.0,0.0,-1.9273,0.0,0.0,0.0,-2.0392,-2.0494,-2.0893,-2.0745,-2.0771,-2.1288,0.0,-2.1657,-2.2531,-2.31,-2.386,-2.5096,-2.6084,-2.6519,-2.601,-2.6403,-2.6792,-2.6989,-2.6892,-2.6726,-2.6566,-2.6686,-2.6621,-2.627,-2.5758,-2.5289,-2.4806,-2.5136,-2.5152,-2.4806,-2.5136,-2.5136,-2.4806,-2.4926,-2.4926,-2.4791,-2.4926,-2.5005,-2.5021,-2.5385,-2.5487,-2.5519,-2.5882,-2.604,-2.6119,-2.683,-2.7304,-2.7604,-2.7604,-2.7898,-2.8391,-1.7769,-1.7994,-1.8131,-1.7979,-1.8273,-1.875,-1.9404,-2.0293,-2.0951,-2.1178,-2.1145,-2.1342,-2.1923,-2.1707,-2.1307,-2.0719,-2.1011,-2.1019,-2.0424,-2.0229,-2.0119,-2.0032,-1.9803,-1.9674,-1.9584,-1.9411,-1.9244,-1.9131,-1.9333,-1.9788,-2.0475,-2.0564,-2.1016,-2.1678,-2.1564,-2.1488,0.0,0.0,0.0,-2.1706,0.0,-2.1598,-2.1615,-2.1976,-2.2032,-2.1974,-2.236,-2.2885,-2.3536,-2.4381,-2.4228,-2.3614,-2.3298,-2.2552,0.0,0.0,0.0,0.0,0.0,0.0,0.0,0.0,0.0,-1.9812,0.0,0.0,0.0,0.0,0.0,0.0,0.0,0.0,0.0,0.0,0.0,0.0,0.0,-2.4828,0.0,-2.52,-2.5542,-2.6067,-2.6623,-2.6723,-2.646,-2.5868,-2.614,-2.6338,-2.6331,-2.5416,-2.4941,-2.5084,-2.4736,-2.4673,-2.4799,-2.4673,-2.4673,-2.4776,-2.4776,-2.4879,-2.5005,-2.5005,-2.5005,-2.5005,-2.5005,-2.5005,-2.5005,-2.5005,-2.5005,-2.5132,-2.6246,-2.6767,-2.6893,-2.6978,-2.7211,-2.758,-1.8433,-1.8983,-1.9361,-1.8635,-1.9177,-1.957,-1.9207,-1.9848,-2.069,-2.1527,-2.2022,-2.2409,-2.2678,0.0,0.0,0.0,0.0,0.0,-2.1657,0.0,-2.0622,-2.0442,-1.9888,-1.9611,-1.9605,-1.9405,-1.9295,-1.9267,-1.9715,-1.9979,-2.0076,-2.0734,-2.1119,-2.1294,-2.1777,0.0,0.0,0.0,-2.2981,0.0,-2.3437,-2.3031,0.0,-2.2887,-2.2719,-2.2111,-2.2962,-2.3325,-2.3422,0.0,-2.4297,-2.5063,0.0,-2.3328,-2.3271,-2.1614,0.0,0.0,0.0,0.0,0.0,0.0,-1.886,0.0,0.0,0.0,-1.9874,-1.9839,0.0,0.0,0.0,0.0,0.0,0.0,0.0,0.0,-2.1392,-2.2426,-2.3637,-2.4726,-2.361,-2.3823,-2.6432,-2.6707,-2.6657,-2.6572,-2.6295,-2.603,-2.5721,-2.4931,-2.4735,-2.5323,-2.3915,-2.3417,-2.4033,-2.3433,-2.3433,-2.4033,-2.4033,-2.4365,-2.5005,-2.5005,-2.5005,-2.5005,-2.5005,-2.5005,-2.5005,-2.5005,-2.5005,-2.5021,-2.5195,-2.5582,-2.6176,-2.6462,-2.6969,-2.7598,-1.9181,-1.9359,0.0,-1.9177,-1.9612,-2.0069,-2.0128,-2.0857,-2.1566,-2.1996,-2.215,-2.244,0.0,0.0,0.0,0.0,0.0,-2.1766,0.0,0.0,-2.1151,-2.2465,-2.0793,-2.0293,-2.1272,-2.0659,-2.0297,-2.0235,-2.051,-2.0591,-2.0544,-2.0911,-2.1311,-2.1728,-2.2166,0.0,-2.2443,0.0,-2.3456,0.0,0.0,0.0,0.0,-2.3809,-2.3786,-2.357,-2.4377,-2.4678,-2.4749,0.0,-2.5254,0.0,0.0,0.0,0.0,0.0,0.0,0.0,0.0,0.0,0.0,0.0,0.0,0.0,-2.0032,0.0,-2.0255,0.0,0.0,0.0,0.0,0.0,0.0,0.0,-2.0895,0.0,0.0,0.0,-2.2863,0.0,0.0,0.0,-2.6454,-2.5162,-2.4013,-2.3687,-2.5412,-2.5893,-2.4587,-2.4544,-2.459,-2.4658,-2.3958,-2.3522,-2.3326,-2.2765,-2.2661,-2.2907,-2.3447,-2.3759,-2.3802,-2.4058,-2.4027,-2.3818,-2.4058,-2.4198,-2.4217,-2.4791,-2.5153,-2.5341,-2.5269,-2.5416,-2.5671,-2.5789,-2.6237,-2.6907,-1.9702,0.0,0.0,0.0,-2.0119,-2.0515,-2.0722,-2.1273,-2.1692,0.0,0.0,0.0,-2.3207,-2.2867,0.0,0.0,-2.277,-2.2578,0.0,0.0,-2.1655,-2.3884,-2.1873,0.0,0.0,-2.1811,-2.1263,-2.0893,-2.0974,-2.0974,-2.0861,-2.0974,-2.1405,-2.2093,0.0,-2.2767,-2.3095,0.0,0.0,-2.3617,-2.5096,-2.5296,-2.4713,-2.4519,-2.4492,-2.4608,-2.5338,-2.5609,-2.5678,-2.6387,-2.6087,0.0,-2.5835,0.0,0.0,0.0,0.0,0.0,-2.1286,0.0,0.0,0.0,0.0,0.0,0.0,0.0,0.0,0.0,0.0,0.0,0.0,0.0,-2.0304,-1.9945,0.0,-2.0768,0.0,-2.1443,0.0,0.0,0.0,0.0,0.0,-2.3572,-2.1985,-2.1424,-2.4331,-2.5413,-2.3704,-2.4162,-2.4377,-2.4133,-2.3652,-2.3221,-2.2857,-2.2264,-2.2074,-2.2374,-2.267,-2.3032,-2.3403,-2.3385,-2.3385,-2.3419,-2.3818,-2.3887,-2.3767,-2.3941,-2.4569,-2.5353,-2.5248,-2.5389,-2.5642,-2.5642,-2.5921,-2.6414,-1.9876,-2.0791,0.0,0.0,0.0,0.0,-2.044,0.0,0.0,0.0,0.0,0.0,0.0,0.0,0.0,0.0,0.0,-2.3934,-2.395,0.0,-2.2131,-2.3852,-2.2949,-2.2411,0.0,-2.2362,-2.1875,-2.0893,-2.086,-2.0794,-2.0794,-2.0794,-2.1256,-2.2038,-2.2619,-2.3629,-2.4857,-2.5576,-2.5708,-2.5559,-2.6353,-2.664,-2.6438,0.0,-2.4399,-2.4608,-2.5338,0.0,0.0,-2.6149,-2.6453,0.0,0.0,0.0,0.0,0.0,0.0,0.0,0.0,0.0,0.0,-2.0837,0.0,0.0,0.0,0.0,-2.0524,0.0,0.0,0.0,0.0,-2.0096,-2.0339,-2.0115,-2.0131,0.0,0.0,0.0,0.0,0.0,0.0,0.0,0.0,-2.2473,-2.1755,-2.1148,-2.3388,-2.4377,-2.3468,-2.3736,-2.3968,-2.4098,-2.2468,-2.1935,-2.2703,-2.1789,-2.1825,-2.2765,-2.1503,-2.2197,-2.4582,-2.3448,-2.3564,-2.465,-2.4876,-2.4625,-2.3967,-2.2282,-2.2854,-2.4715,-2.4732,-2.5351,-2.626,-2.626,-2.6295,-2.633,0.0,0.0,0.0,0.0,0.0,0.0,0.0,-2.1054,0.0,0.0,0.0,0.0,0.0,-2.6681,-2.6597,0.0,0.0,-2.5179,-2.5748,-2.4647,0.0,0.0,0.0,-2.4572,0.0,0.0,-2.324,-2.2239,-2.2204,-2.2169,-2.2169,-2.2169,-2.2584,-2.3249,0.0,-2.3767,0.0,0.0,0.0,0.0,0.0,-2.6383,-2.6193,0.0,-2.5914,-2.5981,-2.6234,-2.6336,0.0,-2.6505,-2.6504,-2.6383,-2.5997,-2.5357,-2.4673,-2.3958,-2.3233,-2.2659,0.0,0.0,-2.2251,-2.2496,0.0,0.0,0.0,0.0,0.0,0.0,0.0,0.0,0.0,-2.0243,-2.0045,-1.9758,-1.9844,-1.9934,0.0,0.0,0.0,0.0,0.0,0.0,0.0,0.0,-2.207,-2.1117,-2.2814,-2.3601,-2.2978,-2.33,-2.3625,-2.3873,-2.3326,-2.3298,-2.3882,-2.3259,-2.3358,-2.4099,-2.3206,-2.2978,-2.3375,-2.3472,-2.3112,-2.2442,-2.2281,-2.2264,-2.2361,-2.2131,-2.3225,-2.5046,-2.5028,-2.568,-2.6556,-2.6365,-2.6418,-2.659,-2.0102,0.0,0.0,0.0,0.0,0.0,0.0,0.0,0.0,0.0,-2.5824,0.0,-2.8102,0.0,-2.8511,0.0,-2.7264,-2.691,-2.7469,-2.6386,0.0,-2.7063,-2.6464,0.0,0.0,0.0,-2.4055,-2.306,-2.2952,-2.288,-2.288,-2.288,-2.3259,-2.3907,0.0,-2.3939,-2.4875,0.0,-2.5441,0.0,0.0,-2.6279,0.0,0.0,-2.6556,-2.6556,0.0,-2.6691,-2.6691,-2.6691,-2.659,-2.6418,-2.6418,-2.5709,-2.48,-2.4681,-2.3945,-2.3245,-2.3537,-2.3348,0.0,-2.3421,-2.3229,0.0,-2.2381,0.0,-2.213,0.0,0.0,0.0,0.0,-2.0664,-2.0177,-1.9566,-1.9681,-1.9793,0.0,-2.0008,0.0,0.0,0.0,0.0,0.0,0.0,-2.1988,-2.1197,-2.247,-2.3171,-2.2828,-2.3326,-2.3748,-2.4045,-2.4045,-2.4264,-2.4736,-2.4444,-2.4679,-2.5446,-2.4514,-2.3802,-2.3335,-2.3287,-2.2824,-2.2016,-2.154,-2.1716,-2.2308,-2.2307,-2.3255,-2.4671,-2.4609,-2.5429,-2.6691,-2.6504,-2.6556,-2.6691,0.0,0.0,0.0,0.0,-2.0441,0.0,0.0,0.0,-2.4035,0.0,-2.6885,-2.9025,-2.7569,-2.9615,-3.0555,-2.9279,-2.911,-2.9076,-2.9042,-2.7513,0.0,0.0,-2.7024,-2.6182,-2.5363,0.0,0.0,-2.3388,-2.3088,-2.2979,-2.3011,-2.2979,-2.3307,-2.3916,-2.3709,0.0,-2.513,-2.5373,-2.5672,-2.6049,-2.6243,-2.6349,-2.6383,-2.633,-2.633,-2.633,-2.659,-2.6691,-2.6691,-2.6691,-2.6691,-2.6691,-2.6691,-2.6367,-2.5888,-2.5577,-2.495,-2.4323,-2.4051,-2.3581,-2.3216,-2.3508,-2.3553,0.0,0.0,0.0,-2.3881,0.0,0.0,0.0,0.0,0.0,-2.0749,-1.959,-1.9581,-1.9639,-1.9515,-1.942,-1.9603,0.0,0.0,0.0,0.0,-2.1389,-2.1511,-2.1386,-2.2289,-2.2889,0.0,-2.3727,-2.4255,-2.4526,-2.4557,-2.4774,-2.5272,-2.5272,-2.5732,-2.67,-2.5231,-2.4522,-2.4455,-2.3021,-2.2733,-2.3308,-2.2615,-2.2846,-2.365,-2.2694,-2.2895,-2.3731,-2.3498,-2.4729,-2.664,-2.6674,-2.6691,-2.6691,-1.9943,-1.9974,-2.01,0.0,-2.0254,-2.0339,0.0,0.0,0.0,0.0,-2.8682,-3.109,-3.1399,-3.2714,-3.3009,-3.1562,-3.0937,0.0,0.0,0.0,0.0,-2.7823,-2.8665,-2.8185,-2.6097,-2.6294,0.0,-2.4869,-2.4148,-2.4014,-2.4467,-2.3998,-2.4125,-2.4681,0.0,0.0,-2.5059,-2.4799,-2.5285,-2.6243,-2.6487,-2.6487,-2.6365,0.0,-2.6453,-2.633,-2.659,-2.6691,-2.6691,-2.6691,-2.6691,-2.6657,-2.6469,-2.6049,-2.554,-2.5067,-2.4527,-2.4036,-2.3782,-2.361,-2.3465,-2.3551,-2.3408,-2.3183,-2.3171,0.0,0.0,0.0,0.0,0.0,0.0,0.0,-2.0855,-1.9669,-1.96,-1.9636,-1.9528,0.0,0.0,-1.9995,0.0,0.0,-2.1038,-2.1119,-2.1182,-2.1262,-2.1691,-2.2205,-2.281,0.0,-2.384,-2.4972,-2.5205,-2.5658,-2.6317,-2.6317,-2.6453,-2.669,-2.5541,-2.4847,-2.4489,-2.3757,-2.3129,-2.2581,-2.2395,-2.2446,-2.2677,-2.2412,-2.2772,-2.3498,-2.3444,-2.4425,-2.5947,-2.6488,-2.6691,-2.6691,-2.0442,0.0,0.0,-2.1121,0.0,0.0,-2.1925,0.0,0.0,-2.7308,-3.0599,0.0,-3.245,-3.3674,-3.3897,-3.2408,-3.1901,0.0,-3.0632,0.0,0.0,-2.8873,-2.9651,-2.9121,-2.6989,-2.7105,0.0,-2.5642,-2.4916,-2.4703,-2.5005,-2.4532,-2.4524,-2.4871,0.0,-2.4469,0.0,-2.489,-2.5505,-2.6564,-2.6868,-2.6956,0.0,-2.6991,-2.6772,-2.6487,-2.6657,-2.6691,-2.6691,-2.6691,-2.6691,-2.6624,-2.6279,-2.5815,-2.5259,-2.4712,-2.4214,-2.3839,-2.3782,-2.3696,-2.3638,-2.3739,-2.3834,-2.3837,-2.3554,-2.3848,-2.4268,0.0,-2.4327,-2.4106,0.0,0.0,-2.1353,-1.9852,-1.9456,-1.9368,0.0,0.0,0.0,0.0,-1.9879,0.0,-2.0924,-2.1023,-2.1055,-2.1119,-2.1419,-2.2155,-2.3429,0.0,-2.3875,-2.5797,-2.5966,-2.6034,-2.6017,-2.6792,-2.6674,-2.5629,-2.5139,-2.458,-2.4002,-2.3757,-2.3134,-2.2282,-2.231,-2.2293,-2.2344,-2.2779,-2.3435,-2.4211,-2.4337,-2.4661,-2.5203,-2.5947,-2.642,-2.6691,0.0,0.0,0.0,0.0,0.0,0.0,0.0,-2.6221,0.0,-2.919,0.0,-3.3826,-3.2276,-3.354,-3.3931,-3.2544,0.0,-3.1968,-3.1241,-3.119,-3.0818,-2.9989,-3.0057,-2.9397,-2.7823,-2.764,-2.7068,0.0,-2.5448,-2.5068,-2.4926,-2.471,-2.467,-2.4782,0.0,0.0,0.0,-2.5317,-2.6086,-2.7066,-2.7354,-2.752,-2.7593,-2.752,-2.7142,-2.6691,-2.6691,-2.6691,-2.6691,-2.6691,-2.6691,-2.6556,-2.6085,-2.5577,-2.5067,-2.4552,-2.4074,-2.3809,-2.4051,-2.3937,-2.3852,-2.4078,-2.4579,-2.4811,-2.4258,-2.4748,-2.5358,-2.5518,-2.5351,-2.5313,-2.5994,-2.42,-2.2127,-2.0464,0.0,0.0,0.0,0.0,0.0,0.0,0.0,0.0,0.0,-2.0909,-2.1023,-2.1007,-2.134,-2.2269,-2.3933,0.0,-2.3942,-2.6016,-2.632,-2.6101,-2.5312,-2.6858,-2.664,-2.459,-2.4546,-2.4103,-2.3393,-2.3291,-2.2919,-2.2299,-2.2308,-2.2303,-2.2378,-2.335,-2.4292,-2.5139,-2.5471,-2.5203,-2.4712,-2.5473,-2.615,-2.6691,0.0,0.0,0.0,0.0,0.0,-2.5846,-2.984,-2.9146,-2.8871,-3.068,-3.2785,-3.3974,-3.3634,-3.4145,-3.415,-3.3288,-3.2645,0.0,0.0,0.0,0.0,-2.9245,-2.9786,-2.9397,-2.7823,-2.8126,-2.776,0.0,-2.5821,-2.5162,-2.467,-2.4695,-2.4655,-2.4692,0.0,0.0,-2.6519,-2.5812,0.0,-2.8173,-2.7847,-2.7754,-2.7754,-2.7754,-2.7316,-2.6691,-2.6691,-2.6691,-2.6691,-2.6691,-2.6556,-2.6279,-2.5762,-2.5368,-2.4997,-2.4492,-2.442,-2.4511,-2.4567,-2.4752,-2.4934,-2.4989,-2.4846,-2.4789,-2.4942,-2.5256,-2.5535,-2.5848,-2.6175,-2.6332,-2.6137,-2.4398,0.0,0.0,0.0,0.0,0.0,0.0,0.0,0.0,0.0,-2.1662,0.0,0.0,-2.0744,-2.1054,-2.1215,-2.1501,-2.2057,0.0,-2.2843,0.0,-2.4693,-2.5899,0.0,0.0,-2.6691,-2.6269,-2.5067,-2.4103,-2.3376,-2.2784,-2.2429,-2.231,-2.2316,-2.2316,-2.2361,-2.3168,-2.393,-2.4675,-2.5338,-2.5524,-2.5507,-2.6234,-2.659,-2.6691,0.0,0.0,0.0,0.0,0.0,0.0,0.0,-3.2813,-3.2743,-3.3423,-3.4315,-3.469,-3.4303,-3.4739,-3.4624,-3.3508,-3.3068,-3.2391,-3.1258,-3.119,-3.0869,-3.0159,-3.048,-3.0142,-2.9042,-2.9198,-2.8748,-2.7541,-2.6497,-2.5959,-2.579,-2.5049,-2.4995,-2.561,0.0,-2.6918,0.0,0.0,0.0,-2.8915,-2.8979,-2.9008,-2.8958,-2.8569,-2.7943,-2.7283,-2.7283,-2.7029,-2.6691,-2.6691,-2.6652,-2.6574,-2.62,-2.603,-2.5926,-2.5701,-2.5493,-2.5318,-2.5624,-2.547,-2.5221,-2.5335,-2.5221,-2.5144,-2.5335,-2.5411,-2.5615,-2.6049,-2.6262,-2.618,-2.564,-2.535,0.0,0.0,0.0,0.0,0.0,0.0,0.0,0.0,0.0,0.0,0.0,0.0,0.0,0.0,0.0,-2.1344,-2.219,0.0,-2.2537,0.0,0.0,0.0,-2.5643,0.0,-2.6607,-2.528,-2.4768,-2.4103,-2.3376,-2.3038,-2.2665,-2.2344,-2.3105,-2.3224,-2.297,-2.4086,-2.4746,-2.5101,-2.5456,-2.5609,-2.5642,-2.5998,-2.637,-2.6691,0.0,-2.635,0.0,0.0,-2.9627,0.0,-3.4152,-3.5497,-3.6154,-3.6089,-3.596,-3.5571,-3.481,-3.4979,-3.4675,-3.3508,-3.3119,-3.2442,-3.1275,-3.119,-3.1123,-3.097,-3.1106,-3.0852,-3.0125,-3.026,-2.9688,-2.8352,-2.7322,-2.6814,-2.6776,-2.5603,-2.5741,-2.6976,0.0,0.0,0.0,0.0,-2.8976,-2.9752,-2.9989,-3.0108,-3.004,-2.9448,-2.8738,-2.8078,-2.8078,-2.7689,-2.7182,-2.7182,-2.7119,-2.6989,-2.686,-2.6894,-2.6988,-2.6972,-2.6635,-2.6381,-2.6675,-2.6281,-2.5756,-2.5758,-2.5726,-2.5689,-2.5726,-2.5726,-2.5815,-2.6279,-2.6324,-2.6134,-2.5677,-2.6399,-2.6541,0.0,0.0,0.0,0.0,0.0,0.0,0.0,0.0,0.0,-2.217,0.0,0.0,0.0,0.0,-2.1375,-2.2667,-2.1808,-2.236,-2.4712,-2.4946,-2.4978,-2.4905,0.0,-2.6471,-2.4363,-2.4603,-2.4171,-2.3173,-2.3477,-2.3139,-2.2395,-2.3849,-2.4255,-2.3951,-2.5135,-2.5693,-2.5828,-2.5659,-2.571,-2.5828,-2.5709,-2.6148,-2.6775,0.0,0.0,0.0,0.0,0.0,0.0,-3.4252,-3.5389,-3.6443,-3.7542,-3.7094,-3.6366,-3.5588,-3.4387,-3.3558,-3.3423,-3.2188,-3.1343,-3.1207,-3.119,-3.0903,-3.0243,-3.0835,-3.0852,-3.0125,-3.0751,-3.0386,0.0,-2.8095,-2.7278,-2.6525,-2.6332,-2.7041,-2.8451,-2.7585,0.0,-2.9753,-2.8853,-2.9487,-3.0982,-3.034,-3.0108,-3.0108,-3.0023,-2.9533,-2.8873,-2.8873,-2.8822,-2.8772,-2.8772,-2.8169,-2.7383,-2.7564,-2.7591,-2.7583,-2.7269,-2.7551,-2.7888,-2.745,-2.7437,-2.7397,-2.6758,-2.6418,-2.6279,-2.6521,-2.6418,-2.6314,-2.659,-2.7006,-2.7314,-2.7516,-2.7003,-2.6421,0.0,0.0,0.0,0.0,0.0,-2.5067,-2.617,0.0,0.0,0.0,-2.0691,0.0,0.0,-2.0695,-2.131,-2.2459,-2.1745,-2.1856,-2.3104,-2.3784,-2.4497,-2.5246,-2.6201,-2.6303,-2.5443,-2.5475,-2.4425,-2.2462,-2.3782,-2.363,-2.2395,-2.3849,-2.4831,-2.5406,-2.5558,-2.5998,-2.6522,-2.5862,-2.6015,-2.6538,-2.6056,-2.6326,-2.6957,0.0,0.0,0.0,0.0,0.0,0.0,0.0,-3.6961,-3.7556,-3.7168,-3.6718,-3.6142,-3.5388,-3.4964,-3.437,-3.3491,-3.2865,-3.2324,-3.1884,-3.1444,-3.1258,-3.141,-3.1275,-3.0977,-3.0476,-3.0761,-3.0402,0.0,0.0,-2.8088,-2.792,-2.7165,-2.7301,-2.8174,-2.846,-2.891,-2.9508,-2.9741,-3.0239,-3.0878,-3.0791,-3.0768,-3.0717,-3.0277,-2.9922,-2.9651,-2.9651,-2.9364,-2.9163,-3.0006,-2.9504,-2.8533,-2.8768,-2.8903,-2.902,-2.923,-2.9197,-2.8954,-2.8501,-2.8073,-2.7603,-2.6877,-2.6624,-2.6556,-2.6691,-2.6624,-2.6556,-2.6691,-2.6826,-2.6975,-2.6905,-2.7114,-2.7085,-2.6516,0.0,0.0,0.0,0.0,0.0,-2.3686,0.0,-2.3603,0.0,-2.0763,0.0,0.0,0.0,-2.0805,-2.152,-2.1827,-2.2427,-2.3456,0.0,-2.5113,-2.5965,-2.6386,-2.6185,-2.5412,-2.5103,-2.4475,-2.3613,-2.3765,-2.4002,-2.4323,-2.4898,-2.5575,-2.6251,-2.6251,-2.642,-2.6657,-2.6503,-2.6636,-2.6891,-2.6916,-2.7002,-2.7149,-3.434,0.0,-3.4124,0.0,-3.5288,-3.5668,-3.6469,-3.7471,-3.7572,-3.6113,-3.5856,-3.558,-3.4982,-3.4918,-3.4549,-3.351,-3.3165,-3.2813,-3.2278,-3.1616,-3.1431,-3.1951,-3.1362,0.0,-3.0568,-3.0733,-3.0426,-2.9589,-2.8893,0.0,-2.8889,-2.7999,-2.7841,-2.8365,-2.9152,-2.947,-2.9454,-3.0215,-3.0609,-3.0733,-3.0952,-3.1112,-3.114,-3.0615,-3.0429,-3.0429,-3.0429,-3.0091,-2.9803,-3.0835,-3.0566,-2.9795,-2.9886,-3.0071,-3.0284,-3.0593,-3.0423,-2.9934,-2.9479,-2.8755,-2.7977,-2.7215,-2.686,-2.6691,-2.6691,-2.6691,-2.6759,-2.6979,-2.6961,-2.6925,-2.709,-2.7226,-2.7219,-2.6771,0.0,0.0,0.0,-2.477,0.0,0.0,-2.2061,-2.2446,-2.3012,-2.1036,0.0,0.0,0.0,-2.0789,-2.1163,-2.1599,-2.2458,-2.377,0.0,0.0,-2.6015,-2.6351,-2.6135,-2.5379,-2.5238,-2.4929,-2.4489,-2.3951,-2.4526,-2.5913,-2.5693,-2.6031,-2.6691,-2.6691,-2.6725,-2.6791,-2.6719,-2.6835,-2.7053,-2.7187,-2.7239,-2.739,-3.758,-3.7085,-3.6649,-3.7019,-3.666,-3.6169,-3.5505,-3.5979,-3.5916,-3.4494,-3.4649,-3.4794,-3.453,-3.3858,-3.3416,-3.3383,-3.2665,-3.2194,-3.2177,-3.1553,-3.1204,0.0,0.0,-3.0568,-3.0189,-3.0871,-3.0675,-2.9589,0.0,0.0,-2.8904,-2.8811,-2.9045,-2.947,-2.947,-2.9738,-3.0189,-3.0189,-3.0401,-3.0692,-3.0692,-3.0895,-3.119,-3.119,-3.119,-3.119,-3.119,-3.1173,-3.1173,-3.119,-3.119,-3.1134,-3.0814,-3.0935,-3.1112,-3.079,-3.0935,-3.1021,-3.0294,-2.955,-2.8789,-2.801,-2.7249,-2.6691,-2.6691,-2.6691,-2.6911,-2.762,-2.7559,-2.7721,-2.8769,-2.7511,-2.6457,-2.6824,-2.6418,0.0,0.0,-2.2917,0.0,-2.2879,-2.162,-2.144,-2.3227,-2.1512,0.0,0.0,0.0,-2.151,-2.1859,0.0,0.0,-2.3536,-2.3617,0.0,-2.5111,-2.5894,-2.6067,-2.5625,-2.6336,-2.5896,-2.4506,-2.4506,-2.527,-2.664,-2.593,-2.6031,-2.6691,-2.6691,-2.6808,-2.6939,-2.6187,-2.645,-2.7126,-2.6601,-2.6852,-2.7666,-3.7913,-3.7809,-3.756,-3.7435,-3.725,-3.7069,-3.6848,-3.6595,-3.6263,-3.5805,-3.4999,-3.4462,-3.4345,-3.4216,-3.3956,0.0,-3.3186,-3.3008,0.0,-3.1909,-3.1663,-3.2662,-3.1621,-3.0893,-3.0554,-3.0761,-3.034,-2.9259,-2.9112,-2.9082,-2.9029,-2.8998,-2.8998,-2.8967,-2.9167,-2.9213,-2.9182,-2.9633,-3.0,-3.0359,-3.0609,-3.0895,-3.119,-3.119,-3.119,-3.119,-3.119,-3.119,-3.119,-3.119,-3.119,-3.119,-3.1072,-3.1112,-3.119,-3.1072,-3.1112,-3.1038,-3.0311,-2.9939,-2.9448,-2.8146,-2.8044,-2.7977,-2.6928,-2.6691,-2.6911,-2.7672,-2.7719,-2.7563,-2.7224,-2.7242,-2.7,-2.6118,-2.6684,0.0,-2.4169,0.0,-2.4614,-2.2907,-2.2354,-2.2434,-2.3264,-2.2454,0.0,0.0,0.0,0.0,0.0,0.0,0.0,0.0,-2.5209,0.0,-2.6202,-2.6403,-2.6185,-2.5609,-2.5845,-2.571,-2.527,-2.5761,-2.6251,-2.6674,-2.6437,-2.6471,-2.6691,-2.6859,-2.6942,-2.699,-2.6988,-2.7147,-2.743,-2.7531,-2.7613,-2.7729,-3.7921,-3.8001,-3.7943,-3.7583,-3.7259,-3.718,-3.7433,-3.6658,-3.6026,-3.6026,-3.5015,-3.4194,-3.3941,-3.4002,-3.3872,-3.3404,-3.3371,-3.3371,-3.3371,-3.2272,-3.2029,-3.2935,-3.1945,-3.1221,-3.0879,-3.0886,-3.044,-2.9516,-2.9264,-2.9075,-2.9075,-2.9075,-2.9029,-2.8889,-2.9029,-2.8982,-2.8873,-2.9243,-2.9649,-3.0,-3.0215,-3.051,-3.0814,-3.0935,-3.1032,-3.1032,-3.1151,-3.119,-3.119,-3.119,-3.119,-3.119,-3.119,-3.119,-3.119,-3.119,-3.119,-3.1106,-3.0632,-3.0311,-2.9888,-2.8907,-2.8619,-2.8213,-2.6979,-2.6911,-2.7334,-2.8095,-2.8264,-2.8125,-2.7796,-2.775,-2.7479,-2.6512,-2.6935,-2.677,-2.5041,-2.5675,-2.5518,0.0,0.0,-2.3188,-2.3559,-2.3194,-2.3111,0.0,0.0,0.0,0.0,0.0,-2.4064,-2.4855,-2.5611,-2.6201,-2.659,-2.6269,-2.6068,-2.6015,-2.6015,-2.6015,-2.6031,-2.6488,-2.6742,-2.6808,-2.6725,-2.6725,-2.6808,-2.6859,-2.6957,-2.7087,-2.731,-2.7448,-2.76,-2.7882,-2.8029,-2.8258,-3.7743,-3.7786,-3.796,-3.7583,-3.6927,-3.6722,-3.7385,-3.6295,-3.5426,-3.5521,-3.4778,-3.402,-3.3498,-3.3356,-3.3309,-3.3309,-3.3309,-3.3309,-3.3309,-3.2645,-3.2349,-3.2396,-3.1981,-3.1598,-3.1286,-3.1223,-3.0849,-3.0101,-2.9453,-2.9075,-2.9075,-2.9075,-2.9075,-2.9075,-2.9075,-2.9075,-2.9075,-2.9075,-2.9289,-2.9589,-2.9589,-2.9826,-3.0231,-3.0526,-3.0651,-3.0692,-3.1032,-3.1151,-3.1151,-3.119,-3.119,-3.119,-3.119,-3.119,-3.119,-3.119,-3.119,-3.119,-3.119,-3.07,-3.0176,-3.0125,-2.8991,-2.774,-2.7148,-2.7469,-2.8129,-2.889,-2.9059,-2.9245,-2.9837,-2.8822,-2.784,-2.7722,-2.7148,-2.6539,-2.6033,-2.5885,-2.546,-2.4358,0.0,-2.3711,-2.4142,-2.3819,-2.4124,0.0,0.0,0.0,0.0,0.0,-2.4128,-2.5058,-2.5177,-2.5596,-2.6401,-2.5732,-2.5832,-2.6691,-2.6691,-2.6691,-2.6691,-2.6725,-2.6808,-2.6975,-2.6808,-2.6842,-2.7007,-2.6842,-2.6956,-2.7213,-2.7244,-2.743,-2.7701,-2.7701,-2.8175,-2.8947,-3.8001,-3.7801,-3.7642,-3.7539,-3.7338,-3.7291,-3.7449,-3.6295,-3.5774,-3.6848,-3.4968,-3.3893,-3.4794,-3.3941,-3.3309,-3.3309,-3.3309,-3.3309,-3.3309,-3.2645,-3.2554,-3.304,-3.2479,-3.2114,-3.2013,-3.1515,-3.0577,-2.9374,-2.9216,-2.9075,-2.9075,-2.9075,-2.9075,-2.9075,-2.9075,-2.9075,-2.9075,-2.9075,-2.9289,-2.9589,-2.9589,-2.9826,-3.0189,-3.0274,-3.0316,-3.0359,-3.0692,-3.0814,-3.0871,-3.1112,-3.119,-3.119,-3.119,-3.119,-3.119,-3.119,-3.119,-3.119,-3.119,-3.1072,-3.0801,-3.0243,-2.9397,-2.8958,-2.9922,-2.9397,-2.8924,-2.9685,-2.9837,-2.9533,-2.8552,-2.8552,-2.8315,-2.7148,-2.681,-2.6454,-2.5786,-2.5433,-2.5051,-2.4617,-2.4889,-2.5023,-2.4886,-2.5409,-2.5774,0.0,0.0,-2.5761,-2.6629,-2.6227,-2.5966,-2.5994,-2.6201,-2.6421,-2.6624,-2.6455,-2.6488,-2.6691,-2.6691,-2.6691,-2.6691,-2.6859,-2.6942,-2.7007,-2.707,-2.7117,-2.7166,-2.7261,-2.7355,-2.7448,-2.7552,-2.7642,-2.7701,-2.7701,-2.7824,-2.8193,-3.7844,-3.7642,-3.7583,-3.7743,-3.753,-3.7476,-3.8042,-3.6702,-3.6079,-3.7179,-3.526,-3.4051,-3.4794,-3.3941,-3.3309,-3.3309,-3.3309,-3.3309,-3.3309,-3.2945,-3.2914,-3.3293,-3.2945,-3.2582,-3.2333,-3.1571,-3.0528,-2.9075,-2.9075,-2.9075,-2.9075,-2.9075,-2.9075,-2.9075,-2.9075,-2.9075,-2.9075,-2.9075,-2.9213,-2.938,-2.938,-2.9515,-2.9694,-2.987,-2.9913,-2.9957,-3.0359,-3.0485,-3.0526,-3.0871,-3.0992,-3.0992,-3.1151,-3.119,-3.119,-3.119,-3.119,-3.119,-3.119,-3.119,-3.1021,-3.0294,-2.9803,-2.9617,-3.0074,-2.955,-2.9194,-2.9956,-3.0108,-2.9854,-2.9025,-2.8924,-2.8586,-2.7402,-2.6774,-2.628,-2.5875,-2.5821,-2.5763,-2.5662,-2.6326,-2.6655,-2.6493,-2.6918,-2.7199,-2.7114,-2.6629,0.0,-2.7304,-2.6733,-2.6367,-2.6295,-2.6556,-2.6691,-2.6691,-2.6691,-2.6522,-2.6201,-2.6539,-2.6742,-2.6859,-2.6942,-2.7072,-2.7215,-2.7198,-2.7244,-2.7355,-2.7355,-2.7434,-2.7496,-2.7569,-2.7642,-2.7736,-2.8105,-2.8473,-2.8947,-3.7583,-3.7539,-3.7685,-3.8059,-3.7673,-3.7702,-3.8652,-3.7373,-3.6502,-3.7173,-3.5607,-3.4444,-3.4446,-3.3767,-3.3309,-3.3309,-3.3309,-3.3309,-3.3309,-3.3309,-3.3309,-3.3309,-3.3309,-3.2977,-3.2333,-3.1476,-3.0433,-2.9075,-2.9075,-2.9075,-2.9075,-2.9075,-2.9075,-2.9075,-2.9075,-2.9075,-2.9075,-2.9075,-2.9075,-2.9075,-2.9075,-2.9075,-2.9121,-2.9425,-2.9544,-2.9589,-2.9957,-3.0103,-3.0146,-3.0526,-3.0651,-3.0733,-3.1015,-3.1151,-3.119,-3.119,-3.119,-3.119,-3.119,-3.119,-3.1055,-3.0429,-3.0277,-3.0108,-2.9465,-2.9313,-2.9499,-3.0142,-3.0277,-3.0243,-3.0125,-2.9583,-2.8907,-2.8041,-2.6983,-2.627,-2.6145,-2.6541,-2.682,-2.6727,-2.765,-2.8244,-2.8024,-2.8211,-2.8428,-2.866,-2.7679,-2.7337,-2.7967,-2.7067,-2.6559,-2.6628,-2.6673,-2.6691,-2.6691,-2.6928,-2.6623,-2.5778,-2.6538,-2.6961,-2.7007,-2.704,-2.7215,-2.7496,-2.7355,-2.7369,-2.7526,-2.7355,-2.7386,-2.7509,-2.7509,-2.7669,-2.7964,-2.8649,-2.9404,-3.0176,-3.7539,-3.7786,-3.8059,-3.8116,-3.8358,-3.8619,-3.8772,-3.7997,-3.7557,-3.7899,-3.6184,-3.4958,-3.5197,-3.4067,-3.3309,-3.3309,-3.3309,-3.3309,-3.3309,-3.3309,-3.3309,-3.3309,-3.3309,-3.2977,-3.2333,-3.1002,-2.9943,-2.9075,-2.9075,-2.9075,-2.9075,-2.9075,-2.9075,-2.9075,-2.9075,-2.9075,-2.9075,-2.9075,-2.9075,-2.9075,-2.9075,-2.9075,-2.9121,-2.9167,-2.9167,-2.9213,-2.9544,-2.9677,-2.9766,-3.0146,-3.0485,-3.0692,-3.0773,-3.0975,-3.119,-3.119,-3.119,-3.119,-3.119,-3.119,-3.1173,-3.1055,-3.1021,-3.1004,-3.0869,-3.0852,-3.0886,-3.1004,-3.1021,-3.0835,-3.0226,-3.0023,-2.9555,-2.8486,-2.7677,-2.6974,-2.626,-2.6639,-2.6836,-2.6414,-2.8139,-2.8915,-2.78,-2.8694,-2.9409,-2.9509,-2.8721,-2.8445,-2.8843,-2.8695,-2.8421,-2.8181,-2.7212,-2.6691,-2.6691,-2.7977,-2.7926,-2.6539,-2.747,-2.7572,-2.7007,-2.7279,-2.7434,-2.7496,-2.76,-2.7642,-2.7672,-2.7642,-2.7642,-2.7672,-2.7672,-2.8092,-2.8737,-2.886,-2.9404,-3.0226,-3.748,-3.7844,-3.8173,-3.8455,-3.8843,-3.9222,-3.9435,-3.8977,-3.8649,-3.8778,-3.6896,-3.5567,-3.5703,-3.4292,-3.3309,-3.3309,-3.3309,-3.3398,-3.3607,-3.3398,-3.3309,-3.3309,-3.2945,-3.2408,-3.1713,-3.0338,-2.9911,-3.0559,-2.9974,-2.9974,-3.0559,-2.9958,-2.969,-2.969,-2.9295,-2.9075,-2.9075,-2.9075,-2.9075,-2.9075,-2.9075,-2.9075,-2.9075,-2.9075,-2.9075,-2.9121,-2.9289,-2.9335,-2.938,-2.9722,-3.0,-3.0156,-3.0551,-3.0814,-3.0992,-3.1151,-3.119,-3.119,-3.119,-3.119,-3.119,-3.119,-3.119,-3.119,-3.119,-3.1495,-3.1782,-3.1782,-3.1782,-3.1681,-3.1343,-3.0632,-2.9993,-2.9642,-2.8671,-2.7883,-2.7688,-2.8036,-2.8399,-2.8584,-3.0075,-3.0868,-3.0373,-3.113,-3.1321,-3.0563,-3.0141,-2.9839,-2.9671,-2.9215,-2.8938,-2.8757,-2.8245,-2.7723,-2.73,-2.801,-2.8064,-2.7453,-2.7879,-2.8013,-2.7883,-2.8025,-2.794,-2.763,-2.7672,-2.7701,-2.7701,-2.7701,-2.7701,-2.7736,-2.8175,-2.8579,-2.9,-2.9825,-3.0369,-3.0823,-3.7275,-3.7604,-3.8028,-3.8488,-3.8772,-3.9191,-3.9969,-3.9664,-3.9339,-3.9401,-3.7765,-3.6486,-3.6432,-3.4872,-3.383,-3.383,-3.3702,-3.3694,-3.4,-3.3745,-3.3555,-3.345,-3.2523,-3.1731,-3.1084,-3.0053,-3.0128,-3.1431,-3.0765,-3.0781,-3.1415,-3.0605,-3.0209,-3.0193,-2.9497,-2.9213,-2.9213,-2.9213,-2.9213,-2.9198,-2.9305,-2.935,-2.935,-2.935,-2.9305,-2.9213,-2.9213,-2.9167,-2.9121,-2.9425,-2.9544,-2.9722,-3.0258,-3.0551,-3.0733,-3.1032,-3.1269,-3.1444,-3.1444,-3.1579,-3.1715,-3.1715,-3.1715,-3.1715,-3.1715,-3.2138,-3.2544,-3.2544,-3.2544,-3.2544,-3.2544,-3.163,-3.087,-3.0858,-2.9935,-2.9234,-2.9288,-2.9749,-3.0268,-3.0899,-3.1907,-3.2696,-3.3018,-3.3136,-3.2765,-3.1638,-3.1348,-3.0948,-3.0395,-2.982,-2.9499,-2.9499,-2.933,-2.8873,-2.8095,-2.8433,-2.854,-2.8391,-2.8579,-2.8645,-2.861,-2.8659,-2.8421,-2.7964,-2.7771,-2.7806,-2.7982,-2.7982,-2.7982,-2.8052,-2.886,-2.9281,-2.9579,-3.0756,-3.1317,-3.163,-3.6643,-3.6869,-3.7284,-3.7703,-3.7597,-3.8037,-3.9817,-3.9495,-3.9093,-3.9387,-3.8683,-3.803,-3.7629,-3.6315,-3.5413,-3.5413,-3.4824,-3.4448,-3.4448,-3.4448,-3.425,-3.3848,-3.2199,-3.1101,-3.0746,-3.0695,-3.0554,-3.031,-3.0898,-3.0898,-3.031,-3.026,-3.0185,-3.0185,-2.9754,-2.9544,-2.9544,-2.9544,-2.9544,-2.9589,-2.9957,-3.0103,-3.0103,-3.0103,-2.987,-2.9544,-2.9544,-2.938,-2.9121,-2.9121,-2.9335,-2.9633,-2.9677,-3.0156,-3.0692,-3.0733,-3.1463,-3.2205,-3.2205,-3.2713,-3.3237,-3.3237,-3.3237,-3.3237,-3.3237,-3.3288,-3.3322,-3.3322,-3.3322,-3.3322,-3.3322,-3.3237,-3.2824,-3.1875,-3.1692,-3.1408,-3.0651,-3.1233,-3.1867,-3.2148,-3.2865,-3.3516,-3.4049,-3.328,-3.2731,-3.2608,-3.1712,-3.1183,-3.1123,-3.1055,-3.1038,-3.1038,-3.0378,-2.9668,-2.8907,-3.026,-3.0374,-2.9229,-3.0022,-2.9782,-2.861,-2.8784,-2.886,-2.8772,-2.8017,-2.8122,-2.8807,-2.8807,-2.8807,-2.8895,-2.9702,-3.044,-3.1036,-3.1159,-3.1668,-3.2386,-3.695,-3.7026,-3.7524,-3.8573,-3.8521,-3.8756,-3.9918,-3.9834,-3.9716,-3.9817,-3.9008,-3.8335,-3.8164,-3.7014,-3.6088,-3.5645,-3.5349,-3.5103,-3.4885,-3.4785,-3.4182,-3.2933,-3.2238,-3.1817,-3.1681,-3.1287,-3.1532,-3.2514,-3.2126,-3.1896,-3.1808,-3.1128,-3.0828,-3.0811,-3.0239,-2.9957,-2.9957,-2.9957,-2.9957,-3.0,-3.0146,-3.0189,-3.0189,-3.0189,-3.0103,-2.9957,-2.9957,-2.987,-2.9798,-2.9798,-2.9886,-3.0,-3.0215,-3.0468,-3.0816,-3.1489,-3.2309,-3.3068,-3.3525,-3.3525,-3.3406,-3.3406,-3.3406,-3.3406,-3.3406,-3.3744,-3.4083,-3.4083,-3.4083,-3.4083,-3.4083,-3.3711,-3.3313,-3.3117,-3.2957,-3.2782,-3.2717,-3.2772,-3.3026,-3.3592,-3.3897,-3.432,-3.4989,-3.4699,-3.4276,-3.3677,-3.2951,-3.2343,-3.1901,-3.1444,-3.119,-3.119,-3.1053,-3.0544,-2.9685,-3.0243,-3.0394,-3.0159,-3.0488,-3.0508,-3.0202,-3.0284,-3.0071,-2.9632,-2.9316,-2.9369,-2.965,-2.965,-2.965,-2.972,-3.0475,-3.0949,-3.1247,-3.1756,-3.2142,-3.2457,-3.7037,-3.6774,-3.7053,-3.8168,-3.807,-3.8115,-3.9242,-3.9394,-3.9478,-3.9698,-3.9278,-3.8941,-3.8941,-3.8036,-3.7235,-3.6721,-3.6257,-3.5906,-3.5659,-3.5295,-3.4405,-3.2764,-3.2659,-3.2594,-3.25,-3.2067,-3.2459,-3.3723,-3.2768,-3.242,-3.262,-3.1672,-3.1196,-3.1179,-3.0615,-3.0359,-3.0359,-3.0359,-3.0359,-3.0359,-3.0485,-3.0526,-3.0526,-3.0526,-3.0443,-3.0359,-3.0426,-3.0384,-3.03,-3.0326,-3.0368,-3.041,-3.0675,-3.0797,-3.1143,-3.2445,-3.3189,-3.3802,-3.4789,-3.4687,-3.427,-3.4143,-3.41,-3.41,-3.41,-3.4675,-3.5131,-3.4895,-3.5047,-3.5216,-3.5216,-3.481,-3.4536,-3.4784,-3.4802,-3.4722,-3.4454,-3.4431,-3.4556,-3.481,-3.4844,-3.5047,-3.5571,-3.5622,-3.5216,-3.4252,-3.3863,-3.3372,-3.2662,-3.2252,-3.1902,-3.1664,-3.1918,-3.1596,-3.0636,-3.0636,-3.0805,-3.1148,-3.1185,-3.1219,-3.1194,-3.1293,-3.0979,-3.044,-3.0211,-3.0229,-3.0457,-3.0457,-3.0457,-3.0527,-3.1282,-3.1581,-3.1633,-3.2195,-3.2406,-3.2422,-3.6757,-3.602,-3.5679,-3.6105,-3.5588,-3.5746,-3.7638,-3.7905,-3.8176,-3.8903,-3.9631,-4.007,-4.007,-3.9428,-3.8988,-3.8988,-3.7635,-3.6772,-3.6772,-3.6045,-3.4987,-3.3578,-3.3423,-3.3271,-3.2934,-3.2917,-3.3048,-3.3406,-3.2645,-3.2313,-3.2256,-3.1546,-3.119,-3.119,-3.0855,-3.0692,-3.0692,-3.0692,-3.0692,-3.0733,-3.1072,-3.119,-3.119,-3.119,-3.0992,-3.0733,-3.0942,-3.0804,-3.0543,-3.0657,-3.0721,-3.0737,-3.0788,-3.1061,-3.1679,-3.3481,-3.4007,-3.4352,-3.5887,-3.6301,-3.6174,-3.5694,-3.5622,-3.5622,-3.5622,-3.6214,-3.6552,-3.5774,-3.6248,-3.6835,-3.6835,-3.6789,-3.6789,-3.6789,-3.7415,-3.7381,-3.5842,-3.6299,-3.6502,-3.5723,-3.5622,-3.5622,-3.5622,-3.5622,-3.5226,-3.427,-3.421,-3.3972,-3.344,-3.3649,-3.343,-3.2644,-3.3058,-3.2821,-3.1817,-3.18,-3.1893,-3.2108,-3.23,-3.1964,-3.1228,-3.1505,-3.1473,-3.1159,-3.044,-3.0545,-3.1194,-3.1194,-3.1194,-3.1282,-3.209,-3.2388,-3.2406,-3.2406,-3.2406,-3.2457,-3.6422,-3.6352,-3.6625,-3.7275,-3.7239,-3.7239,-3.779,-3.8345,-3.8751,-3.8954,-3.9631,-4.007,-4.007,-3.9884,-3.9343,-3.8328,-3.7838,-3.711,-3.6045,-3.525,-3.4648,-3.4213,-3.4175,-3.4108,-3.4037,-3.3532,-3.3558,-3.4167,-3.2899,-3.2313,-3.2256,-3.1546,-3.119,-3.119,-3.1112,-3.1072,-3.1072,-3.119,-3.1269,-3.1269,-3.1538,-3.1614,-3.1614,-3.1614,-3.1559,-3.1483,-3.1559,-3.1504,-3.1428,-3.1449,-3.1487,-3.1572,-3.2102,-3.2728,-3.336,-3.3847,-3.4404,-3.4938,-3.5387,-3.5904,-3.6259,-3.6131,-3.6088,-3.6088,-3.6088,-3.6277,-3.6362,-3.614,-3.6722,-3.7315,-3.7315,-3.7547,-3.7797,-3.7797,-3.7831,-3.7753,-3.7297,-3.7539,-3.7524,-3.6729,-3.6672,-3.645,-3.5939,-3.5888,-3.5752,-3.5471,-3.4848,-3.4401,-3.4255,-3.4335,-3.4145,-3.3692,-3.3946,-3.4012,-3.3914,-3.265,-3.2109,-3.23,-3.2351,-3.2446,-3.2541,-3.2621,-3.2509,-3.2249,-3.2214,-3.2122,-3.2037,-3.2186,-3.2267,-3.2284,-3.2533,-3.2737,-3.2884,-3.2884,-3.2884,-3.2884,-3.6911,-3.6582,-3.6468,-3.6924,-3.7009,-3.7009,-3.7009,-3.7635,-3.8227,-3.8531,-3.9191,-3.9766,-4.0054,-3.9817,-3.9342,-3.854,-3.7959,-3.7155,-3.5824,-3.5331,-3.4941,-3.4506,-3.4489,-3.4353,-3.4066,-3.3339,-3.3322,-3.4066,-3.2577,-3.1985,-3.2256,-3.1546,-3.119,-3.119,-3.119,-3.119,-3.119,-3.1385,-3.1517,-3.1517,-3.1726,-3.18,-3.18,-3.18,-3.18,-3.18,-3.191,-3.1946,-3.1981,-3.2366,-3.2661,-3.3028,-3.348,-3.3949,-3.4384,-3.4623,-3.5057,-3.5491,-3.5844,-3.6261,-3.6568,-3.6568,-3.6426,-3.6301,-3.6301,-3.6766,-3.7129,-3.6818,-3.7611,-3.8353,-3.8353,-3.858,-3.8883,-3.9208,-3.9183,-3.9003,-3.8649,-3.8721,-3.8505,-3.7751,-3.7693,-3.7401,-3.668,-3.6612,-3.6474,-3.6165,-3.5638,-3.5307,-3.5261,-3.5382,-3.5174,-3.4666,-3.4958,-3.5006,-3.4763,-3.3759,-3.3369,-3.3624,-3.3419,-3.3584,-3.4047,-3.3821,-3.3777,-3.3788,-3.3212,-3.3012,-3.3133,-3.2811,-3.2766,-3.288,-3.288,-3.2943,-3.3086,-3.3086,-3.3314,-3.353,-3.7905,-3.6789,-3.5791,-3.574,-3.5723,-3.569,-3.5639,-3.6332,-3.7127,-3.7821,-3.8599,-3.9326,-3.9918,-3.9394,-3.9035,-3.9122,-3.8002,-3.693,-3.6053,-3.5968,-3.5445,-3.4464,-3.4336,-3.3947,-3.3237,-3.2635,-3.2645,-3.3406,-3.1918,-3.1562,-3.2256,-3.1546,-3.119,-3.119,-3.119,-3.119,-3.119,-3.1423,-3.1517,-3.1555,-3.1763,-3.1873,-3.1873,-3.1873,-3.1908,-3.196,-3.2072,-3.2161,-3.2353,-3.3212,-3.4091,-3.4793,-3.4793,-3.4846,-3.5004,-3.5636,-3.5864,-3.6057,-3.6707,-3.6935,-3.6987,-3.6987,-3.669,-3.6385,-3.6385,-3.7525,-3.8372,-3.7698,-3.8753,-3.979,-3.979,-3.9796,-4.0072,-4.0814,-4.0918,-4.0629,-3.9905,-3.9802,-3.9554,-3.8839,-3.8684,-3.8355,-3.7586,-3.7534,-3.7241,-3.655,-3.6527,-3.6568,-3.6558,-3.6655,-3.6394,-3.568,-3.605,-3.5826,-3.4935,-3.5049,-3.5239,-3.5501,-3.4987,-3.5054,-3.5548,-3.5078,-3.5102,-3.5429,-3.3749,-3.3552,-3.4321,-3.3362,-3.3108,-3.3363,-3.3363,-3.3363,-3.3394,-3.3394,-3.3844,-3.438,-3.7905,-3.7635,-3.7229,-3.6637,-3.6535,-3.6315,-3.5723,-3.6772,-3.7719,-3.7889,-3.9039,-3.9681,-3.9276,-3.9089,-3.8611,-3.7655,-3.6921,-3.6431,-3.6233,-3.5557,-3.478,-3.4004,-3.3209,-3.2507,-3.1935,-3.215,-3.2645,-3.3406,-3.1918,-3.1562,-3.2256,-3.1546,-3.119,-3.119,-3.119,-3.119,-3.123,-3.1576,-3.1726,-3.1763,-3.2143,-3.2284,-3.2284,-3.2284,-3.2634,-3.3054,-3.2529,-3.2722,-3.323,-3.3441,-3.4424,-3.5565,-3.5565,-3.5987,-3.6391,-3.5952,-3.625,-3.6636,-3.618,-3.6513,-3.6987,-3.6987,-3.693,-3.6851,-3.6851,-3.7568,-3.8139,-3.7982,-3.9248,-4.0333,-4.0333,-4.061,-4.0926,-4.11,-4.0995,-4.0819,-4.0647,-4.0782,-4.0579,-3.9877,-3.9268,-3.8608,-3.7826,-3.7739,-3.7833,-3.7997,-3.7341,-3.7405,-3.8608,-3.7544,-3.6878,-3.6685,-3.6763,-3.6829,-3.6822,-3.6238,-3.5775,-3.549,-3.5393,-3.5602,-3.6102,-3.6014,-3.5878,-3.5792,-3.5617,-3.5405,-3.5249,-3.5232,-3.5222,-3.5302,-3.5302,-3.5423,-3.5608,-3.5608,-3.5718,-3.5828,-3.8362,-3.8142,-3.7787,-3.7381,-3.7313,-3.706,-3.6282,-3.6857,-3.7381,-3.7381,-3.8041,-3.8681,-3.9149,-3.8537,-3.7792,-3.6999,-3.6752,-3.6609,-3.6502,-3.6015,-3.5339,-3.4377,-3.3826,-3.3165,-3.2434,-3.2808,-3.2842,-3.2479,-3.2077,-3.2038,-3.2273,-3.1884,-3.1715,-3.1698,-3.1477,-3.1346,-3.1346,-3.1746,-3.1929,-3.1982,-3.2284,-3.2616,-3.2897,-3.2529,-3.2932,-3.3599,-3.2822,-3.3349,-3.4514,-3.4888,-3.5704,-3.6547,-3.6547,-3.6752,-3.69,-3.6496,-3.6654,-3.69,-3.6478,-3.6935,-3.7426,-3.7075,-3.7532,-3.79,-3.7163,-3.7865,-3.869,-3.869,-3.9937,-4.1007,-4.1007,-4.1235,-4.1408,-4.1408,-4.1318,-4.1244,-4.1244,-4.1318,-4.1251,-4.0866,-4.0482,-3.9922,-3.9136,-3.8734,-3.8636,-3.887,-3.8373,-3.8298,-3.8725,-3.8086,-3.7501,-3.7005,-3.6987,-3.7087,-3.7223,-3.6779,-3.6594,-3.6604,-3.636,-3.6653,-3.7422,-3.7037,-3.7014,-3.7186,-3.6419,-3.6231,-3.643,-3.6066,-3.5982,-3.609,-3.609,-3.6197,-3.6303,-3.6303,-3.6303,-3.6442,-3.9039,-3.8582,-3.8058,-3.7922,-3.7804,-3.7449,-3.6797,-3.678,-3.6864,-3.691,-3.7012,-3.7614,-3.8909,-3.7843,-3.6939,-3.6713,-3.6869,-3.6908,-3.6766,-3.6702,-3.6173,-3.5067,-3.4949,-3.4523,-3.359,-3.3813,-3.3237,-3.191,-3.2547,-3.269,-3.2394,-3.253,-3.2513,-3.2377,-3.1922,-3.1812,-3.1953,-3.2189,-3.23,-3.2317,-3.2722,-3.3143,-3.3512,-3.2948,-3.3402,-3.4262,-3.3301,-3.416,-3.5813,-3.6494,-3.7023,-3.7411,-3.7411,-3.7241,-3.6987,-3.6987,-3.7009,-3.7066,-3.7009,-3.7466,-3.7857,-3.7343,-3.8186,-3.8878,-3.7756,-3.852,-3.9515,-3.9515,-4.0621,-4.1604,-4.1604,-4.1604,-4.1604,-4.1604,-4.1604,-4.1587,-4.1578,-4.1613,-4.1587,-4.1578,-4.1508,-4.1165,-4.0533,-3.9901,-3.9568,-3.9691,-3.9585,-3.9269,-3.8731,-3.8573,-3.8204,-3.7554,-3.7536,-3.7431,-3.718,-3.718,-3.7418,-3.7954,-3.7546,-3.7895,-3.8891,-3.8358,-3.8395,-3.8836,-3.7247,-3.7004,-3.7643,-3.6736,-3.651,-3.6707,-3.6707,-3.6707,-3.6707,-3.6736,-3.6775,-3.7034,-3.9783,-3.9343,-3.865,-3.8024,-3.7364,-3.6763,-3.6205,-3.6648,-3.712,-3.7281,-3.7875,-3.8116,-3.7713,-3.7136,-3.6724,-3.6702,-3.6869,-3.6987,-3.6948,-3.6806,-3.6336,-3.5461,-3.5261,-3.4893,-3.4289,-3.431,-3.4068,-3.3481,-3.3733,-3.352,-3.2844,-3.3537,-3.3503,-3.2827,-3.2762,-3.3089,-3.3736,-3.3251,-3.3047,-3.3136,-3.427,-3.4374,-3.3875,-3.3999,-3.4993,-3.6121,-3.4613,-3.5148,-3.6566,-3.6674,-3.7005,-3.7394,-3.7394,-3.7223,-3.6987,-3.6987,-3.7164,-3.7317,-3.7048,-3.7217,-3.7583,-3.7875,-3.8351,-3.8812,-3.9309,-3.9882,-4.0323,-4.0323,-4.1007,-4.1604,-4.1604,-4.1604,-4.1604,-4.1604,-4.1604,-4.1604,-4.1616,-4.1578,-4.1604,-4.1616,-4.1057,-4.0586,-4.0498,-4.0375,-4.0586,-4.1253,-4.0691,-4.0584,-4.1075,-3.948,-3.8877,-3.9658,-3.9676,-3.9124,-3.797,-3.7953,-3.8113,-3.8463,-3.8654,-3.9093,-3.9753,-4.0359,-4.0304,-3.9717,-3.9465,-3.9043,-3.8542,-3.8383,-3.8346,-3.8377,-3.8377,-3.8377,-3.8377,-3.8508,-3.8711,-3.8914,-3.9136,-3.9289,-3.9136,-3.835,-3.8362,-3.8066,-3.6955,-3.7058,-3.717,-3.6827,-3.7094,-3.7379,-3.7611,-3.7526,-3.7381,-3.7101,-3.7164,-3.7279,-3.7431,-3.7356,-3.7084,-3.6637,-3.6387,-3.6073,-3.5667,-3.5819,-3.5836,-3.564,-3.5127,-3.4194,-3.2921,-3.368,-3.3628,-3.2904,-3.3017,-3.3323,-3.3859,-3.4146,-3.4359,-3.4532,-3.5111,-3.5375,-3.5429,-3.5112,-3.5764,-3.6816,-3.6285,-3.6534,-3.7226,-3.7662,-3.7848,-3.7915,-3.7915,-3.7685,-3.7431,-3.7431,-3.7541,-3.7577,-3.7468,-3.8183,-3.8919,-3.8681,-3.9738,-4.0799,-4.0709,-4.1181,-4.1563,-4.11,-4.1635,-4.211,-4.1943,-4.2056,-4.2145,-4.2145,-4.2145,-4.2151,-4.2149,-4.2157,-4.2151,-4.2149,-4.1854,-4.1606,-4.1396,-4.1396,-4.1453,-4.1587,-4.1306,-4.1086,-4.1014,-4.0514,-4.0032,-3.9663,-4.0141,-3.9975,-3.9062,-3.9045,-3.9203,-3.9511,-4.0073,-4.0312,-4.0312,-4.0863,-4.0928,-4.0579,-4.0579,-4.012,-3.9368,-3.9368,-3.9111,-3.8707,-3.8707,-3.8707,-3.8738,-3.8921,-3.9092,-3.9221]}]]